GFSNGP_250_spd_000.txt.gz
Wind_Speed
32 32 35 34 30 31 32 35 36 39 41 44 49 54 62 63 65 67 72 77 82 85 88 94 98 103 109 114 118 124 129 131 130 130 124 118 110 105 104 103 101 96 89 83
40 35 37 36 33 34 38 36 38 42 47 53 54 61 64 65 68 72 78 82 85 90 96 100 103 109 116 120 128 135 135 128 124 116 110 106 106 105 102 98 93 86 80 75
41 40 43 37 39 40 41 42 45 49 54 57 62 66 68 70 76 80 83 86 92 96 101 105 111 115 122 132 132 129 122 118 112 107 107 106 105 100 94 88 83 79 75 70
40 39 44 38 41 43 47 49 52 56 60 64 69 71 72 76 82 84 86 93 97 102 107 113 118 126 131 132 128 119 115 109 106 107 105 102 97 91 85 80 76 73 68 65
37 37 44 44 45 47 49 56 60 62 66 72 74 77 82 83 87 96 98 100 105 112 114 121 129 129 129 125 115 111 107 106 105 103 99 93 86 80 76 74 71 67 65 61
42 43 45 43 47 51 55 58 63 68 73 75 77 80 83 90 97 102 106 109 113 118 124 128 130 128 118 111 107 107 105 103 101 96 88 82 78 74 71 69 67 64 60 54
47 46 46 48 52 58 61 64 69 71 74 78 84 88 92 97 100 107 112 116 120 126 130 128 123 111 109 106 105 105 103 98 93 86 80 78 75 69 67 65 64 60 54 49
51 52 52 55 59 62 65 67 71 75 79 84 88 93 100 106 111 115 118 123 127 127 123 119 110 107 107 106 105 103 98 90 84 80 76 73 70 66 64 63 61 54 50 47
53 57 57 60 63 64 68 71 76 80 87 93 98 102 109 113 116 121 127 127 123 119 113 107 107 106 104 104 101 96 90 83 78 75 72 69 66 63 63 61 56 51 48 47
58 63 64 66 69 74 78 80 84 90 96 102 106 111 111 118 123 126 124 119 114 107 104 106 106 105 100 95 91 86 81 77 74 71 69 65 62 61 58 55 51 49 48 46
64 66 70 76 81 83 84 88 94 99 104 108 109 112 121 122 124 119 114 106 104 104 103 104 102 98 94 89 83 79 76 74 71 68 64 62 61 59 53 50 49 48 46 43
70 73 78 80 83 88 91 95 100 106 110 111 116 121 123 121 120 114 109 105 105 105 104 101 97 92 87 81 77 74 72 70 67 64 62 60 59 53 50 46 47 45 42 40
78 78 80 84 90 95 99 103 107 112 114 117 122 123 123 117 114 110 104 106 106 104 101 96 89 84 79 75 73 71 68 65 63 61 59 57 53 50 48 44 42 41 38 36
80 84 89 93 97 100 104 109 112 117 118 123 123 122 120 117 114 111 107 104 105 102 96 89 82 77 74 72 69 67 64 61 59 57 55 52 49 47 46 44 40 37 34 33
91 94 98 101 105 108 112 116 119 119 123 122 122 121 118 116 114 110 107 105 101 96 88 82 77 74 72 69 66 63 60 57 54 52 50 48 48 46 44 42 39 36 33 31
97 101 105 108 111 116 120 121 120 122 123 121 120 119 117 116 112 108 103 99 94 88 82 77 74 72 69 65 61 58 55 53 51 49 48 47 46 44 43 41 37 34 33 30
104 106 109 113 117 118 118 120 122 121 121 120 118 116 115 112 108 104 98 94 88 81 77 74 72 69 64 60 57 53 51 49 48 48 47 45 44 44 42 40 37 35 32 29
109 111 115 117 119 117 117 120 120 120 119 117 115 113 111 108 101 95 91 87 81 76 74 71 68 64 60 57 54 51 48 48 47 47 45 44 43 42 41 40 38 34 31 29
112 115 119 120 120 121 118 118 117 117 117 114 111 107 105 102 93 88 84 79 75 72 70 68 63 59 56 54 51 49 48 47 46 45 44 43 42 41 41 39 36 33 31 28
116 118 118 121 122 120 117 117 117 115 113 108 104 102 98 94 87 82 77 73 71 69 66 62 59 56 54 52 50 48 47 46 45 45 44 42 41 41 39 37 35 33 31 30
117 119 122 121 118 117 117 116 113 110 107 104 98 95 90 86 81 76 73 70 68 65 61 58 55 53 52 50 48 47 46 46 45 43 43 42 41 39 38 36 36 34 33 31
117 119 118 114 112 114 116 113 107 104 102 97 92 88 83 79 74 72 68 66 63 60 58 55 53 52 50 48 47 47 46 44 42 42 42 41 39 39 38 36 35 34 33 30
114 113 111 113 112 111 108 103 101 98 93 89 83 79 76 72 69 68 65 61 59 57 55 53 51 49 47 47 47 45 44 43 42 41 40 40 39 38 36 35 34 34 32 30
111 111 110 109 107 103 95 96 95 88 84 82 76 71 68 69 66 61 59 57 56 55 53 50 48 47 48 47 44 43 43 42 41 40 39 39 39 37 36 35 33 32 30 29
110 107 105 104 98 93 90 87 84 79 78 76 70 68 66 62 60 59 57 55 54 52 49 49 49 47 45 44 43 43 42 41 40 40 38 38 37 37 36 36 33 31 28 28
104 100 97 95 90 84 82 78 73 73 70 70 68 65 63 59 56 55 54 54 51 49 48 48 45 44 44 44 44 42 41 40 39 39 38 38 37 36 36 36 34 31 28 28
94 90 89 84 80 77 74 70 69 67 64 64 63 60 58 56 54 53 51 49 48 48 46 45 45 45 44 44 43 42 41 40 39 38 38 37 36 34 34 34 33 31 29 28

GFSNGP_250_spd_003.txt.gz
Wind_Speed
32 32 35 36 38 38 38 39 40 42 43 45 46 50 53 57 62 66 73 77 79 83 87 91 96 103 108 113 115 120 126 129 133 136 131 128 123 119 114 111 109 106 100 93
39 39 41 41 40 39 41 40 42 45 47 49 51 54 58 61 68 72 76 80 85 88 92 98 103 108 114 120 128 133 135 135 131 125 120 117 115 111 109 106 101 95 88 83
41 43 44 46 44 39 39 39 44 44 47 50 54 59 63 67 73 75 79 82 86 93 100 107 112 119 123 132 137 135 129 122 115 111 111 110 108 106 102 96 88 83 79 75
44 45 48 45 46 45 46 45 44 47 50 55 60 64 68 71 74 79 83 89 97 104 109 115 120 122 129 135 127 118 112 109 109 108 106 105 101 95 89 84 79 75 70 66
48 49 51 50 48 47 49 49 49 53 55 60 64 70 76 77 80 85 91 98 104 112 115 118 124 127 129 119 113 109 107 108 107 104 101 97 92 84 80 75 72 69 63 60
51 51 52 50 48 51 49 51 53 58 62 66 71 74 80 84 90 95 101 107 111 114 120 125 126 123 117 112 109 107 104 104 103 101 97 90 84 78 75 70 65 63 60 57
52 54 53 52 53 56 56 56 61 65 70 73 77 81 85 89 95 100 106 111 117 123 126 126 123 117 112 112 109 108 103 100 96 92 86 80 75 72 68 65 62 60 59 54
58 60 56 54 54 56 59 62 65 70 74 79 82 87 92 95 103 107 113 121 124 126 124 120 117 111 111 112 110 105 99 95 88 83 77 73 69 66 63 62 60 57 53 50
61 65 61 59 57 60 64 67 71 75 79 84 90 94 100 103 109 118 123 123 124 122 121 117 111 112 108 108 104 99 92 86 80 76 72 68 65 63 61 61 57 53 49 48
62 66 63 65 65 67 71 76 79 84 89 92 96 101 107 110 119 120 124 123 122 121 118 112 110 108 105 101 96 89 83 78 74 70 68 64 62 60 57 55 51 49 47 46
64 66 66 71 71 76 78 84 88 92 94 100 105 109 114 119 123 126 127 124 122 121 115 113 109 104 99 92 85 79 76 73 69 66 64 61 59 57 51 49 47 47 46 43
64 68 70 73 78 81 85 89 93 96 102 107 111 114 118 121 127 128 126 125 122 116 112 109 106 98 91 84 77 74 72 69 65 62 60 58 55 51 50 47 45 43 43 42
71 72 75 79 83 89 92 94 98 102 106 110 113 118 122 129 129 127 125 122 119 116 110 105 98 91 84 77 74 71 69 65 62 59 56 54 51 48 46 44 45 44 41 38
78 80 83 87 90 92 95 98 103 107 111 114 119 123 128 129 126 123 122 119 116 111 106 98 91 84 78 73 71 68 65 62 58 55 53 51 49 47 45 43 41 39 40 35
82 86 89 90 92 96 98 104 106 109 112 116 121 125 129 125 120 121 119 115 110 104 97 90 84 78 74 70 68 64 61 58 55 53 51 49 47 46 45 44 42 39 36 35
87 89 91 94 97 101 104 106 109 113 119 120 121 126 122 122 122 119 117 111 103 97 90 83 78 74 71 68 64 61 58 55 53 51 49 47 46 46 45 43 40 38 35 32
93 94 96 100 102 105 106 110 113 118 117 120 123 120 120 119 118 116 110 104 95 90 82 77 74 71 68 65 61 58 55 53 51 49 47 46 46 46 44 42 41 38 34 29
98 98 99 100 105 105 110 114 116 116 119 121 118 118 118 117 113 107 101 94 87 83 76 73 71 67 63 61 58 56 53 51 49 47 48 47 46 44 43 42 39 36 33 30
102 101 104 107 109 111 113 115 115 118 121 117 117 117 116 112 104 97 92 87 81 76 73 70 66 63 60 57 55 53 51 49 48 48 47 45 44 43 41 40 38 37 33 30
104 107 110 113 114 113 114 116 116 118 117 114 114 112 108 104 96 90 87 82 75 72 69 65 62 59 56 55 53 51 49 49 49 47 46 45 44 42 40 39 38 36 33 30
114 115 116 114 114 114 116 117 117 114 114 113 108 103 98 96 90 86 79 75 73 69 65 62 58 56 54 52 51 50 50 49 47 46 46 45 42 41 39 38 37 35 33 31
112 112 114 113 112 113 117 117 113 111 110 107 104 97 92 89 83 81 73 70 68 65 62 59 56 54 52 51 52 50 48 47 46 46 45 43 41 40 38 37 36 35 34 32
114 113 112 114 115 116 113 110 110 108 103 100 95 89 85 84 76 71 71 68 64 60 58 55 53 51 51 51 50 49 47 46 46 45 44 43 41 40 38 37 35 34 34 32
112 115 117 117 111 108 105 106 101 99 97 94 88 84 78 75 73 67 65 63 61 58 56 53 51 51 51 50 48 47 47 46 45 44 43 41 40 40 39 38 36 34 33 31
114 113 110 108 107 104 99 96 94 92 88 85 82 78 72 68 66 66 62 59 56 54 53 53 52 51 49 48 47 47 47 46 44 42 40 39 40 39 38 37 36 34 33 30
107 106 105 103 98 94 90 88 86 84 80 76 75 69 66 65 62 61 58 55 54 52 51 52 51 49 48 48 48 48 47 44 42 41 39 39 39 38 35 35 34 34 32 30
103 100 97 94 90 85 83 80 77 76 72 69 68 64 62 61 60 57 54 52 51 51 51 51 50 50 49 48 47 45 43 42 41 40 40 40 39 37 35 33 33 33 32 30

GFSNGP_250_spd_006.txt.gz
Wind_Speed
27 29 32 34 36 38 41 43 42 45 43 42 46 49 50 52 53 56 62 67 73 78 84 88 92 98 103 111 117 123 129 130 132 130 124 119 116 114 114 113 112 109 104 97
32 34 36 40 41 44 46 47 46 46 48 49 51 52 50 56 60 64 69 75 79 83 87 92 99 104 110 116 126 127 132 132 127 123 109 107 106 105 104 102 99 94 89 83
41 43 44 45 46 48 51 51 49 50 50 52 51 52 55 61 66 70 74 79 84 88 94 99 105 112 114 122 130 134 130 125 122 114 112 109 105 99 93 89 85 81 77 74
44 47 51 50 52 51 51 52 54 52 52 51 53 57 59 61 66 72 78 83 89 94 100 105 110 116 121 128 132 130 125 122 114 109 105 102 98 93 87 82 79 76 72 70
49 50 54 54 52 56 52 55 54 54 52 54 54 58 65 67 74 79 85 91 95 103 106 109 115 123 126 129 128 122 118 115 110 104 99 94 90 86 82 78 75 72 67 63
54 53 55 56 54 57 54 57 55 57 58 59 62 66 73 77 83 89 93 98 103 107 112 118 124 127 129 126 121 118 111 107 102 100 94 88 83 79 77 73 68 66 62 57
54 55 56 57 59 61 60 60 60 59 61 65 68 73 78 83 87 91 96 103 108 114 117 123 127 130 131 121 118 112 103 99 96 91 86 82 78 74 71 66 63 60 58 54
61 62 60 60 60 62 65 63 61 62 65 68 73 80 85 89 92 96 102 108 112 118 123 127 129 132 124 116 109 104 99 94 89 85 80 76 73 69 65 62 59 56 53 52
62 64 66 63 63 63 64 63 63 66 73 76 81 85 89 92 96 103 107 111 117 121 124 129 131 126 118 109 102 97 93 88 82 77 74 71 68 64 62 58 56 53 51 51
59 63 64 66 66 61 64 66 68 71 77 82 86 88 93 98 103 106 110 116 122 124 126 131 128 120 111 105 98 91 86 80 77 73 71 67 64 62 59 55 52 51 50 50
63 62 64 64 65 67 69 71 75 80 84 87 90 94 98 103 107 110 115 121 124 125 129 127 120 113 106 100 94 87 81 76 74 71 67 64 61 60 57 53 50 49 47 45
63 61 66 66 67 70 76 79 84 87 91 94 99 101 103 107 111 117 120 125 123 127 128 121 115 107 99 95 89 82 78 74 71 68 65 62 60 57 54 52 49 46 44 43
68 66 66 70 74 78 82 87 90 92 97 101 104 104 107 110 114 120 124 123 126 128 122 117 108 99 93 88 84 78 75 71 67 65 62 60 57 54 51 49 49 48 45 42
73 72 74 77 81 83 88 93 95 98 104 104 106 109 112 117 123 125 125 125 127 122 116 110 101 93 86 83 78 76 71 68 64 62 59 57 54 50 48 47 46 45 44 43
74 78 81 84 88 91 95 97 102 105 106 107 111 114 119 122 124 123 124 127 122 117 109 100 94 88 83 78 75 71 68 65 62 59 56 53 50 49 48 45 44 43 42 40
80 84 87 92 97 100 103 105 105 107 108 112 117 123 124 126 124 125 127 123 116 108 99 93 87 83 79 75 71 67 65 62 59 55 52 50 49 48 46 44 44 43 40 39
88 91 95 99 102 106 108 108 109 111 116 120 124 123 123 122 123 126 122 117 109 101 94 86 83 79 75 71 67 64 62 58 54 52 51 50 47 46 46 45 43 43 41 37
96 99 102 105 107 110 111 112 116 119 121 122 123 121 120 122 123 118 113 106 98 93 87 82 78 76 71 67 64 61 58 55 52 52 50 47 46 45 45 44 43 42 40 37
103 106 108 109 111 113 116 119 121 122 121 120 118 118 119 121 117 111 104 97 89 86 82 78 75 72 67 64 62 59 55 53 53 50 48 47 46 45 43 43 42 40 39 37
106 109 111 115 115 119 119 120 120 120 119 115 115 117 115 114 107 102 94 90 84 81 76 74 71 67 63 62 59 56 55 53 51 49 48 47 46 44 42 41 40 40 39 37
113 115 116 117 120 118 117 117 114 112 112 114 113 110 106 102 97 92 88 84 81 78 74 71 66 63 61 59 56 55 54 52 50 48 48 48 46 44 41 40 40 40 39 37
119 120 121 120 119 117 115 111 110 111 112 111 106 102 98 95 89 85 85 78 76 74 72 68 64 61 60 57 56 54 53 51 50 49 48 48 45 42 41 41 40 40 39 37
117 114 113 114 112 110 110 111 111 108 105 101 101 95 89 85 84 78 77 77 72 70 67 64 62 59 57 55 54 53 52 52 51 49 47 46 43 43 42 41 40 39 38 37
111 108 105 107 110 112 110 107 105 101 97 96 93 90 83 80 81 77 72 70 68 67 65 62 59 57 55 54 53 52 52 51 49 47 46 45 44 43 42 41 40 37 37 37
106 109 111 113 110 107 105 103 99 97 92 87 83 80 77 74 70 69 68 67 66 64 62 60 58 56 54 52 51 52 51 49 47 46 45 44 43 42 42 41 39 38 37 36
111 110 108 107 106 105 99 94 88 85 82 79 78 75 73 70 67 65 64 64 64 61 59 57 56 55 53 52 52 51 50 47 46 44 43 42 42 42 42 41 40 38 37 37
107 107 105 104 101 97 91 86 83 81 78 72 72 71 69 67 65 64 63 62 61 59 56 54 54 53 51 51 51 50 47 45 44 43 43 43 42 42 42 41 40 38 37 36

GFSNGP_250_spd_009.txt.gz
Wind_Speed
22 24 28 31 35 37 39 40 43 47 47 51 49 46 49 51 52 54 54 58 62 66 70 75 81 88 93 99 106 113 119 125 126 129 129 129 121 115 114 109 103 95 89 84
28 32 35 38 41 43 45 47 51 50 52 52 54 52 52 54 56 56 57 60 65 71 76 83 89 93 99 106 111 118 124 129 132 132 133 124 117 113 108 100 93 87 82 77
35 39 42 45 48 49 51 52 53 53 53 55 55 55 54 54 57 60 64 68 73 80 85 89 93 100 105 111 117 120 127 132 132 130 122 117 112 105 97 90 86 82 77 75
41 43 43 44 49 51 52 54 57 57 57 57 59 58 57 57 59 64 67 72 81 86 90 95 102 105 109 115 122 125 131 129 130 122 115 109 104 96 90 85 82 78 74 70
42 46 49 49 55 60 58 59 61 62 61 61 62 62 59 57 62 68 73 80 84 90 97 103 105 109 114 120 128 131 132 128 128 119 107 98 93 86 82 78 77 74 69 64
48 52 55 56 61 61 57 59 61 64 64 65 64 62 63 65 69 76 82 87 92 98 104 104 109 115 121 126 132 131 129 128 117 105 97 90 85 79 77 75 72 69 65 60
55 58 59 62 57 58 58 58 60 60 62 61 61 62 65 70 76 82 87 91 97 103 106 110 116 122 126 131 132 129 128 118 106 98 90 84 79 76 74 71 67 65 62 59
61 63 63 61 59 60 61 59 58 59 58 60 62 68 74 78 84 90 93 98 103 107 111 116 122 128 130 131 130 127 116 108 99 92 86 79 75 73 69 66 63 61 60 57
68 68 68 62 62 60 59 62 61 60 62 65 69 76 80 85 91 95 99 105 107 113 117 121 127 131 130 129 130 118 108 99 93 87 80 76 72 69 65 63 61 58 57 54
71 71 74 68 61 59 61 61 61 63 68 72 78 83 88 94 98 104 107 110 116 119 122 124 129 130 131 130 123 111 101 93 88 81 77 72 68 65 63 60 57 54 52 51
73 76 74 69 65 64 65 65 67 71 76 81 85 90 95 100 105 108 112 118 121 124 126 128 130 131 130 125 114 102 95 89 82 77 73 69 66 63 61 58 54 52 51 50
77 80 78 71 70 72 73 73 76 79 82 87 93 98 103 107 111 113 118 120 122 125 128 129 131 130 122 113 103 96 90 83 78 73 69 66 64 61 57 55 52 51 49 45
80 79 75 71 74 76 79 81 84 87 90 94 99 104 108 111 114 117 119 122 125 127 128 127 126 121 111 103 95 91 84 77 74 69 66 64 61 58 56 54 52 48 46 44
81 77 74 76 80 82 85 88 91 93 96 100 105 109 113 114 118 121 126 126 128 126 125 123 118 111 102 93 88 82 79 74 69 66 64 61 57 55 55 53 50 47 47 44
73 77 78 80 84 86 89 91 95 98 102 106 109 113 117 120 123 127 127 126 125 123 123 115 109 101 93 87 82 76 74 69 65 63 61 57 56 54 51 49 48 47 44 44
81 83 84 86 89 90 93 98 102 104 106 110 114 118 123 127 126 125 124 122 122 119 110 104 99 92 86 82 77 72 70 66 63 61 58 56 54 51 49 48 48 46 42 39
83 86 88 89 93 96 100 103 106 108 111 116 118 124 128 125 124 121 119 120 116 108 103 96 90 86 80 77 73 69 66 64 61 58 57 54 52 50 49 47 46 45 43 39
88 91 94 96 98 103 106 108 111 114 117 121 123 129 125 122 116 115 115 109 104 98 94 89 84 82 77 72 69 66 63 61 59 57 55 53 51 50 49 47 44 42 41 39
96 98 101 103 107 109 113 115 117 119 122 126 124 117 114 114 113 109 103 100 95 88 88 85 82 78 73 70 66 64 60 59 58 56 53 52 51 50 48 45 41 39 38 39
101 105 109 112 113 115 120 121 120 123 123 115 111 110 109 107 103 100 95 91 88 85 82 80 78 75 71 66 64 61 59 57 56 54 52 52 51 49 46 42 40 37 36 38
109 112 114 117 120 123 124 123 120 112 110 109 107 106 102 98 97 92 89 86 85 81 78 75 73 70 66 64 61 58 57 56 55 53 52 51 50 46 44 41 39 39 39 38
118 119 121 121 121 121 118 111 109 106 105 105 103 98 94 92 90 87 85 80 77 75 73 72 69 66 64 63 60 57 55 54 53 51 50 50 48 45 43 41 41 40 40 38
121 120 120 116 110 108 107 105 104 103 101 99 95 93 89 86 86 83 81 79 76 73 69 67 66 64 62 59 58 56 55 54 52 50 49 47 45 43 42 41 41 41 40 38
113 108 105 104 102 102 101 102 102 102 97 91 87 86 84 82 83 79 75 73 70 68 66 64 64 62 60 57 55 53 53 52 50 48 46 45 44 42 42 42 41 40 40 39
104 103 103 103 102 102 101 100 99 98 91 84 82 81 80 76 72 71 70 68 65 64 63 61 60 59 58 55 53 52 51 50 49 47 45 44 43 42 42 42 41 40 40 39
106 103 103 104 102 100 97 96 95 91 83 79 81 81 77 73 71 69 66 63 63 61 59 58 57 57 55 53 52 51 50 49 48 46 43 42 42 42 41 41 40 39 39 39
105 103 101 99 97 95 92 90 89 83 79 78 75 74 71 69 68 66 63 62 62 59 57 56 55 54 52 51 50 50 50 49 46 44 42 42 42 41 40 40 39 38 38 38

GFSNGP_250_spd_012.txt.gz
Wind_Speed
17 20 22 26 30 32 36 38 41 45 48 50 51 52 52 53 54 56 58 60 60 60 61 66 72 77 83 89 94 102 108 112 116 121 125 124 126 123 122 117 110 103 97 91
21 23 28 32 35 37 40 44 47 51 55 55 55 55 55 57 58 58 59 58 57 60 65 71 77 84 90 95 102 107 113 121 124 127 125 126 123 121 115 105 101 93 88 82
26 29 33 35 38 40 44 49 52 57 58 56 54 56 59 59 59 59 58 58 62 67 72 78 85 91 97 102 108 115 121 125 128 129 125 121 120 113 105 97 92 86 81 78
30 32 33 37 43 46 50 55 56 57 58 57 57 58 58 58 58 59 59 63 69 75 80 87 93 99 104 110 115 119 123 128 128 128 123 119 113 104 97 89 82 78 75 72
32 36 39 44 48 51 55 60 59 63 60 58 59 59 58 57 59 63 66 70 76 81 87 94 99 105 109 116 119 122 129 128 128 126 120 115 104 94 87 81 78 74 70 67
40 43 44 49 53 56 60 63 64 68 64 63 62 60 61 60 62 67 72 77 83 89 95 100 106 110 115 120 124 131 129 127 125 121 113 107 96 88 81 78 74 71 67 63
47 50 52 55 58 62 64 64 64 68 65 62 63 64 64 66 70 75 80 85 91 95 102 106 111 115 121 126 130 130 127 125 124 119 107 98 89 82 78 74 70 66 63 59
53 57 57 61 64 66 67 68 69 71 67 65 66 68 70 74 78 81 86 91 96 101 107 111 116 121 128 129 131 131 129 125 122 112 101 92 85 79 75 70 67 63 59 55
55 58 63 68 70 71 71 72 73 74 69 69 71 72 75 78 82 87 91 97 101 106 111 117 121 127 132 132 133 129 127 123 114 105 94 87 80 76 70 67 64 60 56 55
63 67 71 71 72 73 73 75 77 76 72 72 75 76 81 84 88 93 98 102 106 111 116 122 126 133 135 133 128 127 123 115 106 97 88 81 76 71 67 64 60 58 57 54
68 72 70 71 75 74 77 79 80 76 74 76 79 82 86 88 93 98 102 106 112 117 121 126 132 134 131 128 126 122 114 105 96 89 82 76 72 67 64 61 59 57 54 51
73 74 73 76 77 77 80 83 79 77 78 83 84 87 89 94 98 104 108 113 118 123 127 132 134 130 125 124 117 112 103 95 88 82 77 72 67 64 60 59 57 54 51 48
73 76 81 82 81 81 84 81 79 81 85 86 89 92 96 100 106 111 115 119 125 128 133 134 129 125 121 115 108 100 93 88 81 77 72 68 65 61 58 57 54 51 49 47
80 84 83 83 84 86 84 83 86 88 89 91 95 99 103 108 113 118 121 126 129 135 132 126 123 119 112 104 96 91 86 81 76 72 69 66 63 59 58 55 51 49 49 47
84 83 83 83 83 83 85 87 90 91 93 97 102 105 110 114 119 123 127 128 131 126 123 120 117 110 102 93 89 85 80 76 72 68 65 63 59 57 56 53 51 50 48 46
80 80 81 84 85 87 89 91 93 96 99 103 108 112 117 120 124 128 130 127 124 121 117 112 107 100 91 87 84 80 77 73 69 66 63 60 57 55 53 51 50 48 46 43
82 83 85 88 91 92 94 98 101 103 107 110 114 120 123 126 127 129 120 120 118 113 107 102 97 89 85 81 79 76 72 69 67 63 60 58 55 54 52 50 47 44 43 40
87 90 91 94 97 100 102 105 108 110 114 117 123 126 127 128 123 116 113 112 107 101 99 93 87 83 81 78 75 71 68 66 63 60 58 56 54 52 51 49 45 43 41 39
93 96 99 102 105 107 110 113 115 119 121 126 128 127 125 115 113 108 104 100 95 89 88 86 82 78 76 73 70 67 65 63 60 57 56 54 53 52 50 47 44 42 40 37
101 103 106 110 113 116 119 121 124 127 128 125 120 113 111 109 101 97 93 89 86 84 83 80 76 74 71 68 66 65 63 60 56 55 53 51 50 51 48 45 43 41 39 38
109 113 115 119 122 124 126 125 124 122 116 107 106 104 97 96 93 89 84 79 83 82 77 74 72 69 66 65 64 62 59 55 54 53 52 50 50 49 47 43 42 40 40 39
119 120 122 123 121 117 114 112 108 105 105 104 100 94 90 89 87 81 80 78 79 77 73 71 68 66 65 64 61 57 54 53 52 51 50 49 49 48 45 42 41 41 40 40
115 117 114 112 111 108 107 104 103 104 101 97 93 91 87 84 80 73 76 80 77 74 71 68 66 65 63 60 57 53 51 50 49 49 48 48 48 47 43 41 40 41 40 40
106 102 101 101 102 102 103 104 99 98 94 91 90 86 80 77 77 76 74 74 72 70 68 64 64 62 59 56 53 50 49 49 49 49 48 48 47 45 42 41 41 41 40 40
100 100 101 102 101 100 96 93 93 93 89 88 85 82 78 74 72 73 72 72 70 66 64 62 60 56 55 54 52 49 48 47 47 47 47 47 45 43 41 40 40 40 40 40
102 102 101 99 98 95 92 90 87 85 84 82 82 80 77 74 73 69 69 68 67 63 61 58 56 54 53 51 49 49 49 48 47 47 46 45 43 41 41 41 40 40 39 39
100 100 98 95 93 89 86 83 81 80 80 78 77 76 72 71 70 67 66 66 64 62 59 57 54 52 51 50 50 49 48 48 47 46 45 43 41 41 41 41 40 39 39 39

GFSNGP_250_spd_015.txt.gz
Wind_Speed
19 19 18 20 23 27 28 29 33 37 44 46 49 52 55 55 56 56 56 57 58 60 59 60 63 68 74 79 86 93 100 105 109 114 120 125 130 126 123 118 112 105 102 96
21 22 22 25 28 28 29 33 38 42 46 50 52 53 57 57 56 56 56 57 58 60 63 66 70 75 81 86 92 100 105 110 115 121 126 132 129 125 120 115 106 99 94 89
23 22 25 32 31 29 34 40 44 45 51 54 54 55 59 60 59 59 59 60 60 62 65 70 76 80 85 93 100 105 110 115 121 125 132 133 127 123 119 112 104 93 85 81
27 28 28 33 34 35 39 46 49 52 56 59 60 58 61 63 62 61 60 61 63 67 72 77 80 85 93 99 106 111 115 121 126 131 132 126 124 118 112 105 96 89 82 76
30 32 30 36 42 43 45 50 55 58 61 62 66 63 65 66 63 61 64 67 70 74 79 82 87 93 100 107 112 117 122 129 132 129 124 125 123 116 107 96 89 82 77 72
31 33 35 42 47 51 52 56 60 65 64 65 69 69 72 73 68 69 69 72 76 80 84 88 94 101 107 113 118 123 129 131 128 127 127 124 119 109 98 90 83 77 72 68
37 37 38 47 52 57 58 60 65 69 67 69 73 75 77 77 74 73 73 78 83 86 90 95 101 107 113 119 124 128 133 130 126 128 124 121 110 100 92 84 78 72 67 64
41 45 46 54 57 58 62 66 69 69 70 73 77 79 80 80 78 78 81 87 89 92 96 103 109 113 120 125 128 133 130 126 127 126 121 112 102 95 86 79 73 69 64 61
52 57 58 60 61 63 65 69 71 72 73 79 81 82 83 84 83 84 88 91 92 96 103 109 114 119 125 128 132 132 128 127 126 122 115 103 96 86 79 74 69 65 61 58
60 63 66 65 65 68 71 74 74 75 78 84 84 84 85 85 84 87 91 94 98 104 109 113 120 127 128 130 131 128 128 127 122 117 107 98 88 80 74 69 65 62 58 56
62 65 66 69 72 74 76 76 76 78 84 85 82 80 83 85 88 92 96 100 105 110 114 121 125 130 129 128 125 126 126 122 117 108 99 90 81 74 70 66 62 59 57 54
67 71 72 73 75 77 77 78 80 83 84 80 81 84 87 90 94 97 102 106 112 115 120 126 129 127 125 124 123 122 119 115 109 99 90 82 75 70 66 63 60 57 55 53
74 75 75 76 77 78 79 82 84 82 81 83 86 90 93 96 100 104 108 112 118 122 126 126 125 122 122 121 118 116 113 107 100 90 83 76 70 66 63 60 58 55 53 53
79 78 75 79 80 82 83 82 82 83 85 88 92 95 99 102 105 110 115 120 125 126 123 120 118 119 117 115 112 109 104 98 90 83 76 71 67 65 61 57 54 52 52 51
79 80 81 82 81 81 82 84 87 89 91 95 100 103 106 109 114 119 122 124 123 116 114 115 117 113 111 109 106 102 95 89 82 77 72 68 66 63 59 54 52 50 49 48
78 78 80 82 83 85 87 90 94 95 99 103 106 109 112 117 121 121 123 119 112 110 112 115 110 107 104 102 99 93 87 81 77 72 70 67 64 59 56 52 50 48 48 46
78 80 82 85 88 91 94 97 102 104 107 109 114 119 121 123 122 120 116 113 112 111 114 108 103 100 97 96 91 85 80 76 72 70 68 65 60 56 52 50 48 47 46 43
84 87 90 93 96 99 103 106 109 112 116 119 122 123 123 117 114 112 114 113 113 111 105 101 97 94 92 90 84 79 76 71 69 68 65 62 57 52 49 47 46 46 44 41
92 96 99 102 105 109 111 114 116 118 120 122 122 116 114 110 112 112 113 111 106 99 97 94 91 89 87 83 78 75 71 68 67 65 62 58 54 50 47 46 45 45 42 40
101 104 107 110 113 116 117 119 122 123 122 117 114 108 113 114 112 108 103 100 98 91 90 87 84 84 81 77 72 69 67 66 64 61 58 55 51 48 47 45 44 44 41 39
108 111 113 115 117 120 122 122 118 113 111 114 114 112 107 106 102 95 94 91 91 89 85 82 80 78 74 71 67 66 65 63 60 58 56 53 50 48 47 45 44 43 40 39
114 115 118 120 120 115 112 112 113 114 112 112 110 103 97 94 90 88 90 88 86 84 80 78 76 73 71 67 64 64 61 59 57 55 54 53 50 48 46 45 44 42 39 38
112 109 107 109 110 110 110 111 110 109 108 102 97 92 88 87 86 87 86 87 83 80 78 75 73 72 68 65 63 61 58 56 54 52 53 52 50 48 47 45 43 41 39 38
105 104 101 99 101 100 102 100 97 96 93 91 90 88 86 84 84 87 81 79 77 75 73 71 70 69 66 64 61 59 57 55 53 52 52 51 50 49 47 44 42 40 39 39
102 102 102 102 102 97 96 95 91 91 89 89 89 88 84 81 79 78 77 74 71 70 70 68 67 66 64 62 59 58 57 56 54 52 52 51 50 49 46 44 41 40 39 38
104 102 99 95 93 94 94 92 90 89 88 86 84 84 81 78 75 72 71 69 68 69 67 66 65 64 63 61 58 57 56 56 54 52 51 51 50 48 46 43 42 41 39 38
92 91 90 91 91 88 86 85 83 83 83 80 76 78 75 73 69 67 65 65 66 66 64 63 61 61 60 58 57 56 56 55 53 52 50 49 48 46 44 42 42 41 39 38

GFSNGP_250_spd_018.txt.gz
Wind_Speed
15 17 18 19 21 23 25 27 27 29 33 36 40 46 50 53 54 53 53 59 60 59 60 59 60 62 65 70 75 80 86 92 99 106 110 119 124 125 127 123 122 119 111 102
18 19 20 22 26 26 30 31 30 33 39 42 43 48 54 56 57 60 61 63 65 66 65 63 63 66 72 78 83 88 93 99 107 111 118 124 125 126 121 123 121 115 106 95
22 21 22 28 30 31 33 32 35 39 43 46 51 56 60 61 62 65 68 71 72 73 70 68 69 74 81 86 90 95 101 107 111 117 124 127 127 124 123 120 115 110 100 93
27 27 24 33 36 35 32 34 40 45 46 52 55 58 63 66 66 68 71 75 75 76 75 74 77 82 87 91 95 102 107 113 117 123 126 127 125 125 123 118 110 101 95 89
30 33 29 35 40 40 34 38 48 51 56 58 59 63 68 70 71 71 74 79 78 77 75 78 82 87 92 96 102 108 113 118 122 124 125 125 125 123 119 112 103 97 90 84
35 33 31 38 43 42 40 41 53 57 62 63 65 67 72 73 74 74 78 81 80 77 80 84 88 92 97 103 108 113 119 122 124 122 121 123 123 119 114 105 100 92 85 79
40 35 35 42 43 44 48 52 57 63 66 67 69 71 74 76 77 79 82 82 80 82 86 90 94 99 103 109 115 118 122 123 119 118 120 122 120 115 107 101 94 86 79 73
43 44 42 46 45 52 56 59 62 65 68 71 73 75 77 78 81 83 84 83 84 87 92 95 98 102 109 115 117 120 121 118 117 118 119 119 116 111 102 97 89 80 74 70
50 50 51 51 54 57 62 65 68 72 75 76 78 78 79 82 84 84 83 86 89 93 97 100 105 110 114 118 118 119 118 117 117 118 117 115 112 105 98 92 83 75 71 68
52 55 57 58 60 64 67 70 74 77 79 80 80 80 84 85 84 86 88 89 94 98 103 109 112 115 117 117 115 115 115 116 116 115 113 111 107 99 93 85 77 72 69 65
56 59 59 63 68 70 73 77 81 81 81 81 82 85 86 85 86 88 91 96 101 105 109 114 118 119 117 115 114 113 114 115 113 112 110 107 101 95 87 79 73 70 66 63
60 65 65 69 74 77 79 82 84 83 84 85 86 87 86 86 90 93 97 102 107 112 114 118 119 117 114 113 111 114 112 112 111 109 105 101 96 89 81 74 72 68 63 60
69 73 74 75 78 81 83 83 83 85 87 86 86 87 90 93 96 100 105 109 113 116 118 119 115 114 111 111 113 111 111 109 108 104 101 95 89 83 76 72 69 65 61 57
79 80 81 84 81 81 83 87 87 86 86 87 89 92 96 100 105 108 112 115 117 118 118 111 110 110 111 111 109 108 108 106 102 99 94 89 83 77 72 69 65 63 59 55
83 82 80 80 82 84 86 85 86 90 92 93 95 99 104 109 112 114 117 119 121 116 110 109 110 116 114 109 108 106 105 101 97 94 88 83 78 73 70 66 62 59 55 53
79 81 82 83 82 83 86 89 92 95 97 100 104 108 112 115 117 119 121 122 115 112 109 111 118 114 107 106 105 103 100 96 92 88 82 78 73 70 66 63 59 56 52 50
80 81 82 84 88 91 93 97 100 102 106 109 112 116 118 120 121 124 121 115 113 110 114 118 117 110 106 103 100 98 94 91 87 82 77 72 71 67 63 60 57 53 51 49
86 88 90 93 95 99 102 104 107 111 114 116 116 118 121 123 118 113 111 111 112 112 113 111 105 103 102 99 97 95 90 86 80 76 72 68 67 63 60 57 55 53 51 48
95 98 101 102 105 107 109 112 113 115 118 120 122 122 116 114 113 114 115 116 115 113 110 105 103 100 97 96 94 90 85 79 76 71 67 65 63 59 57 54 53 52 50 48
102 105 108 110 112 115 116 115 118 120 121 118 117 115 115 116 118 115 112 115 115 104 100 98 96 94 92 91 88 83 78 74 71 67 64 61 59 57 55 53 53 52 50 48
108 109 112 117 118 117 117 115 111 109 110 111 112 115 116 115 113 112 109 101 103 99 94 93 93 90 87 85 82 77 74 70 67 64 62 59 57 54 54 53 51 51 50 48
116 116 113 110 109 105 106 106 108 109 111 113 114 114 113 109 103 99 98 93 91 91 90 90 87 84 82 79 75 72 70 67 63 62 60 56 54 53 53 52 51 51 50 47
108 109 107 107 108 109 108 109 111 110 109 103 99 96 95 93 90 90 89 92 90 88 87 85 81 79 76 73 70 69 67 64 61 60 58 54 52 52 52 52 51 50 49 47
108 106 105 107 108 106 104 98 93 92 92 93 93 92 90 89 89 92 89 87 84 82 79 76 75 73 71 69 67 65 65 62 60 58 56 54 51 50 50 50 50 48 46 44
110 111 108 103 99 93 92 91 91 92 92 92 91 91 90 88 84 82 82 80 77 74 72 70 69 68 67 65 64 63 62 60 59 56 55 53 52 51 50 48 48 46 45 42
103 99 98 97 95 92 90 89 88 89 89 87 87 86 85 82 78 75 72 72 69 68 68 67 67 66 65 64 62 60 59 59 57 55 54 53 52 50 48 48 47 45 43 41
96 94 92 89 88 86 85 84 83 82 80 77 74 74 73 73 72 71 68 67 65 64 64 64 64 64 63 61 60 58 57 56 54 54 52 50 49 49 48 46 45 43 42 40

GFSNGP_250_spd_021.txt.gz
Wind_Speed
12 12 12 14 16 20 22 24 26 27 32 24 31 35 40 42 48 51 55 58 62 65 66 66 68 72 71 68 69 73 78 84 88 93 99 104 109 111 115 113 114 116 117 116
15 15 16 19 23 26 27 29 29 31 37 31 35 40 45 50 54 57 60 63 67 69 71 71 73 76 76 74 76 81 85 91 95 100 106 111 113 116 114 115 116 116 116 111
18 20 20 25 31 30 31 32 33 35 38 35 40 46 52 55 60 62 64 67 71 73 74 76 78 80 78 79 83 87 93 97 102 107 111 114 116 115 114 117 117 116 112 103
25 25 24 32 36 36 34 36 36 37 36 39 44 50 57 61 63 66 70 73 74 75 76 79 82 82 81 83 87 93 99 103 108 112 114 115 114 114 115 115 116 112 106 97
28 30 29 35 39 42 41 39 41 38 41 45 51 55 60 63 67 71 75 77 78 77 79 83 84 83 85 87 93 99 103 109 111 114 114 112 113 113 114 113 112 107 101 93
33 31 33 39 44 44 44 42 46 46 49 54 57 60 64 67 71 76 80 81 81 80 85 87 85 86 89 93 98 103 108 111 114 112 110 112 112 112 111 109 107 102 97 90
37 36 38 44 44 46 47 47 49 52 57 60 63 68 71 74 78 82 83 84 82 86 89 88 88 90 94 99 104 109 111 114 114 110 110 112 112 110 110 107 104 97 92 86
42 45 45 47 48 49 48 50 52 56 61 63 68 72 75 79 82 86 85 85 89 90 88 87 90 95 100 106 110 112 114 115 111 108 110 111 111 109 108 105 101 95 88 82
48 50 51 51 53 53 53 55 60 62 65 68 73 76 79 83 86 86 88 91 89 88 90 93 97 102 106 110 113 114 114 110 107 109 110 110 109 106 105 101 96 90 84 77
51 54 55 55 55 57 60 61 65 69 71 75 79 82 85 86 87 88 87 87 91 93 96 99 103 107 111 113 115 111 108 107 108 108 108 108 105 104 101 97 92 85 79 73
50 54 55 58 62 63 65 69 72 76 80 84 87 87 86 86 87 85 88 91 94 99 103 107 111 114 114 116 110 106 107 107 105 106 107 105 103 100 97 92 87 81 74 70
56 60 60 64 67 69 73 77 81 85 88 89 86 86 87 85 88 91 96 98 101 105 109 113 114 115 114 109 106 110 109 104 105 106 106 104 100 97 92 87 81 77 70 67
63 64 66 69 72 76 80 84 87 88 85 84 84 85 87 91 94 99 103 105 108 111 114 117 115 111 107 106 109 108 107 110 110 106 103 98 97 94 87 81 77 72 67 63
69 70 73 77 80 84 88 87 84 83 82 83 86 90 95 99 104 107 110 113 114 115 115 114 110 108 111 111 107 106 108 107 102 101 98 96 94 88 81 76 73 67 65 61
76 77 79 83 85 84 83 82 81 83 86 90 93 98 103 107 110 112 116 118 118 117 115 115 114 114 112 111 111 112 109 102 100 97 96 94 88 82 76 72 68 64 60 58
82 84 85 86 84 81 82 85 89 92 94 97 102 106 107 111 115 118 117 116 114 114 114 115 115 118 118 116 112 105 102 100 96 96 92 87 82 76 71 68 64 60 57 55
87 87 86 84 85 87 90 94 97 100 103 108 110 112 116 119 118 114 114 112 112 114 113 118 120 119 115 106 101 100 98 97 94 90 85 81 76 72 68 64 60 57 55 52
88 86 86 89 93 96 99 102 104 106 110 112 115 117 116 116 114 114 115 116 118 121 119 115 111 105 102 102 100 98 96 90 87 83 80 75 70 69 65 60 57 55 52 49
87 90 94 98 100 103 106 109 111 114 116 117 118 120 116 115 117 119 121 124 125 121 113 105 104 103 100 97 93 92 89 83 81 77 73 70 67 65 61 57 54 52 50 48
94 97 101 104 106 110 112 113 115 118 118 115 117 120 120 119 116 120 119 114 109 105 105 103 100 98 95 91 88 85 79 78 75 71 68 66 63 62 58 54 53 51 49 47
101 104 107 109 111 113 115 118 117 116 116 117 119 122 121 119 116 112 108 109 107 102 98 97 95 91 88 84 82 78 75 72 70 67 65 63 60 57 56 53 51 50 49 47
110 111 113 113 115 117 117 117 116 117 117 118 117 108 102 100 101 102 102 100 97 95 93 90 88 85 81 78 77 73 70 67 66 64 62 58 55 54 52 51 51 50 48 46
115 117 114 113 113 112 114 115 115 112 111 103 102 101 98 97 96 95 94 96 92 89 85 82 79 78 76 73 72 68 66 65 62 60 58 55 53 50 49 49 49 48 46 44
109 110 112 113 114 113 110 105 100 100 101 99 97 96 94 91 90 91 88 84 81 78 76 74 73 71 70 69 68 66 64 61 59 56 54 53 51 50 49 48 47 47 45 43
113 115 113 113 112 106 102 100 96 94 93 91 91 91 90 88 81 77 76 75 75 73 71 69 68 67 66 65 64 61 59 57 55 54 52 51 49 48 47 46 45 44 43 41
117 113 104 102 100 97 94 91 89 87 86 85 85 83 81 79 78 76 74 70 67 66 65 64 63 62 61 60 59 57 56 55 54 52 50 49 48 47 46 46 44 43 41 40
102 99 96 92 90 89 87 85 84 83 80 76 73 74 72 72 72 70 69 68 65 63 62 61 60 58 58 57 57 56 54 53 51 50 48 47 46 45 44 44 43 41 40 39

GFSNGP_250_spd_024.txt.gz
Wind_Speed
17 15 16 17 18 20 23 24 25 28 30 29 28 35 36 38 40 43 48 50 54 57 61 64 68 72 76 77 76 77 79 79 80 83 88 93 99 104 107 111 110 107 106 108
20 21 19 19 22 24 25 27 29 30 35 35 35 37 39 41 42 47 53 55 58 63 66 70 74 78 79 79 81 83 84 83 85 89 94 100 105 109 112 110 108 107 108 108
24 22 21 25 27 27 29 31 32 34 38 39 42 43 41 41 45 54 58 60 65 70 74 76 79 81 82 84 85 84 84 86 90 95 100 106 110 113 114 109 109 108 110 110
27 25 25 31 32 33 33 35 35 37 40 44 46 45 45 47 53 59 63 67 71 74 77 80 83 85 86 87 84 86 88 92 96 101 106 110 113 113 109 109 108 109 109 109
30 30 30 33 37 39 37 38 38 40 44 44 48 49 52 55 59 64 68 71 75 78 81 84 87 87 87 85 87 91 94 98 102 107 110 113 110 106 106 107 106 108 109 104
34 33 34 38 40 41 42 42 46 48 49 49 51 53 57 60 62 66 71 75 79 83 85 87 86 87 85 88 93 96 99 104 108 112 114 112 108 108 109 109 108 108 104 102
36 37 39 41 42 44 46 47 49 53 56 57 58 57 60 64 67 71 76 81 85 86 85 84 86 86 89 94 99 102 105 109 112 114 110 106 107 109 109 109 108 104 101 100
40 43 42 44 44 47 49 52 56 58 59 56 58 63 65 69 73 79 84 85 83 83 84 84 87 92 96 101 104 107 110 112 111 109 106 106 107 109 109 107 103 102 102 95
45 46 46 48 49 49 50 53 56 58 57 61 65 67 71 75 80 84 83 81 82 82 83 88 93 97 102 106 110 112 112 108 105 105 109 109 108 108 108 102 100 99 95 89
48 49 47 46 47 50 54 57 58 60 65 67 70 74 78 82 83 80 81 82 83 87 91 96 102 105 108 111 113 106 107 104 106 107 106 106 107 104 102 102 102 96 90 83
48 52 51 55 57 59 61 61 64 67 71 74 77 80 83 82 81 81 82 86 91 95 98 103 107 110 113 114 105 104 104 108 108 106 111 108 101 100 104 103 96 90 83 80
52 54 57 62 65 66 66 69 72 74 76 79 82 86 85 82 82 86 90 94 98 101 105 108 110 112 111 106 105 107 107 110 115 111 107 105 104 106 102 97 90 85 80 74
58 65 67 68 69 72 74 75 77 79 82 86 89 88 85 87 90 94 97 102 106 108 110 114 115 110 112 110 112 116 119 119 113 106 105 107 105 99 95 89 85 78 75 70
68 71 71 72 74 76 77 79 82 86 90 90 88 86 89 94 98 101 105 108 110 112 112 110 110 113 114 117 118 120 118 114 110 108 106 103 97 94 90 85 78 72 70 66
76 75 76 79 80 80 82 86 90 90 89 88 87 91 96 99 102 106 109 112 115 118 118 117 117 118 118 120 121 117 111 111 111 107 101 97 92 88 84 77 72 67 65 63
78 81 82 82 84 87 90 92 89 89 89 91 94 98 102 107 110 114 117 117 116 116 114 116 119 119 121 125 116 110 109 106 100 99 96 92 85 81 75 71 67 63 62 60
82 84 86 89 92 92 90 91 91 92 96 99 103 106 110 113 116 116 116 117 116 118 118 119 122 124 124 117 110 107 102 99 96 91 88 83 76 74 70 66 63 61 59 57
86 90 92 91 91 92 92 94 97 101 104 107 111 114 114 117 118 117 119 120 122 121 122 116 111 108 106 104 100 97 95 91 87 84 80 75 72 69 67 65 62 59 57 54
87 88 90 92 92 95 98 101 104 108 113 114 119 117 120 116 113 118 118 118 117 112 110 110 108 104 98 95 92 88 85 82 79 76 73 69 68 66 64 62 60 57 54 51
89 91 92 95 97 100 104 108 111 114 118 118 118 117 116 116 117 120 120 116 113 109 104 98 96 92 88 86 84 80 76 75 73 71 69 66 65 63 61 59 57 54 51 48
91 94 96 99 103 108 111 114 114 118 118 117 115 115 117 120 118 115 107 104 103 99 95 89 88 85 81 79 77 75 73 71 69 67 66 64 62 60 58 56 53 50 48 46
96 99 102 106 111 112 112 115 116 115 115 113 114 116 114 110 108 105 99 94 92 91 86 83 81 79 76 75 74 71 69 67 66 65 62 60 58 56 54 52 49 47 45 44
103 106 109 110 111 113 114 112 112 114 113 116 114 108 104 99 98 94 91 91 86 83 79 78 76 74 72 70 69 68 67 64 62 60 57 55 53 51 50 48 46 45 44 43
108 108 110 111 110 108 109 111 113 113 111 105 105 100 96 93 91 86 81 77 75 73 73 71 70 68 66 65 65 62 60 58 55 54 54 52 50 48 47 45 44 43 43 43
103 103 105 107 107 110 111 114 109 104 100 96 97 94 90 85 80 77 76 75 73 70 68 66 65 64 61 59 58 57 57 56 54 53 53 51 49 47 45 44 44 43 42 42
106 107 108 108 110 111 107 102 96 94 93 91 90 86 83 80 78 76 74 72 68 66 63 61 59 57 57 56 56 56 56 55 53 50 49 49 47 45 43 43 42 41 40 40
108 108 109 105 102 98 94 93 91 88 86 82 79 77 76 75 74 72 70 68 66 63 61 58 57 57 56 55 54 54 52 51 50 47 45 45 44 43 42 41 40 39 39 39

GFSNGP_250_spd_027.txt.gz
Wind_Speed
25 23 24 23 23 24 24 25 27 27 29 31 30 33 36 39 42 46 48 48 48 50 56 62 67 71 75 77 80 83 85 85 82 82 83 87 93 98 101 105 110 112 112 109
26 26 24 23 26 27 26 28 29 30 34 32 36 37 40 43 45 49 52 52 54 58 63 68 71 76 77 79 83 86 85 82 84 84 89 93 99 102 106 110 111 110 107 106
28 26 26 28 29 27 30 31 30 32 35 38 40 43 45 45 46 48 51 54 59 64 68 71 73 75 79 84 85 82 82 84 85 90 95 100 103 107 112 107 105 105 106 106
30 29 28 32 31 32 32 34 34 37 41 43 44 46 46 47 50 51 55 59 63 65 68 72 75 80 85 84 82 83 85 87 91 96 101 104 108 112 104 101 103 105 108 110
34 34 34 35 36 37 37 39 37 42 45 47 47 50 53 53 59 60 61 61 64 69 71 76 82 84 83 83 83 86 90 94 97 102 106 109 111 105 98 101 106 110 112 107
37 36 37 39 39 40 41 41 43 47 48 50 52 55 61 61 63 65 63 66 72 74 77 82 85 83 84 84 87 92 95 100 103 107 110 111 104 101 104 107 111 113 107 101
38 39 40 40 41 42 44 45 47 50 52 55 57 60 62 64 64 64 67 71 76 80 83 86 84 83 84 89 94 97 101 103 107 110 108 105 103 105 110 112 108 101 100 103
40 42 42 43 43 46 47 49 50 53 55 55 58 62 63 64 67 68 74 75 81 85 88 87 85 87 90 95 98 103 106 108 109 109 105 107 109 110 113 110 101 104 102 101
45 47 44 44 46 48 49 52 55 55 58 59 62 66 66 67 73 76 80 80 84 89 88 87 88 92 98 102 105 108 113 113 110 107 111 116 113 111 102 104 105 103 100 100
45 47 45 47 49 51 54 55 57 59 63 65 68 71 73 75 80 81 83 88 91 89 88 89 93 99 104 108 110 112 112 111 112 116 117 115 110 106 113 110 107 107 102 100
47 48 48 49 50 53 57 57 61 67 68 70 76 77 80 83 83 85 92 90 91 90 92 96 100 104 109 111 112 111 111 114 115 110 113 113 110 108 105 103 103 101 98 92
47 46 51 55 56 57 59 66 71 71 75 78 81 84 86 87 89 94 92 93 92 94 98 102 106 110 111 111 109 111 114 116 121 126 123 115 108 107 104 103 100 95 89 83
52 56 57 60 60 64 68 73 75 78 81 84 86 88 89 92 94 93 93 94 99 103 107 110 112 114 113 112 111 114 115 115 119 120 114 112 110 108 104 97 91 86 81 77
61 62 62 67 67 71 76 79 82 84 85 88 89 91 95 93 94 94 98 101 105 109 114 115 113 116 112 110 111 114 117 117 119 119 113 106 98 93 90 85 82 78 76 72
65 68 70 71 76 79 82 84 87 88 89 91 95 92 93 94 96 100 104 109 113 116 118 116 114 113 115 115 116 118 118 114 108 103 97 94 90 87 84 80 75 73 70 67
71 73 76 79 82 84 86 87 88 91 96 93 92 94 95 99 104 107 111 116 118 118 119 119 116 117 117 116 110 106 104 101 97 95 92 88 84 79 76 74 71 69 65 62
72 78 81 83 84 86 86 91 92 90 93 94 96 99 103 107 109 114 118 119 122 121 117 113 114 113 113 113 107 102 98 97 93 89 84 79 77 74 73 70 66 65 62 59
79 82 82 83 85 89 91 91 92 95 96 98 101 105 109 113 118 121 122 121 119 115 117 114 114 111 107 104 100 95 89 85 83 81 78 74 72 71 68 65 63 63 60 57
82 83 85 89 91 91 91 95 97 99 102 104 107 111 116 119 122 120 118 116 113 113 114 114 112 106 101 95 89 86 83 80 78 77 74 70 68 67 66 63 61 59 57 55
84 88 90 91 91 94 97 99 101 104 107 111 115 118 120 121 116 116 115 114 112 108 110 106 102 97 91 86 82 81 79 76 72 71 69 68 66 64 63 60 57 55 54 52
90 91 90 93 97 98 100 103 107 111 114 117 119 117 116 116 115 113 113 108 110 105 102 99 93 88 84 82 80 75 72 72 71 68 66 64 61 60 58 56 54 53 52 50
89 92 94 96 98 103 107 109 112 115 118 117 115 116 114 114 115 111 110 106 103 99 94 90 86 83 80 77 75 72 70 69 67 66 63 59 57 56 57 56 54 52 51 49
92 95 99 103 106 108 110 113 116 116 114 115 113 113 114 112 110 105 102 102 96 91 86 83 81 78 75 73 71 69 67 65 63 62 60 59 56 55 55 55 53 51 49 47
101 103 105 106 109 113 113 114 113 113 112 112 113 113 111 108 102 99 95 90 86 83 80 76 74 71 69 68 66 64 62 62 63 61 60 59 55 52 51 50 49 47 46 44
103 106 109 111 110 110 110 112 111 111 114 114 110 106 102 100 95 91 88 85 81 78 76 73 70 68 65 63 61 60 59 59 58 59 57 56 53 51 50 48 47 45 44 43
107 108 108 108 109 109 108 109 111 112 111 106 102 100 97 91 88 85 83 80 77 74 72 69 67 66 64 62 60 58 56 56 54 53 52 52 51 50 49 47 45 44 42 42
104 105 107 107 108 109 110 110 107 104 100 99 97 92 88 85 83 81 78 75 73 71 69 66 65 64 63 60 59 58 56 55 54 52 50 48 47 45 45 44 43 42 41 40

GFSNGP_250_spd_030.txt.gz
Wind_Speed
30 27 28 27 27 28 27 25 24 24 25 29 27 30 35 38 40 43 48 45 49 54 52 51 54 58 62 66 67 73 76 82 87 90 87 86 86 92 96 100 103 105 107 109
30 29 27 27 29 28 26 23 25 27 28 31 33 35 39 41 42 44 47 51 52 55 60 60 62 65 64 68 72 77 82 86 89 89 87 88 92 98 102 105 109 109 106 102
28 28 27 29 28 26 25 26 27 29 33 37 38 39 41 47 47 49 52 55 58 62 65 69 69 64 67 73 76 81 86 91 93 89 90 94 99 103 106 110 112 106 103 105
28 27 28 30 29 28 29 30 30 33 36 41 42 46 48 47 48 53 55 57 62 66 67 67 69 70 77 80 82 87 92 94 92 91 94 99 105 110 113 112 109 107 106 107
30 30 32 33 32 34 34 35 35 39 43 45 47 50 50 50 53 56 60 63 65 66 68 71 75 79 83 86 90 95 93 93 93 95 100 105 109 114 110 109 107 107 105 101
34 33 34 35 37 38 39 39 41 46 46 49 50 51 54 55 57 58 62 66 68 72 73 76 81 85 87 90 95 95 94 95 98 102 107 110 110 108 107 109 111 111 111 114
36 36 37 38 41 41 43 45 45 48 50 52 53 57 57 59 61 66 65 67 71 76 80 83 86 88 91 97 97 96 97 101 105 109 111 111 110 111 113 115 113 113 114 113
37 39 40 42 42 46 46 48 51 52 53 54 56 60 63 64 66 68 74 71 77 82 86 88 90 92 96 96 96 98 103 109 113 114 113 114 113 112 114 116 115 113 111 108
39 41 42 43 46 47 49 54 54 53 54 56 60 63 65 68 71 73 79 81 84 86 90 91 95 96 95 96 100 104 108 113 115 118 118 117 117 114 113 112 113 109 102 98
42 45 43 46 48 47 51 52 52 54 56 59 63 66 70 74 77 80 83 86 90 90 92 96 94 95 96 101 107 111 115 118 118 117 116 116 116 118 116 108 104 102 98 96
46 48 50 48 45 50 52 50 52 58 60 64 67 71 76 79 82 86 89 92 92 93 96 93 95 98 102 108 111 116 119 119 119 115 111 112 110 109 109 103 98 98 95 90
50 49 54 50 48 50 51 55 61 64 66 69 73 78 82 85 87 90 91 92 96 95 95 96 99 105 109 113 117 120 118 118 115 115 115 113 110 110 109 105 98 92 87 81
50 53 52 51 51 54 60 63 67 69 72 75 81 85 88 90 91 90 95 97 95 96 98 102 108 112 116 120 122 118 118 114 114 114 113 112 104 97 92 91 88 84 82 79
56 56 54 54 56 63 67 71 73 75 78 83 87 89 90 89 91 98 98 98 100 101 105 110 115 117 122 123 121 120 115 112 109 111 108 103 99 94 89 85 82 80 76 73
59 61 60 62 67 69 72 75 78 81 85 89 90 90 90 94 99 98 100 102 105 107 112 115 120 123 122 120 116 113 113 111 109 108 106 99 93 90 86 82 78 75 73 68
63 65 68 70 72 74 77 78 82 87 89 90 89 91 96 99 99 101 104 108 111 116 118 121 125 122 121 117 113 113 109 105 101 96 92 89 85 82 81 80 75 71 69 66
68 69 71 74 77 79 81 84 88 90 90 90 94 98 100 100 102 107 110 113 117 120 123 125 122 121 116 111 108 105 103 99 94 89 85 85 82 78 74 71 71 68 66 63
71 73 76 78 80 83 86 88 90 91 92 97 100 101 102 104 108 111 116 119 121 124 125 122 118 113 111 111 106 102 97 92 87 85 81 79 77 74 71 67 66 64 62 60
76 78 80 82 85 87 89 90 92 95 99 102 102 102 105 108 113 117 119 123 125 123 122 120 115 111 113 109 104 97 91 88 85 81 77 77 74 70 67 65 62 61 60 59
80 81 84 85 87 89 91 93 97 100 101 100 104 108 110 116 118 120 123 123 121 119 116 112 108 107 106 101 97 92 88 84 80 77 73 71 72 69 63 62 61 60 59 58
83 85 86 88 90 93 96 100 99 99 103 106 109 114 118 119 122 123 120 120 119 116 114 109 106 106 100 95 91 88 84 80 78 74 72 69 66 66 65 62 59 58 57 56
86 87 90 92 96 98 98 99 102 105 108 112 116 117 119 121 121 119 119 116 112 111 110 106 104 98 94 90 86 83 79 76 75 71 68 67 66 65 64 63 60 57 55 53
90 92 95 98 98 99 102 104 107 111 116 115 118 120 119 117 117 118 115 113 111 110 107 101 95 91 88 84 80 77 73 71 69 68 66 64 64 64 62 61 58 56 54 52
95 97 96 98 101 104 107 112 113 114 116 117 118 118 117 118 117 113 109 109 105 102 96 92 90 85 81 78 75 72 69 68 66 64 62 61 61 59 58 57 56 54 52 49
95 98 101 104 108 111 112 111 113 114 114 115 114 113 112 111 108 109 106 105 100 94 90 87 83 81 78 75 72 69 67 66 64 63 60 57 56 55 53 51 49 49 47 45
102 105 108 107 108 109 111 111 112 111 111 113 110 108 106 106 105 104 100 94 91 88 84 81 78 76 74 72 70 68 66 64 62 59 58 56 53 51 50 48 47 46 46 45
103 104 106 107 108 109 110 109 109 110 108 107 105 103 104 103 100 95 91 88 85 83 80 77 74 72 71 69 68 66 63 61 60 59 56 54 52 50 47 45 43 42 41 41

GFSNGP_250_spd_033.txt.gz
Wind_Speed
29 29 28 29 28 30 32 35 30 31 27 26 25 25 30 33 38 40 42 46 45 44 46 49 51 54 57 61 61 64 68 71 76 82 83 88 92 98 95 95 97 102 107 110
29 29 26 29 31 34 35 34 29 27 27 28 25 30 35 37 38 39 43 47 51 53 52 53 59 63 63 62 64 68 74 80 84 87 89 93 97 97 97 99 104 110 114 112
29 30 31 33 33 32 34 29 27 27 25 29 35 35 35 38 41 46 50 53 55 58 59 59 62 66 68 68 71 76 81 84 88 91 94 97 97 98 101 106 111 115 112 108
29 28 29 33 32 30 30 25 25 29 32 35 37 39 41 43 46 50 52 52 55 59 64 68 69 69 73 77 80 84 87 90 92 96 97 96 98 102 107 111 116 114 111 108
27 27 28 29 28 28 27 28 31 34 37 36 41 44 46 48 50 52 53 57 61 64 66 67 70 74 77 81 85 90 92 93 96 99 98 100 104 110 116 119 117 112 110 109
29 29 29 29 32 33 32 31 37 40 41 44 46 49 52 53 53 54 58 61 65 68 71 72 76 79 83 88 91 92 95 98 99 99 101 105 110 114 119 117 113 110 108 111
30 32 34 33 36 35 37 39 42 45 46 49 51 54 57 57 57 58 62 66 66 70 73 77 80 84 88 90 91 95 97 96 97 101 107 112 115 120 117 113 112 111 110 110
31 33 35 36 38 39 40 44 48 49 49 51 54 58 61 60 59 61 64 68 73 76 77 82 85 88 90 91 96 98 98 99 102 107 112 116 120 118 115 112 115 115 113 109
34 35 37 37 40 41 43 49 49 50 52 55 57 58 59 60 62 65 67 71 76 82 86 88 91 91 91 97 101 100 101 103 108 114 117 121 119 115 113 114 115 111 105 100
38 38 37 38 40 41 46 51 51 53 56 57 58 59 61 65 68 71 74 77 81 85 89 92 92 94 98 104 102 102 105 109 114 118 122 122 119 115 114 112 110 106 102 95
43 40 39 40 42 46 50 53 53 55 59 60 59 60 65 70 75 78 79 83 87 90 92 93 94 98 105 102 103 106 111 115 118 122 124 121 115 113 112 110 106 99 94 88
44 44 43 44 47 50 53 55 55 59 60 60 63 67 72 76 79 82 86 89 91 93 95 95 99 105 104 104 107 112 116 119 122 123 119 115 112 111 110 105 100 95 89 84
48 46 45 47 52 55 55 57 59 60 62 66 70 75 78 81 84 87 90 93 95 97 97 101 106 104 105 107 112 117 119 123 122 116 113 113 110 106 101 99 94 91 87 81
52 51 52 55 59 60 61 61 63 65 68 72 77 80 82 85 87 90 94 96 98 99 101 107 106 107 110 114 119 121 123 120 116 113 110 106 105 101 96 91 87 86 84 77
59 59 58 59 61 63 64 66 69 72 76 79 81 83 86 88 91 93 97 98 100 103 106 106 108 112 116 120 122 122 120 118 113 108 104 102 98 94 89 88 85 80 77 75
63 64 64 65 66 67 69 72 75 79 81 83 85 88 90 92 93 96 98 101 104 106 106 109 112 118 120 124 123 120 118 113 107 103 99 94 92 88 83 78 78 75 72 70
66 67 68 69 70 72 75 77 80 82 83 87 90 91 91 94 97 99 102 106 105 107 111 114 119 122 124 123 120 118 113 110 104 99 96 92 88 84 79 74 73 70 65 65
70 70 72 73 75 76 78 80 82 85 88 89 91 93 96 97 101 104 107 105 109 112 116 120 122 124 123 118 117 111 109 103 98 96 92 88 84 79 75 71 70 68 63 62
72 73 74 76 79 81 83 84 85 88 90 92 95 97 99 103 104 108 108 110 114 119 123 123 124 123 120 118 113 109 102 99 96 92 88 84 79 76 72 67 66 66 65 63
73 73 76 78 80 81 83 87 90 92 95 97 99 101 103 106 108 109 112 116 120 122 122 122 119 118 114 110 105 101 96 93 89 86 83 79 76 73 70 67 65 64 62 62
72 75 77 79 82 84 88 91 94 96 98 100 103 106 107 107 110 114 118 121 120 122 121 118 119 113 110 105 100 94 91 88 85 81 78 76 73 70 67 67 65 63 62 60
76 79 81 84 87 90 92 94 96 99 102 104 105 105 109 112 116 120 120 120 120 118 116 115 111 107 102 97 92 89 87 83 80 77 74 70 68 67 65 64 64 63 58 56
79 82 85 87 90 93 96 98 99 100 100 103 108 111 114 118 118 118 118 119 117 116 112 110 107 101 94 90 87 84 81 79 76 73 70 67 65 63 63 61 59 58 55 52
84 87 90 92 94 96 96 97 101 105 107 109 113 114 115 116 117 117 116 112 110 108 105 101 95 92 88 86 84 81 78 76 73 70 68 65 63 62 59 57 54 52 50 47
88 89 90 92 96 99 102 104 107 110 111 112 112 111 111 113 112 110 108 107 106 102 96 92 89 87 85 82 79 77 74 72 70 68 67 64 61 58 56 53 50 48 46 44
91 94 97 100 103 106 108 109 109 108 107 107 109 108 107 106 105 105 102 100 96 92 90 88 85 84 81 77 75 72 70 69 67 66 63 59 57 54 52 49 46 44 42 41
99 102 104 106 107 107 106 106 103 102 104 105 102 102 101 101 99 97 93 92 91 89 86 84 81 78 76 73 70 69 67 66 63 61 59 56 53 50 48 46 43 41 40 39

GFSNGP_250_spd_036.txt.gz
Wind_Speed
25 21 21 25 27 30 29 30 32 29 31 25 25 24 25 29 32 31 32 35 36 37 41 43 47 49 51 54 57 62 65 66 68 71 76 81 85 86 92 95 94 94 95 101
28 26 25 28 31 31 29 29 31 30 29 31 22 25 30 33 31 33 36 38 40 44 46 48 50 51 55 59 62 60 62 68 73 77 81 86 88 91 97 97 96 98 103 105
30 28 26 28 34 28 30 31 31 32 29 28 28 31 31 31 35 38 42 44 48 49 50 53 55 57 61 65 64 66 69 74 79 84 87 89 90 98 99 96 99 106 109 113
31 28 26 32 29 31 31 32 32 31 28 29 30 31 32 36 39 43 46 50 53 56 57 60 61 63 65 67 71 74 77 82 86 90 89 91 98 99 98 100 106 109 114 118
30 29 28 29 29 28 26 27 26 27 30 31 32 35 38 41 44 48 51 55 57 59 61 62 65 67 69 73 77 81 85 88 91 92 93 99 104 99 100 106 111 115 119 120
32 29 27 29 30 26 24 23 29 31 33 35 38 41 43 46 49 52 55 58 60 62 63 64 68 71 75 79 83 87 90 92 95 95 98 104 101 101 106 112 116 120 120 118
33 32 31 32 29 29 27 31 34 37 39 41 43 46 48 51 53 56 59 62 63 65 66 68 71 75 79 83 87 89 91 95 96 97 104 104 103 106 111 115 120 122 117 115
36 36 34 33 31 32 33 37 40 40 42 44 47 50 52 54 57 59 61 64 65 67 71 74 77 80 84 88 91 93 95 97 98 102 104 103 106 112 115 120 123 118 115 114
40 39 37 36 37 38 40 42 43 44 46 47 50 53 55 57 60 62 64 66 68 71 75 79 83 86 89 92 94 97 99 99 102 105 103 106 111 115 119 123 119 114 114 111
41 41 41 42 42 42 43 44 45 46 47 50 53 56 58 60 63 66 67 69 72 77 81 85 88 90 92 94 96 98 99 102 104 104 108 111 115 118 121 119 115 115 112 108
43 44 44 46 47 46 46 47 48 48 50 54 56 58 61 64 68 70 70 73 78 82 86 89 92 93 96 97 98 100 103 104 104 107 112 117 118 121 120 117 115 112 108 103
46 47 47 49 51 52 50 50 50 51 53 55 59 62 67 70 72 72 74 78 83 87 89 93 94 97 98 98 101 103 105 106 109 113 118 118 120 119 120 115 112 108 103 96
52 51 51 52 54 53 53 52 53 54 56 60 65 68 71 73 73 76 80 84 87 90 93 95 97 98 99 102 103 107 107 110 114 118 118 120 119 117 112 112 110 104 100 95
54 56 57 56 56 58 60 61 62 65 66 68 70 72 74 76 79 83 86 88 90 94 97 98 99 101 102 104 107 108 111 115 118 120 122 121 120 116 112 106 98 94 94 90
55 58 59 60 61 62 64 66 68 70 71 73 74 76 79 82 84 86 88 91 95 98 99 100 102 104 106 107 108 111 115 118 119 119 118 117 113 110 104 98 91 86 83 82
55 59 62 63 64 66 68 70 71 73 75 76 78 80 82 85 86 89 92 96 98 99 101 103 105 107 107 108 112 116 119 120 119 118 117 113 110 104 98 92 85 81 78 76
59 59 63 66 68 70 72 73 75 77 79 81 83 84 86 88 90 93 95 98 100 101 103 106 108 108 110 114 117 119 119 119 116 113 111 109 102 97 92 85 80 76 73 72
64 66 66 68 70 73 76 77 77 79 81 84 86 87 88 89 91 95 99 100 101 104 106 107 109 112 114 118 119 118 117 114 112 111 107 102 96 91 85 80 76 72 70 68
71 72 70 72 75 77 79 80 81 82 84 84 86 88 90 92 96 98 100 103 106 106 108 112 114 117 119 119 118 117 113 111 109 104 98 93 88 84 81 76 73 69 66 64
75 72 76 76 75 76 79 80 82 83 85 87 88 91 94 97 99 101 105 106 107 110 113 116 119 119 118 117 115 111 109 106 101 95 90 86 82 79 77 74 70 67 64 63
78 78 76 75 75 77 80 82 84 86 88 90 92 94 98 101 104 106 106 108 113 116 118 118 118 117 115 111 108 106 103 98 93 87 83 81 79 76 71 69 67 66 64 62
83 82 76 76 79 81 82 84 86 88 90 93 96 99 102 104 105 107 112 115 118 119 118 118 116 112 108 105 104 100 96 91 85 81 79 76 73 71 68 65 63 62 61 60
76 76 78 81 82 84 85 87 90 93 95 98 100 102 103 106 111 115 118 117 117 117 115 112 108 106 104 101 98 93 88 84 80 77 75 71 69 68 66 64 61 59 57 55
80 81 83 85 86 88 90 92 93 95 99 101 103 106 110 115 117 116 116 114 115 113 109 105 103 101 99 95 90 86 82 79 76 74 69 67 66 65 63 61 59 55 52 50
83 85 87 90 90 90 92 94 97 100 104 107 109 112 115 116 115 113 113 109 106 103 102 100 97 94 91 87 83 81 78 75 72 68 67 66 65 62 60 58 55 52 49 46
82 84 87 90 93 95 97 101 103 106 110 112 112 111 110 110 110 106 102 100 100 98 96 93 90 86 85 82 79 76 73 70 67 67 65 63 61 59 56 53 50 48 46 43
89 92 94 97 100 103 104 106 107 108 108 107 106 107 105 103 101 98 96 95 93 91 89 87 84 81 79 76 74 71 68 67 65 64 62 60 58 55 52 49 47 45 43 41

GFSNGP_250_spd_039.txt.gz
Wind_Speed
32 27 21 23 24 22 23 24 23 24 21 24 23 24 27 30 33 35 31 27 31 32 35 38 39 39 47 53 56 61 61 64 66 68 69 73 76 81 85 88 90 91 93 99
31 31 26 24 27 26 25 21 21 25 26 26 25 25 31 33 35 34 30 34 35 36 38 40 43 46 50 55 59 62 65 66 69 70 73 76 81 85 88 91 91 94 99 99
33 29 25 24 33 26 22 23 25 25 29 28 28 28 33 34 33 33 35 36 37 39 42 45 49 52 55 57 61 64 66 68 70 73 78 82 86 89 92 94 95 98 99 101
36 29 22 32 31 27 28 27 27 30 32 32 29 31 32 33 34 35 36 38 41 44 48 51 53 55 59 62 65 67 68 71 74 79 83 87 90 92 93 96 99 102 101 105
33 31 26 31 32 31 28 27 28 30 31 30 28 27 30 33 35 37 39 43 46 49 53 55 56 60 64 65 68 71 74 78 82 85 88 92 90 94 96 96 101 101 103 107
32 31 29 36 31 33 29 27 31 32 30 29 28 28 31 35 39 41 45 48 51 54 56 58 61 63 66 69 72 76 79 83 87 90 93 95 98 98 98 102 103 103 107 111
32 32 33 38 32 32 32 36 33 33 33 31 31 34 38 40 42 46 49 52 54 57 59 60 64 67 70 73 77 79 84 88 91 94 96 98 99 100 102 105 104 107 111 115
37 33 33 38 34 35 40 39 38 36 35 35 37 39 41 44 47 50 53 55 57 59 62 64 68 72 74 77 80 84 88 92 95 96 99 100 101 103 106 106 107 113 115 116
39 33 35 41 41 39 41 42 43 42 40 41 42 44 46 49 52 55 56 58 60 63 65 69 73 75 78 81 84 88 92 95 97 100 100 102 103 106 107 108 112 115 115 116
37 37 39 43 44 43 43 44 46 47 47 45 46 49 50 53 55 57 60 62 64 67 71 74 77 80 82 85 89 92 95 96 100 100 102 104 106 107 108 113 116 115 116 117
37 40 41 43 45 46 47 48 49 51 52 52 53 53 55 57 59 61 63 66 69 73 76 80 82 85 87 90 92 94 97 100 101 103 105 108 108 109 113 117 117 116 117 116
40 39 41 45 47 49 50 51 53 54 56 58 58 60 61 62 64 66 69 73 75 79 82 84 86 89 91 93 96 99 101 102 104 106 109 107 110 112 118 119 118 120 118 115
43 42 41 44 48 51 52 53 55 56 58 60 62 63 64 67 71 74 76 79 82 84 86 87 90 91 94 96 99 100 103 106 108 110 109 113 116 117 116 116 121 121 119 114
42 41 44 46 46 49 54 56 59 62 63 65 67 69 72 74 76 78 80 82 84 86 88 90 92 94 97 99 100 103 105 108 110 110 115 117 120 120 119 117 112 110 113 108
50 46 45 47 49 52 53 56 60 63 65 67 70 72 74 76 78 80 82 83 86 89 91 93 95 97 99 101 103 106 109 111 111 115 118 119 119 118 116 113 111 106 100 97
57 61 62 60 59 57 56 58 60 63 65 68 71 74 77 80 82 84 86 88 90 92 95 96 98 100 101 104 107 111 111 113 116 119 121 121 119 115 114 111 107 101 95 91
63 64 66 68 70 68 67 67 67 68 69 71 73 76 80 83 86 87 89 91 93 95 97 99 101 102 104 108 112 111 114 118 121 121 119 117 114 112 109 105 99 95 90 86
70 71 72 73 71 71 74 76 77 76 77 79 78 82 85 86 87 88 91 93 94 97 99 101 102 105 108 111 111 115 119 120 119 118 116 112 110 107 103 97 92 89 83 78
74 77 79 82 81 80 81 81 82 83 83 84 84 86 87 87 87 89 91 93 95 97 99 102 106 108 110 112 116 119 120 118 117 113 110 108 105 100 96 91 86 82 77 72
85 84 86 87 85 85 84 83 85 86 87 90 90 93 89 87 90 92 93 95 97 101 104 106 108 111 114 116 120 119 117 114 111 109 106 102 97 93 90 85 80 76 72 70
88 91 93 92 91 88 87 90 91 94 95 96 92 88 89 92 93 95 97 100 103 104 106 109 113 115 117 119 118 115 111 109 108 104 98 95 91 87 83 78 76 73 70 67
83 86 90 93 94 93 94 97 98 98 97 94 91 93 94 96 98 99 100 102 104 108 112 114 115 117 116 114 111 108 107 105 101 96 92 88 83 80 76 74 72 70 67 63
82 86 91 94 96 98 100 98 96 94 92 92 93 94 96 98 100 102 105 109 111 113 115 115 114 113 111 109 107 104 102 98 93 89 85 80 77 74 72 71 67 65 63 62
82 85 86 87 88 90 91 90 89 91 92 93 94 96 100 103 106 109 111 111 112 113 113 111 109 108 106 104 102 98 94 90 87 83 78 75 72 70 68 66 64 61 59 57
75 78 80 83 84 86 88 89 91 92 94 97 101 104 107 110 111 111 111 112 112 111 108 106 104 102 101 100 95 90 88 85 80 77 74 72 69 66 64 62 60 57 55 53
77 79 81 83 85 87 89 91 94 98 101 104 106 109 109 109 109 111 111 109 107 105 102 100 99 97 95 92 88 86 83 79 75 73 71 67 65 63 61 58 55 52 51 49
81 83 85 87 90 93 96 99 101 102 104 105 105 105 108 109 108 107 105 103 100 99 97 95 93 90 88 86 83 79 76 74 72 69 66 63 62 60 57 54 51 49 47 46

GFSNGP_250_spd_042.txt.gz
Wind_Speed
51 49 46 34 24 21 24 24 23 30 26 25 23 26 27 29 34 35 35 34 30 29 32 32 32 34 37 40 45 48 51 56 61 64 68 70 71 73 76 78 81 85 90 94
49 47 45 34 26 24 25 28 28 29 32 32 29 30 30 33 38 39 38 35 33 34 35 35 37 39 43 47 49 53 58 63 66 68 71 74 76 77 79 82 86 89 92 97
47 45 43 33 31 25 24 25 26 27 31 31 30 30 29 32 36 40 40 39 37 36 36 38 41 44 47 50 54 58 63 65 68 71 74 76 79 81 83 87 92 95 99 100
50 47 39 40 31 28 25 24 24 25 31 33 32 32 32 35 38 40 41 41 40 40 41 44 46 48 51 56 61 64 65 67 70 74 76 79 81 84 87 92 97 97 100 103
47 46 39 36 37 30 28 25 27 29 31 32 32 30 31 34 38 39 38 38 39 42 45 47 49 53 58 62 64 66 68 71 74 76 79 81 84 87 91 95 98 102 105 108
42 42 41 39 38 32 28 27 35 31 29 29 31 32 30 29 32 35 36 38 41 45 48 51 55 59 62 64 66 69 72 74 76 78 82 85 88 91 95 97 101 104 106 108
47 46 42 41 40 35 31 39 33 33 32 33 32 33 35 36 36 37 40 43 46 49 52 55 59 62 64 67 69 72 74 78 80 83 87 90 93 96 99 102 104 105 107 111
50 45 41 43 38 38 37 37 36 33 36 37 38 39 38 38 40 42 44 46 49 53 56 59 61 64 67 70 73 75 79 81 85 89 92 94 97 100 102 104 105 108 110 113
49 45 44 43 41 38 40 39 38 37 37 39 42 44 44 45 46 48 50 52 55 58 60 63 65 68 71 74 77 80 82 86 91 93 95 98 100 102 104 105 107 110 114 114
46 44 46 44 42 39 39 39 38 40 40 41 43 45 47 50 52 54 56 58 60 63 65 67 70 73 76 78 81 84 88 92 94 95 98 100 101 103 105 108 111 115 115 117
42 42 49 44 41 40 40 41 40 41 43 45 47 48 49 51 54 58 59 61 64 66 68 72 75 78 81 83 86 89 92 93 94 98 100 102 103 106 107 112 116 116 118 121
42 49 45 43 40 42 42 41 41 43 46 48 51 53 54 56 58 61 63 66 69 71 73 76 80 83 86 88 90 92 94 96 99 100 102 103 104 107 112 115 116 120 123 122
45 49 47 43 42 46 43 42 43 43 44 47 50 53 57 60 63 66 68 70 73 76 78 81 84 86 88 90 92 93 95 98 100 101 103 105 107 110 111 113 120 125 127 124
48 48 48 49 50 50 48 47 45 46 48 49 52 55 58 60 63 66 68 71 74 76 77 79 83 88 91 92 92 94 97 98 100 102 105 108 112 113 114 115 116 117 119 119
52 48 49 52 54 57 57 56 57 60 60 61 62 64 66 67 69 70 72 75 77 80 82 85 88 91 93 93 94 96 99 101 103 106 109 111 111 115 118 118 115 110 109 111
54 57 57 55 56 58 60 60 65 67 68 68 72 73 74 75 75 77 80 82 86 90 89 93 93 97 95 94 97 100 101 103 106 108 110 113 117 118 116 113 111 110 108 103
61 66 66 65 61 58 64 67 69 77 82 77 77 79 82 83 84 87 87 88 90 92 94 98 101 99 95 98 100 101 105 107 108 111 114 117 117 114 112 111 109 107 104 96
59 61 66 71 70 70 68 71 74 77 82 87 88 90 91 91 94 94 95 96 96 98 102 104 101 97 99 100 102 104 106 110 112 115 116 116 114 112 111 108 104 99 93 90
63 65 66 68 73 77 77 77 80 85 86 91 93 96 99 99 101 103 102 102 102 105 107 104 100 100 100 102 105 109 111 114 115 115 115 113 111 109 105 103 95 90 87 83
73 76 77 78 79 81 84 86 91 95 99 99 98 96 95 97 98 100 101 104 106 107 104 101 101 101 104 108 111 113 116 114 115 115 113 111 108 106 100 93 89 85 81 78
79 78 79 81 84 84 87 93 98 101 101 99 96 95 95 96 98 101 102 104 104 103 102 103 104 108 111 113 115 115 114 114 114 112 110 107 104 98 92 88 84 80 77 76
78 80 84 86 91 95 96 93 94 93 90 91 93 94 96 98 99 101 102 102 101 102 104 107 110 112 115 116 115 114 114 112 111 108 105 100 94 90 87 83 80 77 74 71
86 84 85 89 90 91 94 91 86 86 86 89 91 93 94 96 97 97 98 100 102 106 109 111 113 115 114 114 114 112 110 109 106 103 98 92 89 85 82 79 77 74 71 68
92 91 87 83 86 93 90 87 86 86 88 90 92 94 95 96 97 99 102 104 108 111 112 114 112 112 112 111 110 109 106 104 101 96 91 88 83 81 78 76 73 69 66 63
87 84 85 92 91 91 92 91 89 90 92 94 95 96 98 99 101 104 107 109 109 110 109 110 111 110 109 109 107 104 102 98 94 91 86 82 80 78 74 71 68 65 62 58
91 92 93 93 93 92 92 92 92 93 94 95 97 99 101 103 105 105 106 107 107 108 109 109 108 109 107 105 102 98 94 91 88 83 80 78 76 72 69 66 63 60 57 54
86 88 90 91 92 92 92 92 93 95 97 98 100 100 100 102 104 104 104 105 107 108 108 107 104 103 99 96 93 90 87 84 82 79 77 73 70 68 64 61 59 56 54 50

GFSNGP_250_spd_045.txt.gz
Wind_Speed
36 39 38 38 38 38 31 30 25 29 25 31 31 30 30 32 34 35 37 36 31 32 34 33 34 37 39 40 42 43 44 48 52 56 59 62 65 69 73 76 79 82 85 86
37 40 39 38 39 33 28 27 31 28 27 32 30 31 32 34 36 37 38 38 37 35 35 35 38 40 43 45 46 48 50 53 56 59 62 65 69 74 77 79 82 85 86 89
38 40 37 40 40 35 29 27 27 27 33 34 34 33 34 33 33 39 41 40 40 41 39 39 41 43 46 48 50 51 53 55 59 63 67 70 74 77 79 82 86 86 88 91
41 40 35 42 42 37 29 26 28 31 32 33 33 33 31 30 32 35 38 41 42 44 45 45 46 46 47 49 50 52 56 61 65 69 71 74 77 80 83 85 86 89 91 95
41 39 37 40 44 38 32 31 30 32 31 30 29 28 28 27 29 32 36 40 44 46 46 47 46 46 48 50 54 58 62 66 70 72 75 77 80 83 85 87 89 92 96 98
39 37 35 42 42 42 35 35 36 29 33 31 31 30 31 30 31 32 35 37 38 40 41 42 45 47 51 55 59 64 68 70 72 74 77 81 83 85 88 90 93 97 100 102
37 35 37 41 47 43 40 36 36 33 34 36 35 34 36 37 36 35 35 38 40 42 44 47 49 52 56 60 64 67 69 71 74 78 81 83 86 89 90 94 97 99 102 106
40 40 38 47 44 46 42 43 37 35 36 39 40 39 39 40 41 42 42 43 44 45 47 49 52 55 58 62 65 68 71 75 78 80 82 85 88 92 95 97 99 101 102 104
47 43 43 45 48 46 46 43 39 38 37 39 42 43 42 42 42 42 44 47 49 51 52 53 56 59 62 65 68 71 73 76 79 81 84 86 90 94 97 99 99 100 102 104
48 47 47 46 46 50 44 41 41 38 38 39 42 44 44 44 45 45 46 48 50 52 54 56 59 62 64 68 71 73 76 77 77 79 84 89 92 96 97 99 101 104 105 106
51 47 48 49 51 46 42 42 42 42 40 39 40 42 44 44 45 47 50 52 54 56 58 60 63 66 69 71 72 74 75 77 81 85 91 95 99 101 100 100 103 104 106 107
51 54 48 50 52 48 42 46 47 45 43 41 42 42 44 46 48 50 52 54 57 59 62 65 66 67 68 72 75 79 82 86 86 89 95 97 100 99 99 102 105 107 108 111
51 52 53 50 47 43 46 48 52 52 47 45 45 47 49 53 56 57 61 63 63 65 70 71 72 75 78 79 83 85 89 91 93 95 100 102 100 98 101 104 107 111 114 115
51 53 55 56 53 50 47 49 54 53 53 52 53 54 56 58 61 63 66 67 70 74 76 78 81 84 87 90 92 93 96 100 102 100 104 101 99 99 99 102 107 111 115 116
53 54 56 55 54 51 52 52 56 52 50 53 55 58 63 66 68 69 72 76 79 82 84 87 90 92 95 97 99 100 102 100 99 102 102 100 100 101 104 107 109 110 110 109
59 59 58 55 55 57 59 54 55 55 58 62 65 68 70 74 78 77 79 80 81 86 88 93 92 93 95 94 95 96 97 99 99 101 101 101 104 107 110 110 109 108 105 101
60 59 58 56 59 62 64 62 61 63 64 66 69 73 73 76 80 84 84 88 91 96 99 97 98 95 93 93 95 97 99 100 101 100 103 107 110 112 111 110 108 105 101 98
60 57 55 59 60 60 62 65 66 67 68 70 71 74 78 83 83 88 93 96 101 102 102 101 98 96 95 96 98 100 101 101 102 106 109 112 113 112 111 110 106 101 98 96
63 56 60 60 60 61 65 67 68 73 72 74 79 83 84 86 92 97 100 106 105 107 105 100 98 97 97 99 101 102 103 105 107 110 113 114 113 112 111 106 101 98 93 89
67 63 63 67 69 71 73 74 77 79 79 82 83 86 89 92 94 95 102 98 104 103 101 98 98 100 102 104 105 105 107 110 112 115 115 114 112 110 106 102 98 93 87 84
65 59 65 64 64 71 73 77 82 84 89 90 92 93 93 96 99 100 102 106 105 106 106 105 105 106 106 106 107 109 111 114 115 114 113 111 110 105 101 97 92 87 83 80
64 67 71 73 77 81 85 87 88 92 97 99 101 102 104 105 109 104 106 109 109 108 107 107 108 109 109 109 111 114 114 113 113 111 109 107 104 101 97 91 87 84 80 77
69 72 75 82 87 91 93 96 99 101 103 105 107 111 114 116 111 109 111 112 111 109 109 109 108 109 110 111 112 112 112 111 109 108 105 102 99 95 91 88 84 81 78 75
76 79 83 89 92 95 98 102 104 105 104 109 111 114 113 113 112 114 114 112 110 109 108 108 109 111 111 112 111 109 108 107 106 104 100 97 93 91 87 84 81 78 74 71
85 88 88 93 96 89 94 99 99 99 98 101 105 111 112 112 113 112 110 109 108 108 109 110 110 110 108 107 106 106 104 102 99 96 94 93 89 86 83 79 77 74 70 66
82 84 89 89 91 93 98 101 100 100 101 101 101 103 104 106 107 107 106 107 108 108 108 107 106 106 105 103 102 99 97 95 93 92 90 87 84 81 79 76 72 68 64 61
84 87 93 97 97 96 96 95 96 97 98 100 101 101 102 104 105 106 105 104 103 102 103 103 101 99 97 95 94 93 91 90 88 86 83 81 79 76 73 69 65 62 60 57

GFSNGP_250_spd_048.txt.gz
Wind_Speed
42 36 31 29 32 31 30 27 27 35 31 35 29 29 32 38 42 42 40 34 35 35 38 38 38 41 41 41 44 46 44 48 48 50 53 56 59 63 68 71 74 76 79 82
39 38 35 31 35 32 32 27 26 30 35 34 28 29 29 31 33 35 36 37 36 37 36 39 42 44 39 42 43 46 50 53 55 56 58 61 64 68 71 74 76 79 83 87
43 42 33 35 36 35 32 29 30 29 32 33 33 32 32 33 35 37 38 39 41 40 41 42 43 44 43 43 45 48 50 53 57 60 62 64 67 70 72 76 80 83 87 90
43 41 32 41 35 38 31 31 31 29 30 29 33 33 33 33 33 33 35 36 38 39 41 44 45 46 48 48 49 50 51 52 55 58 61 64 68 72 76 80 83 86 87 91
44 40 37 40 41 37 33 33 30 30 30 29 31 35 35 35 36 36 35 36 36 36 37 39 41 43 44 45 46 48 50 52 55 59 64 68 72 76 79 82 84 85 88 89
43 38 36 48 41 38 35 38 30 33 32 31 30 33 37 36 37 37 38 37 34 34 36 39 41 42 44 46 49 51 54 57 61 64 68 72 75 77 79 81 84 86 86 89
44 40 38 45 39 43 35 38 36 36 37 37 34 31 35 39 40 39 40 41 41 41 42 42 43 44 47 50 53 55 58 61 64 67 70 73 75 79 82 83 82 86 89 92
47 41 37 47 44 40 40 38 38 40 41 40 37 36 36 39 41 42 43 43 43 44 45 46 47 48 50 53 56 58 61 63 66 69 73 76 78 78 80 82 85 89 93 98
46 43 46 44 44 42 41 39 41 44 44 43 39 39 38 39 41 44 46 48 48 47 48 48 48 50 52 55 58 61 63 67 69 71 72 76 79 81 84 87 92 96 99 106
49 44 47 47 45 44 42 40 43 47 47 46 44 44 44 42 43 43 45 48 50 51 51 52 54 56 56 57 57 59 66 69 72 76 81 85 87 90 94 97 101 102 103 102
48 47 50 50 47 45 42 41 48 48 50 51 48 46 47 48 46 44 43 42 43 45 46 48 51 54 60 60 63 67 72 75 79 84 89 91 92 96 98 99 99 99 100 103
47 53 54 51 49 48 45 47 47 49 51 53 51 49 50 51 53 50 48 48 48 50 53 55 57 61 65 69 71 75 77 81 87 91 91 92 95 95 96 96 97 100 101 101
52 55 55 53 54 52 50 50 49 49 53 56 53 53 51 49 51 50 47 49 54 58 60 63 65 69 73 76 76 77 81 89 92 94 92 91 93 95 95 96 99 102 103 102
55 58 59 59 58 57 53 53 53 54 55 58 57 57 58 58 56 57 56 58 62 64 64 66 69 72 73 73 79 82 90 91 93 92 92 93 93 95 97 99 100 101 102 106
61 63 64 60 59 58 60 62 59 57 56 57 61 62 62 63 63 63 66 66 66 71 72 73 71 72 76 80 84 92 91 93 95 97 99 99 99 100 102 103 102 104 107 110
65 64 64 61 62 61 65 64 65 62 61 63 66 67 66 68 69 68 69 69 71 74 80 84 77 81 85 91 95 99 101 101 104 107 106 104 104 104 105 106 107 109 111 113
66 64 64 65 65 64 67 65 63 63 65 68 68 70 74 71 71 68 68 73 77 82 84 85 90 96 99 102 106 108 113 113 113 113 113 111 109 109 109 110 112 113 113 112
69 69 69 68 66 67 64 62 66 67 69 72 74 74 72 71 76 73 77 83 82 83 87 95 99 103 107 111 114 118 119 116 117 118 119 115 112 112 113 113 114 113 111 109
73 72 69 67 67 66 68 70 70 75 77 72 73 77 78 79 77 78 78 83 86 90 94 100 107 111 115 118 119 118 121 122 121 123 120 116 114 114 115 115 113 111 108 104
71 71 69 69 69 67 69 73 77 78 79 78 78 79 75 72 74 79 88 94 97 101 106 110 115 115 117 121 124 126 123 122 121 118 116 115 115 114 114 112 110 105 99 94
73 73 72 72 73 74 77 79 82 80 79 78 73 71 77 83 89 95 99 102 106 111 114 118 121 124 125 123 121 122 120 118 117 117 116 115 114 114 111 107 101 97 93 88
76 78 77 77 81 81 81 81 81 82 78 78 80 84 87 91 96 101 106 110 111 114 116 117 121 121 119 119 118 117 118 117 114 115 114 114 113 109 103 100 96 92 87 83
81 80 80 84 85 85 85 84 83 82 82 84 89 91 94 101 106 108 105 111 117 116 118 120 119 117 116 117 116 114 114 115 114 113 112 108 103 100 98 95 91 88 84 80
84 87 89 89 88 88 85 87 86 83 84 88 93 97 100 104 107 110 109 112 115 114 118 117 115 114 113 113 113 114 115 113 111 108 104 100 97 95 91 89 86 83 80 77
84 85 88 90 92 92 89 89 91 92 92 95 97 99 104 108 107 107 110 116 122 119 115 113 112 112 112 113 113 112 110 106 102 99 96 94 91 89 87 84 82 79 75 71
88 91 90 92 92 92 94 94 95 93 97 98 102 107 109 113 116 118 119 118 115 112 110 111 111 111 110 109 107 103 100 97 95 93 90 88 86 84 81 78 75 72 69 67
87 86 88 91 92 91 91 94 97 102 105 106 105 108 111 111 111 112 111 110 110 109 108 107 106 103 100 98 96 94 92 90 89 88 86 83 80 77 75 72 70 68 66 63

GFSNGP_250_spd_051.txt.gz
Wind_Speed
52 48 42 42 42 42 39 33 31 33 32 31 29 29 26 24 28 34 41 43 41 39 39 40 39 39 40 41 41 42 44 43 42 45 45 50 54 57 60 64 66 70 73 76
52 50 43 41 43 44 40 35 32 35 34 30 27 29 27 27 28 34 36 35 35 36 38 37 37 40 41 41 44 45 46 46 49 51 53 55 56 59 62 67 70 74 76 78
54 52 45 37 47 45 41 40 33 37 35 28 30 30 28 29 30 33 37 38 38 39 40 40 40 40 40 41 44 47 47 48 49 51 52 53 53 56 58 62 66 69 73 77
58 55 41 46 46 46 44 41 37 38 32 30 29 30 30 30 29 32 36 38 39 41 44 43 41 41 40 40 41 42 43 43 43 44 46 49 52 55 59 62 67 71 76 80
55 53 49 47 48 49 46 41 41 38 31 33 33 31 35 32 32 33 37 39 39 40 43 42 38 37 37 38 40 43 44 45 47 49 52 54 57 60 64 68 72 76 79 82
58 54 47 51 54 50 49 41 46 34 35 35 33 34 36 37 34 34 36 40 41 42 43 43 42 42 42 43 45 46 48 49 52 54 57 59 61 64 67 69 71 73 76 83
55 52 48 53 56 52 46 53 42 35 36 38 34 35 36 38 37 35 36 38 41 44 46 46 46 46 47 48 49 50 52 53 55 56 58 61 60 60 65 70 76 78 84 90
58 56 47 55 58 51 51 48 45 43 38 41 37 39 38 40 42 40 40 39 40 43 44 47 49 51 53 53 53 54 55 56 55 53 55 59 64 68 73 79 78 87 89 94
57 55 55 58 55 54 52 49 45 43 40 42 40 43 45 45 45 45 45 44 43 43 46 47 48 49 50 51 52 51 50 51 54 60 62 66 71 75 76 80 85 86 88 88
55 53 55 54 55 56 54 50 48 42 42 46 43 46 50 53 53 51 52 50 49 47 47 48 49 48 49 50 50 53 57 61 62 66 70 73 74 75 78 84 86 90 94 94
55 56 56 55 59 61 55 52 48 47 46 47 46 48 51 54 56 58 61 59 55 54 51 52 52 55 57 59 61 62 64 66 68 72 74 74 75 78 84 91 95 98 96 96
54 59 61 58 63 61 60 56 52 52 50 49 49 51 52 52 57 61 63 64 64 62 61 60 56 58 61 62 60 61 65 66 69 73 74 77 81 87 95 98 99 99 104 107
61 63 59 59 62 62 60 56 54 54 54 53 53 54 54 56 60 64 65 65 67 68 68 69 68 69 70 69 71 71 72 72 77 77 79 88 92 97 100 106 110 112 111 110
63 62 62 59 60 65 63 61 58 58 58 56 59 59 59 60 64 66 66 68 68 68 69 72 72 70 71 73 71 74 79 81 82 84 87 94 102 107 109 112 111 110 110 112
65 66 64 64 63 63 65 65 64 63 64 62 64 63 63 63 65 69 71 72 72 74 75 74 75 75 76 77 79 85 86 84 90 93 101 106 111 115 112 114 118 117 115 112
66 66 66 65 67 67 68 69 69 67 67 64 69 70 70 70 69 70 73 74 77 78 82 81 79 79 80 81 80 82 89 96 100 105 110 113 117 114 118 123 119 115 113 115
70 70 68 67 66 69 72 71 69 69 71 76 77 78 77 75 76 75 77 79 82 85 86 86 85 87 77 79 83 91 96 104 109 114 119 119 120 121 122 120 119 118 117 116
71 70 71 73 72 72 73 72 72 73 77 78 78 78 80 79 79 81 83 86 87 92 91 87 90 85 86 89 92 98 105 110 114 118 116 117 121 124 129 124 121 120 119 118
72 74 76 75 75 76 76 76 75 78 81 80 80 81 83 81 82 85 86 88 92 93 90 96 91 89 91 93 102 110 112 117 119 117 122 125 126 126 124 123 121 119 119 119
75 77 77 78 79 79 80 78 79 80 82 83 84 86 87 85 86 89 91 93 95 97 99 97 91 93 99 105 112 115 117 115 116 122 126 124 128 133 125 122 121 119 119 115
78 79 79 81 82 81 82 83 84 85 85 86 88 89 89 88 91 93 96 99 98 96 99 101 101 103 107 112 115 114 117 122 128 127 131 132 132 125 123 121 119 117 113 107
79 81 82 83 84 85 86 86 87 87 87 88 89 92 95 95 98 98 98 99 99 101 101 102 104 108 111 113 116 121 126 126 128 130 130 128 125 124 122 119 115 110 104 100
80 81 83 83 83 83 85 87 89 92 94 96 97 99 101 98 99 102 104 105 105 104 105 106 106 110 115 119 123 124 125 126 126 126 124 122 122 120 117 111 106 101 98 95
81 84 83 85 86 87 90 91 94 96 99 99 100 101 103 107 107 104 105 107 108 110 109 111 113 115 120 124 122 124 124 124 123 122 122 118 115 111 106 101 98 95 91 87
88 88 89 89 91 93 91 92 94 95 98 101 103 105 106 106 105 105 108 109 107 107 108 112 116 119 120 121 123 121 119 119 117 115 114 111 105 101 98 95 91 87 84 81
91 92 94 94 95 96 96 97 98 99 99 100 100 101 102 102 101 102 104 105 109 110 111 113 116 117 117 116 116 117 115 114 111 106 102 99 96 93 90 86 83 80 78 74
90 91 92 92 93 94 96 97 98 99 97 98 97 98 102 105 107 105 106 110 112 114 113 112 111 112 114 111 108 107 104 101 98 95 94 91 87 84 82 80 77 74 70 68

GFSNGP_250_spd_054.txt.gz
Wind_Speed
58 57 54 46 50 46 43 44 44 42 37 37 37 33 34 32 31 29 37 38 37 32 30 30 33 35 37 36 36 37 36 39 42 45 46 49 52 54 55 58 60 63 63 64
62 63 57 47 43 47 44 46 43 45 39 39 36 36 34 34 29 32 32 35 39 38 31 35 33 33 34 34 35 36 38 43 45 47 49 51 54 57 58 59 58 57 56 57
65 65 68 51 46 45 45 45 45 42 40 41 37 37 35 32 29 29 32 31 34 38 33 34 37 34 38 36 41 43 44 44 47 47 48 47 46 47 48 50 52 55 58 61
69 72 66 53 55 51 49 48 48 44 44 43 37 38 39 36 34 31 30 30 31 31 33 30 36 39 43 43 42 43 44 45 45 45 46 47 49 51 54 56 58 60 62 64
76 75 63 61 63 58 53 53 49 47 47 46 39 43 39 36 36 30 31 29 28 30 33 36 39 41 43 46 47 47 47 47 48 49 51 53 56 57 59 60 60 60 62 64
79 74 61 57 63 63 56 51 53 51 49 46 43 44 40 38 38 36 35 33 33 32 32 34 34 37 42 45 48 49 49 50 51 53 54 56 58 59 60 57 58 61 65 68
81 70 60 55 58 62 54 54 59 52 49 48 49 44 44 38 40 40 39 38 37 37 37 38 39 40 39 40 42 47 49 51 53 54 56 57 56 56 57 59 65 70 73 75
73 71 62 62 65 63 57 61 56 54 51 50 46 45 45 40 41 43 44 46 49 47 44 44 47 47 47 49 46 45 47 51 52 52 54 53 57 61 64 70 71 73 76 74
72 69 65 65 68 66 65 60 58 57 55 53 48 48 48 44 46 43 45 47 51 53 53 55 57 55 55 55 57 54 53 56 59 62 63 64 67 70 70 71 71 73 76 80
70 67 63 64 64 67 67 61 61 60 56 55 50 50 51 50 46 46 47 48 51 54 53 58 60 59 61 60 61 63 66 64 63 64 65 65 69 70 74 71 74 81 82 82
66 68 67 64 60 73 68 63 61 60 57 55 53 55 55 54 52 50 50 51 54 57 59 61 62 64 64 65 66 66 67 68 70 70 70 71 74 74 73 78 83 84 83 88
56 65 71 68 67 67 64 62 64 63 58 56 57 57 59 59 54 54 54 54 55 60 64 67 68 69 69 70 71 71 72 74 74 74 74 75 78 81 81 82 83 84 89 95
58 65 66 60 66 67 64 65 67 63 63 62 59 62 64 61 60 59 58 58 56 62 67 68 70 72 74 73 73 76 78 77 81 80 78 85 85 80 81 85 86 91 100 102
60 62 62 65 66 67 67 67 66 68 68 67 63 66 67 66 64 65 64 61 63 67 69 72 75 77 77 77 78 82 83 85 84 86 89 88 87 88 86 88 92 102 110 111
56 56 61 65 67 69 68 66 67 68 68 68 64 65 68 69 70 69 67 68 69 73 77 77 79 81 81 81 85 87 88 89 92 94 94 95 100 94 92 96 101 110 114 117
59 60 63 64 65 68 70 69 69 69 72 73 70 70 71 71 72 74 74 75 76 79 83 83 84 84 84 88 90 92 97 95 97 100 102 104 103 101 101 104 111 118 121 123
61 64 66 67 69 71 72 70 70 72 74 74 74 74 76 76 78 79 80 80 85 87 86 88 90 90 92 93 94 100 99 102 104 107 108 104 104 107 109 114 119 124 126 128
67 67 69 68 69 69 70 71 72 73 75 75 76 79 79 80 83 84 85 85 90 93 93 92 93 95 97 99 100 103 104 107 109 108 106 105 107 116 119 119 123 126 128 131
69 71 70 69 70 71 72 73 74 76 77 79 79 79 82 84 86 87 88 90 93 94 94 94 98 100 103 102 103 108 111 110 113 110 107 114 119 119 122 124 124 127 132 132
72 74 75 75 76 76 78 80 80 82 82 82 82 84 89 89 91 93 93 95 97 97 100 100 102 105 105 108 110 114 113 113 112 114 118 119 119 122 124 124 127 130 132 129
73 77 79 80 80 81 81 83 84 85 86 87 89 92 92 93 94 96 97 99 101 103 104 105 106 109 111 112 113 112 114 117 118 116 117 121 120 122 125 127 128 128 128 126
71 72 75 78 80 82 85 86 87 87 90 93 94 95 96 97 100 101 102 102 103 104 106 109 111 111 113 112 114 115 117 119 118 118 120 120 121 124 126 127 126 126 124 118
74 77 79 81 83 84 85 87 89 91 93 95 97 100 101 101 104 106 105 105 106 107 110 111 110 112 114 113 113 113 113 116 120 123 122 122 124 125 125 125 122 117 112 108
78 79 81 83 85 88 89 91 93 94 96 97 100 102 103 103 103 105 105 107 110 110 112 114 113 113 113 113 115 114 117 119 117 118 119 121 122 121 118 114 110 107 104 102
81 83 83 84 85 87 89 90 91 93 95 96 97 100 102 104 106 108 111 111 112 112 114 114 115 115 113 113 113 115 115 115 116 118 118 116 112 108 106 103 101 98 96 93
86 87 88 90 92 93 94 96 97 98 99 100 101 102 105 108 108 108 108 108 110 109 109 109 110 112 112 113 114 114 115 115 113 111 109 105 102 100 97 96 93 91 87 84
89 90 92 93 94 96 96 96 97 100 103 104 105 103 103 104 105 105 105 107 108 109 110 110 110 111 112 112 111 110 107 104 100 98 97 95 94 93 90 87 84 81 78 76

GFSNGP_250_spd_057.txt.gz
Wind_Speed
67 64 62 57 51 46 48 48 43 40 40 40 40 38 39 33 32 32 31 33 31 32 34 29 24 19 23 30 37 40 41 44 47 50 51 58 62 65 70 73 72 68 70 70
74 67 64 63 53 49 53 48 42 40 36 42 41 39 39 35 35 35 35 31 29 28 28 34 31 25 24 26 29 35 42 46 48 51 54 55 60 64 65 67 70 68 65 63
74 74 73 61 53 52 51 44 44 39 42 44 40 41 38 38 36 37 39 32 30 26 25 25 28 25 28 26 25 32 36 41 43 48 50 51 53 57 59 59 59 59 60 61
76 77 81 64 61 57 53 46 48 49 46 46 42 44 41 40 40 40 40 36 34 31 22 21 25 29 29 30 34 39 42 45 44 44 44 48 49 51 54 56 57 59 61 63
81 81 72 67 63 64 59 49 49 56 52 48 46 49 47 46 43 43 42 40 37 34 29 24 19 22 25 27 29 30 30 35 39 44 47 49 51 54 56 58 60 62 63 65
85 84 75 69 64 63 63 53 53 57 63 57 54 51 49 49 45 45 45 45 43 40 36 32 28 27 28 30 34 36 38 35 32 34 36 38 42 47 51 55 59 61 64 64
92 87 81 75 74 69 66 51 58 62 65 59 57 57 53 53 47 48 48 45 46 44 43 41 38 40 39 38 39 39 37 39 41 43 44 47 49 46 47 51 54 58 61 66
92 92 82 82 81 80 64 62 64 62 63 52 51 57 57 56 52 52 50 50 47 47 48 45 43 43 44 45 48 48 48 51 49 50 52 52 55 56 57 59 61 62 62 66
83 82 88 86 82 81 73 68 69 67 64 64 63 63 61 58 58 57 52 51 51 51 52 50 48 48 49 50 53 56 58 59 59 60 58 59 61 63 63 65 68 69 71 74
72 80 83 87 86 83 78 75 73 70 63 60 61 63 63 62 63 59 53 54 53 53 54 54 53 52 53 55 56 60 62 64 66 66 66 66 68 69 69 71 73 77 81 83
71 73 74 74 78 77 75 71 71 70 69 64 63 67 62 61 61 60 58 54 57 59 60 59 58 58 58 58 61 64 66 70 72 72 74 74 73 75 76 76 79 82 85 89
68 72 71 69 64 67 66 66 71 72 72 70 64 61 62 63 63 63 61 59 61 64 65 65 63 64 62 62 63 66 71 76 76 78 78 79 79 82 83 85 86 88 93 94
66 68 63 61 59 61 62 65 70 73 70 66 65 64 62 64 64 63 62 65 67 70 69 70 69 68 68 67 68 71 76 79 82 83 82 85 86 88 92 90 93 96 98 99
64 60 58 60 58 59 61 62 65 68 66 66 68 64 62 65 65 64 66 69 70 72 72 72 73 74 73 74 75 79 81 84 88 86 88 88 90 94 98 101 102 104 106 106
60 58 57 60 60 56 60 63 66 68 69 69 68 67 65 66 67 68 70 71 75 74 74 75 77 78 79 81 83 84 85 89 88 93 93 95 99 101 104 106 108 109 109 107
57 56 54 54 58 60 60 61 65 68 70 72 70 70 70 71 72 73 73 75 76 77 78 80 82 81 83 86 86 88 88 90 93 96 102 103 105 107 108 111 114 113 112 112
56 55 55 56 54 59 64 66 68 70 72 73 74 74 74 74 76 78 78 78 79 81 82 84 84 84 87 85 84 89 94 97 101 104 106 108 108 109 114 118 114 115 116 115
58 58 61 65 64 64 67 67 69 71 72 74 76 76 78 80 82 82 81 83 83 84 86 87 88 88 89 94 96 99 102 103 105 107 109 110 112 114 117 115 116 116 116 117
65 66 67 65 65 65 67 69 71 72 73 76 78 78 80 82 83 83 83 82 85 87 90 92 93 95 97 101 103 103 104 107 109 112 113 113 115 117 115 115 116 117 119 121
66 65 64 65 67 68 70 73 75 76 76 79 80 81 82 81 83 84 86 89 92 94 95 97 99 101 103 105 106 108 110 113 115 115 113 116 117 117 118 119 120 121 122 123
66 65 65 66 67 69 73 77 79 79 80 79 81 83 84 86 87 89 91 95 97 99 100 101 104 106 107 109 110 112 113 116 113 115 119 119 118 117 118 120 121 122 122 122
67 66 67 68 70 72 75 79 81 83 85 87 88 89 90 91 93 96 98 101 103 104 105 106 107 108 107 111 114 112 110 115 118 119 118 118 118 120 121 121 121 120 120 121
69 70 71 72 73 75 77 80 83 85 88 91 93 95 97 99 100 101 102 103 105 105 107 107 108 111 112 110 110 115 118 121 122 120 118 119 118 120 120 118 118 120 118 114
72 73 74 76 77 79 82 83 85 87 89 91 92 93 93 95 97 100 101 102 104 105 107 109 108 108 112 115 118 120 118 116 115 115 116 118 119 118 117 116 114 110 106 104
74 76 79 80 82 84 87 88 89 90 90 92 92 93 94 96 98 100 102 104 105 106 108 110 113 115 117 117 116 115 114 114 115 116 116 116 113 111 108 105 102 100 96 94
77 79 81 82 83 84 86 86 89 90 90 91 92 94 97 98 99 100 101 103 106 108 108 112 114 114 112 111 112 112 112 112 111 110 109 108 104 102 99 96 94 91 89 86
73 76 78 80 81 83 85 86 87 89 91 93 95 96 98 99 99 99 101 102 103 101 100 101 103 106 108 109 109 109 106 104 102 99 97 96 94 92 91 88 86 84 82 80

GFSNGP_250_spd_060.txt.gz
Wind_Speed
83 81 81 77 73 71 67 54 50 50 49 49 38 42 40 35 26 26 24 28 31 28 28 28 25 19 17 23 25 30 36 41 45 50 48 49 50 60 64 67 72 72 73 75
88 84 81 80 75 69 69 65 54 51 42 47 41 42 44 39 32 28 27 29 30 33 29 29 26 23 19 18 25 28 35 48 50 55 57 63 59 60 61 63 67 70 70 73
85 83 85 86 72 70 68 59 58 53 46 48 49 43 41 37 37 32 31 27 30 32 32 33 32 27 25 20 18 30 37 41 45 47 50 54 59 59 59 62 65 69 71 71
87 87 91 71 73 68 63 62 58 58 52 51 48 47 45 40 38 38 34 33 31 32 32 32 33 34 33 30 26 21 27 40 44 46 54 60 63 62 58 60 59 60 62 63
95 91 82 76 73 71 66 64 61 59 54 52 49 47 46 44 43 43 43 37 39 34 33 36 35 36 35 35 34 31 28 30 34 37 39 41 43 43 43 43 44 47 46 49
93 87 87 75 77 76 69 69 66 64 61 59 56 52 47 49 50 54 51 49 44 41 37 39 37 36 37 37 35 36 36 37 37 33 33 36 39 42 40 41 44 46 50 50
84 77 71 77 80 80 78 63 77 72 66 61 58 56 53 48 44 54 58 55 54 51 47 42 42 43 43 43 42 40 40 41 43 43 45 45 44 44 46 46 48 50 54 56
77 85 79 77 81 84 78 78 77 74 67 64 62 58 56 54 48 50 55 57 57 56 55 47 48 49 50 49 48 46 46 46 47 49 51 53 53 53 54 53 55 60 62 63
79 83 84 81 78 81 79 79 78 77 70 69 63 59 53 52 50 52 57 59 61 60 57 57 57 53 51 53 53 53 52 53 54 54 55 56 58 60 61 61 63 65 66 67
81 79 83 81 77 74 81 85 82 78 77 73 67 64 61 59 55 59 63 65 61 57 56 59 58 59 59 57 57 58 61 61 61 61 63 62 63 66 68 69 71 71 73 75
84 87 85 82 72 65 69 79 83 80 78 77 73 69 60 61 62 60 63 61 62 60 58 58 60 61 62 62 62 63 65 67 67 68 69 69 69 73 74 76 78 77 81 82
79 82 82 76 68 60 64 68 72 79 81 79 78 73 66 64 65 65 68 68 65 61 60 61 63 65 66 67 68 71 72 72 71 72 73 76 76 77 78 80 81 85 87 87
72 74 76 71 72 67 62 62 66 69 72 73 71 66 64 67 64 67 68 64 62 64 65 64 67 69 69 69 71 74 75 76 77 78 79 81 82 83 83 85 87 91 91 92
68 71 70 67 70 68 64 63 61 60 61 60 66 64 64 62 64 66 65 67 67 67 69 70 72 72 72 73 74 75 80 81 83 83 83 84 85 87 88 89 93 97 98 99
63 68 69 64 63 61 62 60 57 56 58 59 64 66 64 61 62 64 68 69 70 71 73 73 75 76 77 78 77 81 86 84 87 87 88 89 90 91 91 94 99 102 103 105
60 65 69 62 59 60 56 54 56 56 58 60 60 57 59 62 65 67 67 70 72 75 78 78 77 80 82 84 83 88 90 90 90 90 90 91 90 93 97 102 106 107 107 111
60 62 63 63 57 53 55 58 57 57 62 65 68 72 71 72 73 73 71 71 74 79 80 80 82 82 85 90 90 91 93 93 94 94 93 94 98 102 105 108 109 112 114 115
59 59 60 60 59 59 59 56 57 60 61 64 69 71 75 74 74 76 77 77 78 81 83 85 86 87 89 90 91 94 95 95 93 96 100 103 107 109 111 112 114 115 118 121
55 56 58 60 61 60 57 57 59 61 64 67 70 73 77 80 82 84 85 86 87 88 88 89 90 91 93 94 94 93 96 99 102 104 106 109 113 113 114 115 117 121 120 120
51 54 58 60 61 61 61 64 62 61 63 66 69 73 76 80 82 84 86 88 88 88 89 90 91 94 96 97 99 102 103 104 106 110 115 115 114 116 117 120 119 116 120 119
52 53 56 60 61 63 65 66 67 67 68 71 74 77 79 82 84 85 88 89 90 92 94 95 95 96 99 101 103 106 109 111 112 112 112 114 115 119 118 115 118 119 125 121
50 52 56 61 64 66 68 69 71 72 74 77 80 81 83 85 86 88 90 93 94 95 97 99 101 103 105 106 108 109 110 111 111 113 116 116 115 117 119 117 121 121 119 117
53 56 60 65 67 70 73 75 76 77 80 81 82 83 85 87 90 92 92 94 97 99 100 101 102 104 105 107 108 110 111 112 112 113 115 117 117 116 117 117 116 115 116 116
56 61 64 67 69 73 76 77 79 81 82 83 85 87 88 89 90 92 94 96 97 100 102 103 104 104 105 107 109 109 109 110 113 115 114 116 116 115 115 114 113 111 108 107
59 61 66 70 72 75 78 79 81 83 84 86 87 87 88 90 93 94 96 97 97 98 100 103 104 104 104 105 106 108 111 112 112 113 112 111 110 109 106 104 103 101 99 95
58 61 64 67 70 73 75 78 80 82 84 86 86 87 89 90 92 94 97 98 99 99 98 99 101 102 103 105 107 108 107 106 106 106 105 103 103 102 100 98 94 90 89 87
59 63 66 69 72 74 75 76 77 79 80 83 85 86 88 90 91 92 93 95 95 96 98 100 102 103 104 103 102 102 102 100 98 99 98 97 94 91 89 87 85 82 81 78

GFSNGP_250_spd_063.txt.gz
Wind_Speed
85 85 87 83 80 78 73 68 63 54 50 54 54 49 43 42 38 35 37 33 34 30 29 28 28 29 27 24 20 17 26 33 39 43 46 48 51 48 53 54 61 56 61 66
94 94 93 91 84 79 76 71 62 58 54 56 53 49 47 47 44 41 39 36 34 36 31 31 28 27 27 27 26 23 22 26 33 43 46 49 52 55 55 58 60 63 66 69
93 96 92 87 77 82 78 75 71 64 55 56 57 54 53 51 49 45 41 40 35 34 34 32 31 29 28 28 26 24 24 26 29 36 45 54 56 56 60 63 65 68 73 73
101 103 102 89 87 86 84 82 77 72 66 60 60 60 54 53 50 48 49 43 39 37 40 39 38 33 31 29 29 26 25 26 29 34 41 47 50 54 58 62 64 65 64 63
94 94 91 87 87 87 84 78 77 74 68 61 62 60 57 56 52 52 51 45 41 41 44 43 45 42 37 36 35 33 31 30 31 31 32 37 41 44 49 54 55 53 53 54
86 84 84 78 86 90 90 80 80 79 75 67 62 54 60 61 56 52 52 47 44 46 49 50 49 49 47 45 42 40 39 41 41 38 38 39 40 41 43 48 52 54 56 57
80 81 74 77 87 90 89 77 85 83 74 68 63 60 63 60 61 53 52 48 48 48 50 49 50 51 53 52 46 47 47 48 46 48 48 48 47 47 48 51 53 54 56 58
78 77 71 73 80 81 85 87 89 84 77 71 67 63 66 65 62 59 59 54 51 48 48 50 48 52 55 53 53 52 53 53 53 49 51 54 56 56 57 59 61 61 61 63
77 74 75 76 75 74 76 78 81 83 81 77 70 67 68 71 68 61 56 55 55 56 56 52 52 56 57 56 56 56 57 56 57 59 60 61 61 62 62 63 65 67 69 70
74 67 74 80 77 74 72 68 65 71 77 81 77 74 73 72 69 65 60 58 58 58 59 59 59 58 59 61 61 60 60 60 61 61 63 64 65 67 67 69 71 71 73 75
63 68 73 78 75 74 76 70 67 64 69 73 78 79 78 76 71 70 64 62 62 59 60 63 60 62 65 66 64 64 65 65 65 67 68 69 70 72 73 75 74 75 78 78
61 67 72 77 78 77 79 71 72 76 75 73 76 78 76 76 76 72 71 69 67 66 60 64 64 68 68 68 69 71 71 69 70 71 71 73 76 78 78 79 79 81 83 85
61 65 73 76 80 78 77 73 72 73 67 61 60 64 74 77 76 78 76 74 72 66 66 66 68 69 69 67 68 69 72 73 74 77 78 80 81 81 80 81 82 85 88 90
59 66 73 75 80 81 80 73 74 70 61 61 54 53 60 60 68 71 69 70 69 69 69 69 69 67 66 68 72 76 78 77 79 82 82 82 84 84 84 86 89 93 94 95
58 62 70 75 82 86 82 78 77 72 64 58 58 57 58 62 69 71 68 70 69 69 70 70 71 72 73 74 76 79 80 80 83 86 88 88 87 89 90 93 98 98 100 99
57 62 70 74 88 87 81 80 74 70 65 65 65 62 56 59 63 68 72 70 69 72 74 72 71 75 76 79 81 81 83 85 87 90 91 92 92 94 96 98 98 103 100 100
54 57 64 72 77 79 80 76 70 69 69 69 65 64 64 67 69 69 70 72 74 76 77 76 77 82 81 83 85 84 88 91 91 91 93 95 97 98 99 102 101 103 103 105
46 48 56 62 70 69 71 68 68 63 60 59 67 70 70 71 71 74 78 76 78 75 74 73 75 79 81 83 86 87 89 91 92 95 98 99 96 99 99 102 104 106 108 113
47 51 52 55 58 63 67 67 66 62 59 61 66 65 67 69 71 74 77 83 84 85 87 88 88 90 89 87 89 93 96 99 102 102 99 99 100 104 107 106 109 114 115 117
46 48 51 53 54 58 61 64 67 65 64 64 62 64 68 73 76 79 81 84 86 89 90 94 95 96 98 99 100 101 101 101 101 103 105 105 106 107 110 112 113 114 114 117
44 47 48 46 52 54 58 60 61 64 67 67 70 69 72 77 80 79 79 83 87 89 90 93 96 99 101 101 100 101 102 102 103 104 105 107 109 110 110 110 112 116 118 119
53 51 48 45 44 48 54 58 60 63 65 69 71 72 75 79 81 81 84 87 88 90 92 94 95 97 98 98 99 99 100 103 105 105 106 107 107 109 112 114 117 116 117 118
45 44 44 45 46 49 52 56 59 63 67 71 75 77 81 83 83 82 85 86 88 91 92 93 94 95 95 97 101 102 102 103 104 105 107 109 111 113 114 115 116 116 116 114
44 45 45 46 49 52 56 60 63 67 71 74 77 79 81 83 84 83 86 88 89 90 90 92 94 96 98 98 100 102 104 105 107 109 110 110 112 115 114 114 112 109 108 108
45 46 47 49 51 54 57 60 63 67 70 73 76 79 81 83 84 85 87 89 91 92 92 94 95 98 101 102 102 103 106 108 107 108 111 111 110 109 108 106 105 103 102 100
44 46 49 51 53 56 58 61 64 67 70 73 75 78 81 83 83 85 87 90 92 94 95 96 97 98 99 101 103 104 105 106 107 106 105 103 102 101 100 99 98 95 92 91
46 50 53 56 58 60 62 64 66 67 69 72 74 75 78 80 82 84 86 87 89 91 94 95 96 97 99 100 100 100 100 99 98 96 96 96 94 93 91 89 88 87 86 84

GFSNGP_250_spd_066.txt.gz
Wind_Speed
81 79 78 75 71 69 65 59 52 52 52 57 58 54 50 45 43 38 37 40 43 45 41 39 38 35 32 36 30 22 18 19 29 40 43 45 45 45 47 45 47 49 51 54
81 82 81 81 82 76 74 75 71 71 63 57 57 58 54 52 48 41 41 43 45 49 43 41 42 39 36 35 34 33 28 22 19 20 31 40 45 46 45 48 48 53 56 57
84 85 85 83 87 86 81 79 79 76 72 71 67 68 63 55 51 45 44 47 51 52 51 45 48 44 38 38 35 33 35 33 28 25 22 24 35 43 47 49 53 55 56 57
86 90 90 82 91 91 88 84 84 82 80 77 76 76 76 71 66 62 51 51 58 58 57 51 48 47 43 42 39 38 37 37 36 32 32 30 31 31 32 34 38 41 44 47
91 97 88 89 92 92 94 87 89 86 85 83 77 73 67 70 71 67 59 53 61 63 61 56 51 54 47 46 45 46 45 42 40 38 38 37 39 37 39 40 40 41 43 44
86 88 89 95 100 99 98 88 92 89 85 80 78 75 68 69 71 62 58 54 63 65 62 60 54 57 55 49 50 51 49 44 44 45 44 43 44 45 46 46 48 50 50 52
79 84 84 86 94 102 101 99 98 97 91 88 81 76 74 73 69 63 57 58 59 66 66 60 58 60 60 63 57 54 52 47 42 48 52 50 51 50 50 52 54 56 58 60
77 77 75 80 84 87 91 88 84 87 87 85 79 75 73 74 71 68 66 59 62 65 68 66 63 63 62 61 60 57 54 55 49 51 52 54 57 58 57 57 58 60 63 64
75 74 75 76 78 78 79 81 82 80 84 84 80 76 74 74 74 72 71 64 66 67 66 65 64 63 63 63 62 60 60 57 55 59 62 64 63 63 63 62 64 66 67 69
69 66 68 71 77 80 75 73 74 74 76 79 79 78 78 78 77 76 75 69 72 73 70 70 71 73 72 72 69 66 57 57 59 64 66 67 68 68 69 71 72 74 75 76
59 61 63 68 72 73 74 73 72 72 73 76 77 79 81 81 79 80 79 77 72 75 75 72 71 71 72 72 72 68 64 63 66 70 74 75 78 76 76 77 78 80 81 79
51 58 61 64 65 66 70 70 74 73 72 76 73 78 76 77 76 78 79 78 73 75 74 76 75 74 75 74 74 71 70 72 70 72 77 80 78 80 81 82 83 82 82 83
50 52 54 59 62 62 64 70 74 72 73 73 74 75 72 75 72 70 70 70 75 78 80 80 81 82 79 80 78 79 78 74 74 79 82 83 84 84 88 86 84 85 86 87
49 48 50 57 61 59 62 66 72 72 73 68 73 70 62 65 66 64 64 68 72 76 80 84 85 86 84 84 84 82 82 80 83 83 87 89 87 87 87 87 90 91 93 94
46 51 51 55 57 57 59 66 74 75 75 78 78 74 66 69 65 64 66 69 73 76 80 86 83 83 86 87 84 83 83 85 86 90 90 90 89 89 92 93 95 96 99 100
45 50 51 53 56 56 60 65 68 70 71 73 73 73 73 71 69 66 61 61 63 68 73 76 80 81 83 78 81 86 89 88 91 91 90 87 90 92 93 93 96 99 102 102
50 50 50 50 54 57 62 63 64 67 67 70 70 71 70 69 67 63 61 62 61 64 69 77 79 81 82 82 82 83 86 90 93 93 94 96 98 100 102 103 104 104 105 103
47 50 49 48 51 55 57 60 63 67 67 68 68 70 72 69 71 69 66 68 69 70 72 75 82 88 88 91 85 90 92 89 91 95 97 98 98 98 98 99 102 104 107 112
44 42 42 44 46 49 51 53 60 65 70 68 73 70 69 73 74 73 73 76 74 74 78 81 85 86 88 89 91 90 91 92 93 93 94 97 100 101 105 108 110 113 114 117
40 40 41 43 46 50 51 53 57 61 67 70 68 61 61 68 72 77 78 79 82 82 84 90 90 91 91 92 94 94 95 97 101 103 106 108 109 110 110 115 118 117 117 117
38 41 43 46 50 52 54 55 56 58 58 60 59 61 67 71 71 73 78 80 81 85 86 88 90 90 91 92 94 96 98 100 104 107 110 111 112 114 115 114 116 118 118 117
39 42 45 48 52 52 51 50 52 53 56 59 59 61 67 69 70 72 75 82 87 90 89 90 91 93 91 93 96 98 102 104 105 106 108 110 111 111 113 114 114 114 116 116
41 43 47 51 51 50 50 51 51 51 52 56 60 62 64 67 70 73 79 85 87 89 90 92 92 93 93 94 96 98 98 100 103 104 103 105 107 109 111 113 114 112 113 115
35 39 42 45 46 46 48 51 52 52 53 53 56 60 62 66 70 73 76 79 82 84 87 90 91 92 93 93 93 94 95 98 101 104 105 106 107 108 109 111 111 110 108 107
36 38 39 41 41 43 46 48 50 51 51 53 56 59 61 63 66 70 73 77 79 82 85 86 88 90 91 92 93 94 95 96 99 102 102 103 105 106 105 103 103 104 104 104
37 38 40 41 44 46 48 51 53 54 55 57 58 59 61 64 67 70 73 76 79 81 83 86 88 89 90 91 92 94 95 96 98 100 101 99 99 100 100 100 100 99 98 95
42 44 46 48 50 52 54 56 58 59 60 61 62 63 65 67 69 71 73 75 76 78 79 82 84 86 88 90 91 92 93 93 94 95 96 95 95 94 93 92 89 88 87 86

GFSNGP_250_spd_069.txt.gz
Wind_Speed
74 76 75 75 72 70 65 63 61 58 56 54 51 53 53 55 50 48 49 43 38 38 37 34 35 34 35 35 38 37 35 29 26 24 25 25 25 35 47 51 50 52 51 53
75 80 77 72 73 78 77 72 68 65 62 62 59 53 56 61 59 55 53 44 42 43 44 39 42 43 41 38 39 42 39 37 32 26 24 24 27 25 22 26 29 35 38 42
87 87 84 77 77 78 76 72 70 67 65 60 55 49 58 64 66 60 54 51 53 53 50 48 46 52 51 44 40 43 41 41 39 34 30 28 28 30 30 29 29 30 33 36
88 89 87 82 85 85 84 80 79 74 71 67 63 60 62 69 70 65 65 65 58 56 56 56 50 53 57 48 49 46 45 44 44 43 41 38 35 35 35 34 36 36 38 40
86 86 83 86 90 92 94 86 86 82 77 75 73 72 77 80 82 78 76 71 69 63 58 59 57 58 58 60 53 55 49 48 49 45 46 47 45 43 43 43 42 43 45 45
83 86 85 86 89 93 93 85 91 89 87 85 79 78 80 82 83 80 78 77 73 63 65 60 61 61 60 64 65 63 57 52 52 52 51 54 52 49 49 49 50 53 52 52
79 80 80 85 91 97 94 91 90 89 89 87 83 82 84 86 87 87 85 80 75 71 66 65 64 61 60 62 62 63 62 58 54 57 56 62 64 57 53 57 55 56 59 59
72 73 76 81 85 90 92 96 95 94 94 93 89 86 85 86 88 88 87 84 75 73 72 67 63 62 58 62 63 64 63 61 58 61 65 65 63 61 61 60 59 62 65 67
69 71 73 76 78 79 83 85 89 89 93 95 96 94 92 87 89 88 87 83 75 71 70 67 63 62 61 61 66 67 66 65 65 64 66 67 66 67 66 63 65 69 71 73
67 69 73 73 74 73 78 77 80 83 80 84 85 89 86 91 94 91 85 86 84 80 72 68 66 64 65 63 64 66 67 66 67 69 71 74 74 76 72 70 71 74 76 79
63 66 70 74 71 72 76 77 76 79 77 71 75 79 75 81 88 89 86 84 86 83 75 72 71 70 70 68 68 72 72 73 75 76 78 79 79 79 78 78 77 76 80 85
60 63 67 71 69 68 70 71 69 73 75 71 69 71 69 71 78 83 86 86 88 85 79 76 75 77 77 76 74 75 78 81 80 81 82 81 80 81 83 84 83 83 84 88
55 58 60 61 65 64 60 62 64 64 67 66 63 67 72 72 74 75 77 77 79 83 83 81 81 81 80 82 80 78 79 83 85 85 84 87 86 87 86 88 89 91 92 93
51 54 57 56 51 49 49 51 54 56 61 61 57 64 70 69 74 74 77 73 75 81 85 84 86 84 84 87 87 85 84 89 87 92 93 93 94 95 94 94 97 97 98 99
55 60 57 49 45 48 50 50 55 54 56 57 58 65 70 68 69 74 78 71 77 78 78 80 81 84 83 88 85 84 87 91 95 94 96 99 98 99 98 98 99 100 100 102
60 56 49 49 45 47 49 51 52 50 53 55 57 65 66 67 65 69 67 70 73 71 68 68 72 75 77 78 81 85 86 93 97 95 97 102 106 103 100 101 102 103 105 107
58 49 47 49 50 48 50 50 51 53 51 53 58 58 60 63 65 65 65 69 72 66 66 68 71 73 73 80 84 86 84 88 90 96 95 97 99 100 103 104 105 104 105 105
40 34 42 45 46 48 50 48 47 47 49 49 50 53 57 57 61 65 69 73 76 76 75 75 74 71 72 79 83 84 86 90 92 94 98 100 102 105 104 104 104 106 107 110
34 37 40 41 41 39 40 43 45 45 46 46 48 49 53 57 59 62 66 69 74 74 74 74 76 78 73 75 79 81 82 84 89 93 96 101 104 106 107 108 108 107 108 108
31 34 34 33 37 40 43 44 46 46 46 48 51 53 53 53 56 61 63 65 67 70 74 76 79 80 78 79 81 84 87 91 92 95 98 102 106 108 112 112 112 113 113 112
28 27 29 33 37 40 42 44 46 47 49 51 52 53 54 55 57 62 65 64 69 72 74 77 77 79 81 82 84 88 92 94 96 100 104 107 108 111 112 111 111 112 110 108
25 28 32 36 38 40 43 45 47 48 50 52 53 53 54 54 57 60 64 66 67 71 77 82 85 85 84 85 88 90 91 95 99 102 103 105 106 107 108 105 103 105 107 108
27 30 33 37 39 42 44 46 49 52 54 54 54 54 55 56 55 56 60 63 67 72 73 75 78 82 83 86 88 91 94 96 98 98 98 98 99 99 99 101 102 104 107 108
34 36 37 39 42 44 46 48 50 52 53 54 53 52 52 53 54 56 58 60 61 64 67 70 72 73 76 79 82 85 88 88 88 89 91 92 92 92 94 96 98 100 103 104
36 38 41 43 45 46 46 47 48 50 51 51 51 52 53 54 55 56 57 57 59 61 63 67 69 72 73 76 78 81 83 85 86 87 88 90 91 91 93 96 97 97 96 97
35 38 40 41 42 44 45 46 47 48 48 50 51 52 54 55 57 58 59 60 61 63 65 67 69 70 72 74 76 78 80 81 83 84 86 88 89 90 91 91 92 93 94 93
41 42 43 44 45 46 48 49 50 51 52 53 54 55 57 58 59 61 62 64 65 67 68 69 70 72 73 75 77 79 81 82 83 84 85 86 88 89 89 89 89 88 86 85

GFSNGP_250_spd_072.txt.gz
Wind_Speed
78 73 70 64 61 63 63 63 62 62 63 63 62 60 58 56 55 53 53 49 48 47 46 46 45 42 39 35 30 27 29 30 33 35 33 30 28 25 22 23 28 32 37 43
83 84 81 78 73 68 63 58 62 63 64 67 63 63 62 61 60 55 52 51 47 49 50 50 49 45 41 40 39 41 33 32 33 36 37 36 34 32 32 27 25 26 28 32
82 81 83 80 78 78 79 75 71 72 70 67 68 69 66 64 65 62 61 57 54 50 52 54 56 53 49 47 46 45 44 38 38 42 41 41 38 40 39 37 34 33 31 32
82 81 79 74 73 76 72 78 86 79 76 75 73 72 72 69 68 68 65 56 53 49 50 57 61 54 53 52 51 50 48 48 45 46 46 45 47 43 44 43 42 41 39 40
79 84 80 77 83 82 78 80 80 76 75 73 76 78 80 79 73 71 66 62 56 56 59 64 64 62 62 57 55 55 54 52 52 49 50 52 53 53 49 48 50 49 48 47
84 83 84 88 90 92 91 92 87 86 83 82 82 79 77 74 71 68 67 68 66 64 65 66 69 68 71 66 63 57 59 55 55 55 54 56 55 58 58 58 55 55 59 59
83 85 87 89 90 91 91 92 94 93 91 89 89 91 87 83 81 78 76 79 78 79 78 80 79 79 79 75 74 65 61 61 61 60 60 58 58 61 62 64 63 63 64 62
78 80 83 86 90 96 97 97 97 97 97 96 95 95 94 93 93 91 85 82 83 83 81 81 80 80 80 77 72 71 69 68 68 63 61 61 58 58 63 66 65 66 67 66
74 77 79 82 85 87 89 92 93 94 97 96 95 93 92 93 93 93 91 92 94 93 91 91 88 84 82 80 78 76 70 73 69 66 61 62 65 64 66 69 70 70 70 70
71 72 75 75 76 79 83 86 88 88 89 90 90 89 86 84 88 91 90 89 91 91 92 91 91 90 88 86 81 79 74 71 70 66 65 62 66 66 68 71 74 73 74 76
65 68 69 71 70 73 75 78 81 83 82 81 83 82 83 82 80 83 86 90 94 95 95 95 93 91 89 87 83 81 80 75 72 72 70 74 72 71 74 76 79 80 80 81
64 65 67 68 67 71 72 74 76 78 78 78 79 77 76 76 74 74 76 79 85 87 89 90 91 94 93 91 88 83 79 75 77 77 78 77 79 79 81 84 85 84 86 86
60 63 64 66 69 69 71 72 73 75 77 76 72 70 68 70 69 70 70 76 73 78 80 83 84 84 85 86 85 83 82 83 82 82 84 84 83 84 87 93 92 92 93 93
59 61 61 64 67 68 67 68 68 70 69 65 60 61 64 67 69 66 70 74 72 72 76 80 80 79 81 83 83 85 89 89 89 87 87 88 89 92 92 99 100 102 104 106
61 61 62 64 64 67 66 66 66 65 60 47 53 58 58 62 65 70 71 67 69 71 73 76 77 77 79 75 79 84 87 89 91 93 92 96 97 98 98 102 105 108 112 114
58 57 58 59 60 62 60 58 54 54 48 51 54 56 56 56 62 65 66 64 65 67 69 72 77 80 81 78 81 85 88 88 92 94 95 95 100 100 102 107 110 114 117 117
53 51 53 55 55 57 51 47 47 50 47 50 52 52 52 54 56 58 63 60 62 64 64 70 76 80 82 78 81 84 86 88 93 95 98 99 100 100 98 98 99 107 111 112
56 56 56 56 55 56 50 48 53 49 47 48 47 46 47 48 49 50 55 57 59 62 64 65 72 78 79 79 83 84 84 85 86 87 88 91 93 90 93 99 103 105 111 115
56 58 57 55 53 53 52 50 47 47 46 45 47 46 45 47 48 52 54 56 58 61 63 61 64 69 71 73 77 76 76 81 85 86 91 91 96 99 103 106 107 113 118 119
42 44 45 47 47 47 48 47 45 44 44 45 45 46 46 46 49 53 54 55 56 58 61 62 64 66 70 73 75 78 80 82 84 87 89 93 95 98 99 103 106 111 113 114
32 33 35 37 38 40 41 42 42 43 43 44 44 44 46 48 50 52 54 56 57 58 59 62 65 69 71 73 76 80 82 85 89 92 95 99 100 101 103 104 107 110 111 116
22 25 28 31 34 37 39 41 40 41 43 45 46 48 49 50 50 51 51 53 54 55 58 61 64 67 70 73 75 79 81 85 88 93 96 97 100 102 104 106 110 113 114 115
27 28 29 29 31 34 37 39 41 44 46 48 50 51 52 53 54 55 56 57 58 59 61 63 65 66 68 70 72 75 79 82 86 89 91 92 92 95 98 100 103 104 104 102
28 30 32 34 36 37 39 42 45 47 48 49 51 53 54 55 56 58 59 60 62 64 65 65 67 68 70 72 73 74 76 78 80 82 84 86 87 88 89 90 92 94 93 93
33 35 37 39 40 43 44 46 48 50 51 52 53 54 55 55 56 56 57 59 60 61 62 64 67 68 69 70 71 72 73 74 75 77 79 80 82 82 84 85 87 88 89 90
34 36 37 39 41 42 44 45 46 47 49 50 51 52 53 53 53 54 55 56 58 59 61 62 64 66 67 69 70 72 73 75 76 77 78 80 81 82 84 85 86 87 88 88
40 42 44 45 46 47 47 48 49 50 51 52 53 55 56 57 58 59 60 61 62 64 65 66 67 69 70 71 72 73 73 74 75 77 78 79 80 80 81 81 82 82 81 80

GFSNGP_250_spd_075.txt.gz
Wind_Speed
72 69 69 66 63 58 61 62 61 64 67 65 66 64 64 62 56 58 58 59 56 54 52 50 49 47 45 47 47 40 41 33 32 26 28 29 25 29 30 28 28 29 29 28
74 73 65 61 63 63 61 61 64 69 71 72 67 64 67 64 61 57 57 55 56 58 56 53 51 50 47 48 50 47 44 40 37 38 35 34 34 32 36 37 33 31 34 33
77 74 72 63 59 60 68 65 69 70 73 72 67 68 68 66 64 64 65 65 62 64 62 58 56 55 52 50 51 52 50 49 47 43 41 39 39 35 37 41 40 40 39 40
79 78 79 81 78 73 67 68 72 71 69 66 67 68 73 73 71 69 68 68 69 68 67 65 63 60 58 57 52 55 52 53 53 50 48 46 47 45 39 41 45 47 45 46
77 79 83 83 82 85 86 85 79 77 73 68 64 63 69 68 71 73 74 74 73 71 70 69 69 67 63 61 60 57 54 58 61 58 53 56 58 50 51 47 50 52 53 52
75 75 77 84 84 88 90 95 89 87 86 83 80 78 79 76 76 77 77 77 74 75 74 73 70 70 67 65 63 60 59 61 63 65 66 66 68 62 58 53 54 58 58 56
81 78 77 78 81 84 88 93 90 94 93 91 90 90 89 93 92 88 86 85 81 81 82 82 82 81 70 67 63 64 66 68 67 70 74 75 76 69 61 62 61 61 63 64
86 83 83 89 86 85 87 92 92 91 91 93 95 94 91 90 90 90 92 91 86 80 78 75 75 74 73 71 71 74 75 78 80 81 78 76 74 70 69 64 63 62 67 69
89 87 87 88 88 89 89 87 89 92 94 96 98 99 100 99 98 97 95 94 91 89 91 92 88 83 83 83 83 84 85 85 83 80 79 78 76 74 72 68 64 66 69 71
85 87 88 92 89 87 88 90 92 95 98 97 97 97 95 95 96 98 98 98 97 95 94 95 97 100 98 95 92 89 88 87 86 84 83 82 81 78 75 71 70 70 68 72
83 83 86 89 87 87 89 88 88 88 89 91 94 94 93 92 92 91 91 91 92 93 93 94 92 93 98 102 102 100 98 98 96 95 95 92 88 85 81 78 77 77 74 77
77 77 82 83 81 80 82 81 82 84 84 85 87 88 89 90 89 86 85 84 82 84 85 85 87 88 90 93 93 94 95 97 97 95 93 90 89 88 83 81 80 83 84 84
72 74 74 73 71 77 77 77 77 78 79 79 79 82 82 82 81 78 76 76 75 77 80 79 80 79 81 81 87 91 93 98 99 100 100 99 93 90 86 84 85 86 86 88
65 68 66 68 67 71 72 74 74 75 76 78 80 80 80 79 77 74 71 72 75 78 78 73 77 78 76 73 78 84 86 91 92 90 90 90 89 87 88 89 89 91 94 93
64 65 65 67 69 71 71 72 72 74 76 77 76 76 77 73 67 63 66 69 72 77 70 70 74 77 75 76 78 82 82 90 79 71 82 85 84 87 91 96 98 98 98 99
66 65 66 67 68 70 71 73 73 73 73 73 73 72 69 63 55 55 62 68 70 71 66 62 64 66 71 73 77 82 87 89 77 73 77 82 78 72 73 80 88 91 95 97
65 65 67 66 67 68 69 71 72 73 73 70 68 65 60 55 51 56 61 63 65 65 58 55 57 59 63 66 70 77 83 84 80 84 88 82 80 77 80 88 94 97 97 101
63 63 64 65 65 67 67 68 69 69 67 61 57 53 54 58 56 57 59 60 60 56 56 55 54 56 60 63 65 69 76 80 82 87 93 89 86 88 93 99 103 106 109 109
56 58 59 59 59 60 61 61 58 59 58 56 54 53 56 57 54 56 56 55 54 53 56 59 57 56 58 60 64 67 71 75 81 86 87 91 93 96 102 105 108 107 103 107
55 57 57 56 55 54 56 58 59 60 59 57 58 56 53 51 53 54 54 54 55 56 56 59 60 59 60 62 64 67 71 75 79 84 88 91 93 93 94 99 101 103 102 105
56 58 60 61 60 60 59 58 58 58 56 54 52 52 50 51 52 52 53 54 56 58 58 59 60 61 63 64 65 67 70 73 76 82 87 91 95 97 98 97 98 100 102 104
40 42 45 46 46 45 45 46 46 47 48 49 49 50 50 52 53 54 53 54 55 57 57 59 61 62 64 66 68 69 71 73 75 78 82 88 90 92 94 96 99 102 105 108
35 38 39 39 38 39 40 41 42 43 45 46 47 47 48 49 51 52 52 54 55 57 58 59 60 62 64 67 69 71 74 76 78 80 82 85 87 90 92 94 96 98 100 103
30 31 32 33 35 37 39 41 42 43 44 45 45 46 48 49 50 51 53 55 56 58 60 61 62 64 67 70 72 75 77 79 80 82 84 85 86 86 88 89 91 92 92 93
34 35 37 38 39 39 40 41 42 43 44 46 48 49 50 52 53 54 55 57 58 60 61 62 63 65 66 68 69 70 71 72 74 76 78 80 83 84 86 87 88 90 91 91
36 37 38 39 41 42 44 45 47 48 49 50 51 52 53 53 54 55 56 57 58 60 61 62 64 65 66 67 68 69 71 72 74 75 77 78 80 81 82 84 85 86 87 87
44 46 47 48 49 50 51 52 53 54 54 55 56 56 57 57 58 59 60 61 61 62 63 64 64 65 66 67 68 70 71 72 74 75 76 77 78 78 79 79 79 79 79 79

GFSNGP_250_spd_078.txt.gz
Wind_Speed
57 62 64 64 57 58 56 61 64 61 64 68 60 60 59 56 59 64 61 57 56 55 56 56 55 54 54 51 47 42 40 41 48 46 41 38 34 31 31 29 27 31 30 33
70 62 66 62 61 64 65 56 58 62 63 69 75 73 61 57 61 61 66 66 63 61 59 56 56 58 57 55 55 49 45 46 45 48 48 43 41 40 35 33 31 33 32 33
76 75 66 68 68 69 66 61 64 61 68 67 68 68 58 65 63 61 62 62 61 60 58 57 57 59 60 59 59 55 52 51 50 46 47 52 47 44 47 43 42 44 39 38
82 79 73 69 72 73 74 68 72 68 70 77 68 61 67 67 61 66 68 68 67 65 61 58 59 57 59 57 58 58 57 58 56 53 52 52 57 55 50 51 51 49 47 51
87 83 79 75 71 70 81 75 75 71 70 64 63 65 73 68 64 73 74 71 70 71 72 69 67 69 69 69 68 64 63 63 62 62 60 58 60 61 58 54 56 58 59 57
79 91 84 82 82 75 78 83 82 73 69 73 69 68 67 69 75 73 73 72 74 77 74 75 77 77 75 74 72 70 67 66 67 67 66 62 61 66 60 57 58 62 63 66
75 77 81 88 89 88 86 85 81 76 67 64 68 72 72 69 72 70 73 68 70 68 71 73 76 77 76 75 75 74 75 75 72 73 73 71 72 69 68 64 64 66 69 72
73 69 75 78 82 81 88 87 86 86 83 81 78 76 78 78 80 79 81 79 80 79 79 82 82 80 80 81 83 85 84 86 84 76 67 68 67 67 68 70 73 75 77 78
77 75 79 83 83 82 83 92 90 88 93 93 92 92 93 94 92 93 91 91 91 92 94 95 96 96 94 89 93 85 81 77 75 73 69 70 72 72 75 79 82 83 81 79
82 80 78 83 86 86 84 84 83 88 95 98 99 99 100 98 101 105 105 105 105 105 105 104 105 104 104 98 95 92 90 89 90 90 87 86 86 87 90 85 82 80 79 77
78 87 89 83 83 85 87 86 85 85 86 89 92 93 95 95 97 97 100 104 106 108 108 108 107 106 106 104 102 100 99 100 103 103 103 101 97 99 100 100 98 97 97 96
77 82 83 85 89 86 89 90 92 93 92 94 96 97 95 95 97 98 98 100 102 103 104 104 103 99 98 100 99 99 102 103 104 103 101 100 100 98 98 97 96 95 92 96
74 83 83 79 87 88 88 87 87 88 93 94 95 94 92 92 94 94 94 94 94 92 91 90 90 87 87 89 93 91 90 90 90 91 89 89 90 93 94 96 96 97 96 95
72 75 75 77 82 84 86 87 86 86 86 88 88 89 90 90 90 91 90 90 87 85 84 80 80 80 83 85 85 84 84 82 82 82 76 83 82 84 83 70 80 83 86 81
63 67 72 75 77 81 81 82 82 83 83 84 85 85 84 84 84 84 84 83 81 79 76 74 74 80 82 78 78 79 80 79 79 76 80 83 86 82 77 80 92 93 90 87
62 62 66 68 71 75 76 78 78 79 79 79 79 80 81 82 82 82 81 79 79 75 72 72 71 76 74 71 71 70 71 73 73 73 77 82 83 86 83 90 91 92 88 85
62 64 67 68 69 72 73 74 76 77 77 77 79 80 81 82 81 80 78 76 72 67 65 66 68 70 67 61 59 57 59 62 66 71 75 80 86 91 89 87 89 94 89 88
59 61 64 66 68 70 72 74 75 75 75 76 77 77 78 77 75 74 72 70 64 61 61 63 65 66 64 59 58 57 59 61 63 67 73 80 86 93 97 98 101 102 99 96
55 58 61 65 67 69 71 72 72 72 73 74 73 72 71 69 66 64 63 60 62 61 63 65 66 65 63 60 57 60 62 63 63 66 71 78 86 91 97 102 104 104 103 103
54 56 59 61 63 65 66 67 67 66 65 65 64 63 63 64 63 62 63 59 61 63 65 66 63 61 61 61 61 61 62 63 66 68 70 74 79 85 92 94 96 101 104 107
52 54 55 56 56 56 57 58 58 58 59 60 60 61 61 62 63 63 62 60 60 61 61 59 58 58 58 60 62 62 63 64 65 67 70 73 77 79 83 87 91 95 99 100
50 52 53 55 57 58 60 60 60 60 60 59 60 59 59 59 58 58 58 57 55 54 56 56 56 57 60 62 64 64 65 66 67 69 71 74 76 79 81 84 87 90 92 95
35 37 39 41 42 44 46 49 51 52 53 54 55 56 56 55 54 53 53 53 53 53 54 55 56 58 60 62 64 66 68 70 71 72 73 75 77 79 81 84 87 90 92 93
30 31 33 35 36 38 40 41 43 44 45 46 47 48 49 50 51 52 52 53 54 55 56 56 58 60 62 64 66 69 70 72 73 74 76 77 79 81 83 85 87 89 90 92
35 37 39 40 41 42 44 45 46 47 49 50 50 51 52 53 54 54 55 56 57 58 59 60 62 64 65 66 67 68 69 70 71 72 74 75 76 77 78 79 80 81 82 84
42 44 46 47 49 50 51 51 52 52 52 53 53 53 54 55 56 56 57 58 58 59 60 60 61 62 63 64 65 66 67 68 69 69 70 71 73 74 74 76 77 79 80 82
50 51 52 53 54 55 55 55 56 57 56 56 56 55 55 55 55 56 57 57 58 59 60 61 61 61 62 63 64 65 66 67 67 69 70 71 72 73 74 74 75 75 76 76

GFSNGP_250_spd_084.txt.gz
Wind_Speed
43 42 45 44 46 49 60 58 53 58 54 50 35 40 43 45 45 44 44 45 48 49 49 48 48 47 50 48 46 47 46 43 45 42 43 43 42 43 43 44 43 39 40 38
45 47 48 45 49 43 62 57 53 59 57 56 55 45 45 44 37 43 52 50 52 47 47 52 51 51 50 51 50 49 51 51 53 48 47 46 46 44 45 47 48 48 46 45
49 53 52 50 55 53 65 67 65 61 62 59 56 61 50 50 47 52 53 55 49 47 45 50 57 58 58 56 55 57 57 54 53 54 54 55 56 51 51 50 51 51 50 50
54 56 54 55 58 59 58 69 71 65 63 62 61 64 67 55 59 57 66 66 58 54 50 51 50 50 52 54 55 56 58 59 60 60 62 59 55 55 56 56 55 54 53 54
55 58 56 59 60 62 64 70 72 66 66 66 65 67 61 65 72 74 69 70 61 57 59 58 57 57 56 55 55 55 55 56 58 59 59 58 58 58 60 59 57 56 59 61
52 60 63 64 64 64 67 69 68 71 68 69 71 69 66 66 69 72 72 75 74 68 60 57 59 62 63 66 65 64 65 65 65 63 63 62 63 63 62 60 61 64 64 61
55 60 67 68 67 64 71 69 68 73 73 72 71 71 70 68 69 71 70 70 71 72 72 68 66 66 64 61 62 63 64 63 61 61 64 66 66 63 65 67 69 72 74 71
56 56 66 76 71 69 71 71 68 74 77 78 76 72 72 73 71 72 70 69 69 72 72 69 68 69 69 70 71 69 68 66 68 69 70 68 70 72 75 77 74 72 71 72
58 58 65 78 80 70 68 71 70 70 68 68 74 76 77 78 77 78 79 79 75 73 72 71 71 74 75 75 71 72 73 72 77 77 78 77 76 74 72 75 78 81 80 81
57 58 61 72 83 80 72 72 74 75 74 73 72 72 75 78 79 80 80 82 80 77 78 77 76 76 76 78 79 81 83 86 83 77 76 76 76 78 80 80 81 84 88 94
55 61 62 63 74 85 86 80 77 80 83 84 81 78 77 76 77 80 81 82 83 84 86 86 87 89 90 88 86 81 82 79 80 80 82 84 86 88 92 96 100 101 103 106
57 62 67 68 70 84 89 90 87 86 85 87 87 88 86 85 85 85 85 85 86 87 88 88 87 86 87 90 92 94 96 96 95 96 98 101 102 103 106 109 111 115 118 113
56 63 64 68 74 78 86 94 92 98 99 91 86 85 86 86 86 88 89 88 88 89 90 92 94 95 99 100 103 101 102 101 102 107 110 111 112 116 118 112 111 111 109 102
53 56 58 62 65 70 74 79 86 90 91 91 91 90 89 88 89 90 93 96 97 98 99 100 102 103 102 98 99 100 101 104 105 105 103 102 103 101 97 97 98 97 96 96
47 50 57 60 62 65 70 72 73 73 76 84 86 88 90 91 92 93 92 93 96 99 102 103 102 101 101 101 101 101 102 101 100 100 99 97 95 93 89 90 93 93 91 91
48 50 55 59 60 62 65 70 73 75 75 75 78 80 82 84 84 85 86 87 89 92 93 94 95 95 96 96 95 94 93 94 95 95 95 91 90 88 88 88 88 88 87 85
48 48 50 55 59 61 63 65 67 70 73 75 75 77 78 79 80 80 81 83 84 85 86 87 88 88 89 91 91 91 91 91 90 88 89 89 87 85 85 83 82 81 79 77
44 46 47 52 55 58 61 63 66 67 69 70 72 74 76 77 78 79 81 82 83 84 86 86 86 86 86 86 85 85 86 87 87 86 85 85 83 80 77 77 76 76 75 73
38 42 45 49 53 56 59 62 64 66 68 71 72 73 75 75 76 76 77 77 78 79 80 80 81 81 82 83 84 84 84 83 83 81 80 78 78 77 76 75 75 75 74 75
39 42 46 49 51 54 57 59 61 63 65 67 68 70 71 72 74 75 75 76 76 76 78 78 79 79 80 80 79 80 79 78 77 76 76 76 78 79 78 77 74 76 76 76
38 40 43 45 48 50 54 56 59 60 62 63 64 65 66 68 69 70 71 72 72 72 73 73 73 74 74 74 74 75 75 75 75 76 74 73 72 71 71 70 69 70 70 71
39 41 43 45 47 49 51 53 55 57 59 60 61 62 63 64 65 65 66 67 67 68 68 69 69 70 71 70 70 70 69 68 67 67 66 65 64 63 64 65 66 66 67 68
39 41 43 46 48 50 51 53 54 56 57 58 59 59 59 59 59 59 60 59 60 60 59 59 59 59 60 61 62 62 62 62 62 62 63 63 63 62 63 63 64 64 66 67
37 39 42 43 45 47 48 50 51 52 53 54 55 56 57 58 58 59 59 59 59 59 59 60 60 60 61 61 61 61 61 61 61 62 62 62 61 62 62 63 64 65 66 67
38 40 41 43 45 46 47 48 49 50 51 52 53 54 55 55 56 56 57 56 57 56 56 57 57 57 58 57 57 58 58 58 59 59 60 61 60 61 62 64 65 65 66 68
43 44 45 46 47 48 48 48 47 48 49 50 50 51 52 54 53 54 55 56 56 56 57 57 57 57 58 58 58 58 59 60 61 61 62 63 63 63 65 66 66 66 67 67
48 49 48 48 47 45 45 45 44 44 45 44 44 47 49 50 52 53 53 54 55 55 56 56 58 58 58 59 60 61 61 61 62 62 62 61 61 61 61 61 61 61 61 61

GFSNGP_250_spd_090.txt.gz
Wind_Speed
56 52 51 51 51 49 43 39 32 35 30 41 43 44 49 46 46 48 47 51 48 45 45 43 46 47 50 51 52 51 49 50 49 50 48 47 48 47 46 46 44 43 43 43
54 51 51 49 52 43 40 36 29 31 32 46 48 47 49 52 54 52 51 48 45 43 38 39 39 47 51 48 52 51 50 51 54 56 57 56 55 55 54 54 51 49 47 47
52 49 47 50 53 45 41 38 30 34 42 56 49 48 52 53 55 46 51 48 48 47 46 45 46 47 51 54 55 54 54 54 54 55 55 55 56 57 55 57 55 51 52 53
53 52 50 53 49 45 44 37 34 40 52 58 54 57 56 57 51 53 49 50 54 51 50 47 48 52 51 54 58 60 60 58 57 56 56 57 56 56 55 56 59 59 59 59
49 51 49 53 51 47 40 39 42 48 60 64 55 53 55 61 66 59 53 51 61 59 59 55 57 59 59 60 58 61 60 62 62 61 62 63 64 65 68 70 66 63 63 63
50 50 51 54 52 47 40 43 49 53 63 68 63 62 59 63 66 67 63 62 61 60 64 62 63 61 58 57 58 57 54 62 66 65 62 63 63 62 62 66 67 67 65 63
47 46 48 51 49 43 40 48 52 59 71 72 71 66 71 66 66 71 72 70 66 65 66 64 57 66 63 65 62 60 57 57 60 61 61 63 65 64 65 66 66 66 66 68
44 44 47 49 44 43 45 53 59 66 80 79 74 73 66 74 69 71 70 72 71 73 70 68 68 66 67 65 68 67 61 65 67 65 64 66 68 69 68 70 72 74 74 75
45 47 51 48 44 43 46 56 65 70 85 85 79 79 77 72 79 75 77 74 75 71 74 75 74 73 73 73 74 73 74 72 75 70 68 75 75 77 79 78 77 77 77 79
45 48 51 50 47 46 48 57 68 71 91 88 85 85 87 88 89 86 83 79 78 78 75 72 77 74 75 77 74 75 78 77 75 81 79 77 78 81 86 86 85 85 84 86
49 49 49 47 47 47 49 57 66 75 81 96 92 89 88 93 91 89 90 89 86 80 76 74 75 79 79 80 80 80 86 83 82 89 90 83 85 82 84 85 85 85 84 86
50 50 49 50 52 51 52 57 63 72 78 82 98 96 94 90 93 95 95 95 92 91 89 84 87 86 86 88 90 92 90 92 93 95 95 96 96 93 92 92 92 91 90 90
48 48 48 48 53 55 56 55 60 66 73 83 83 91 99 96 96 97 97 94 95 93 97 98 97 95 94 94 96 96 97 95 95 98 99 105 103 99 99 97 97 100 101 103
47 45 46 45 48 54 57 59 59 62 66 70 80 84 86 99 100 100 103 100 96 96 96 99 100 101 100 97 99 97 99 100 104 106 106 105 103 103 104 105 106 107 104 105
44 44 45 45 43 47 51 58 61 62 65 69 72 73 81 88 98 103 105 106 105 103 101 102 101 99 98 98 99 100 100 101 104 106 106 108 112 112 112 111 108 110 115 112
41 41 41 42 43 44 45 51 55 58 62 64 69 73 78 80 86 93 97 98 99 100 98 99 101 103 108 107 110 110 110 111 113 115 117 116 115 113 113 114 117 113 111 113
39 41 42 43 43 44 46 49 54 59 62 64 66 69 73 79 83 84 85 87 91 94 97 100 106 106 107 108 109 112 112 111 112 112 113 113 114 114 112 112 113 114 116 115
39 39 40 40 40 42 44 47 52 57 63 65 67 69 71 74 77 81 86 89 90 89 90 92 95 99 104 106 107 107 106 106 105 106 107 108 110 112 114 113 112 111 110 110
32 34 36 37 38 40 43 46 49 53 56 61 65 67 68 70 71 74 77 81 84 86 87 89 90 92 94 96 98 99 101 102 103 104 105 106 106 106 106 106 106 105 105 104
29 32 34 36 36 36 38 41 44 48 52 55 58 61 64 66 68 70 73 76 78 80 81 83 85 87 89 91 92 94 95 96 97 98 98 100 100 100 100 100 100 101 102 101
26 29 31 34 37 39 41 42 43 45 48 51 55 58 61 64 67 69 72 74 75 77 78 80 81 82 84 86 88 90 91 92 93 94 95 95 96 97 96 96 95 95 94 93
26 29 32 35 38 41 44 47 49 50 52 53 55 57 59 62 64 67 69 71 73 75 77 78 80 81 82 84 85 86 87 88 89 90 90 90 90 90 90 89 88 87 86 84
34 37 38 41 43 45 47 50 52 53 55 57 59 61 63 65 66 68 70 71 72 74 75 77 78 79 80 81 82 82 83 83 84 84 84 84 84 83 83 82 81 81 82 82
39 42 44 46 48 49 51 52 54 55 56 57 58 60 61 63 64 65 66 68 68 69 70 70 71 72 72 73 73 74 75 75 76 77 77 78 78 79 80 80 80 80 79 79
45 47 49 51 53 55 55 56 56 57 57 58 58 59 60 60 61 61 62 62 63 64 65 66 67 68 68 69 70 71 72 73 74 75 75 76 76 76 76 76 76 75 75 75
48 50 51 52 52 52 51 51 51 52 52 53 55 56 57 59 59 60 61 61 62 63 64 65 65 66 67 68 69 69 69 69 69 69 70 70 71 71 72 71 70 69 69 69
48 48 49 49 48 47 46 46 46 44 45 45 46 48 50 52 54 54 56 57 58 60 61 61 63 63 63 64 64 65 65 65 65 65 65 65 65 66 66 66 66 65 65 65

GFSNGP_250_spd_093.txt.gz
Wind_Speed
65 62 61 60 57 54 48 44 41 39 40 40 39 41 45 35 25 10 5 23 19 20 34 27 37 45 49 52 51 53 52 49 50 51 49 49 49 47 47 48 48 49 47 47
53 52 52 53 52 46 41 38 38 38 35 36 41 41 38 33 37 36 29 31 28 29 35 46 46 46 50 50 51 54 55 52 45 45 50 56 54 54 54 51 51 50 49 48
44 44 46 49 47 43 41 39 39 39 33 32 37 36 35 34 43 48 46 31 46 43 39 41 40 40 40 44 47 50 51 54 54 50 47 52 58 57 59 55 55 55 55 56
44 44 46 47 44 43 43 43 43 39 36 32 32 40 41 44 52 54 54 56 59 49 46 45 47 47 45 44 46 49 50 53 53 53 54 59 60 60 58 57 58 60 61 61
47 46 46 47 47 46 47 43 42 37 35 34 46 46 47 50 58 59 58 55 53 49 48 51 51 49 52 54 56 52 41 51 61 63 63 63 64 62 61 63 63 61 59 59
47 46 47 48 49 46 43 47 43 40 37 37 58 56 49 49 58 59 65 65 55 58 55 56 57 58 55 58 59 59 48 59 73 71 70 69 67 67 67 67 66 66 68 69
47 49 50 47 44 44 47 47 45 43 42 48 66 62 58 54 57 63 68 70 61 63 62 61 60 62 63 64 62 53 59 73 79 69 67 68 71 72 72 73 73 72 72 74
41 46 48 45 45 46 47 47 46 43 46 59 72 71 66 63 62 70 70 73 67 70 66 67 63 64 68 68 67 64 74 72 70 69 67 67 65 64 67 72 76 78 76 74
43 44 49 47 47 44 42 41 43 42 50 66 69 80 71 68 72 69 78 77 72 72 73 71 73 75 75 73 69 75 77 79 77 76 76 75 75 75 75 75 76 77 75 77
45 47 47 45 44 42 42 40 41 47 53 66 70 85 81 79 80 83 82 80 83 80 77 76 75 78 79 78 79 77 72 78 79 79 83 82 81 82 82 83 82 82 83 81
47 47 46 45 43 42 42 41 42 46 53 66 75 85 87 84 86 88 86 87 84 83 85 81 81 80 79 80 85 83 82 77 78 87 88 89 89 90 90 91 90 90 91 89
50 50 48 47 46 44 44 44 44 44 49 62 75 82 91 95 91 91 90 88 88 90 87 86 93 91 89 90 90 89 90 90 93 97 96 92 93 93 94 92 89 92 89 98
51 50 50 49 48 48 47 45 43 45 48 56 68 79 84 97 99 97 93 92 93 94 93 89 89 89 90 90 93 95 94 93 93 95 96 92 89 90 94 99 94 96 101 101
50 47 46 47 47 48 48 50 48 50 49 52 59 72 82 87 101 103 103 103 98 94 90 88 91 95 95 98 95 96 97 99 100 97 96 100 102 103 103 104 107 109 112 112
47 45 42 43 43 45 46 48 51 54 56 55 57 63 73 85 92 106 108 106 103 103 102 101 100 102 101 101 100 101 102 101 102 101 103 103 104 107 110 110 113 117 116 117
44 44 42 43 44 44 45 46 51 55 58 60 59 60 65 73 83 92 107 107 107 108 110 111 110 110 111 112 112 111 111 111 110 112 113 116 119 120 119 120 121 121 123 118
39 38 41 42 44 44 44 44 45 49 55 60 63 64 66 71 75 81 87 95 106 109 110 112 110 108 110 113 114 116 117 117 117 118 119 121 122 121 119 121 123 122 122 122
36 37 39 41 39 39 41 42 44 47 52 58 63 66 69 71 75 78 81 85 90 94 98 101 102 105 110 111 112 115 119 118 119 121 124 125 123 121 117 116 117 118 120 121
32 32 33 35 36 37 39 41 43 46 50 54 60 66 69 71 73 76 79 82 85 87 90 92 93 96 98 99 100 102 104 107 111 113 114 115 117 118 120 121 120 120 120 120
30 30 31 32 34 36 38 40 43 45 48 51 54 59 63 66 69 72 75 79 82 84 86 89 91 92 93 93 94 96 97 98 100 102 103 105 106 106 107 107 108 107 108 107
23 25 28 31 33 35 38 41 43 45 48 51 54 57 59 62 65 68 71 73 76 78 80 82 85 87 89 90 91 91 92 92 93 94 96 97 98 99 100 100 101 101 102 102
26 30 33 36 39 41 43 45 47 48 50 52 54 56 57 60 62 65 67 69 70 72 74 75 77 78 80 82 84 86 87 88 89 91 92 93 94 95 96 96 97 97 98 97
29 32 36 38 41 44 46 48 50 51 53 54 56 57 58 60 61 63 64 66 69 70 72 73 75 76 77 79 80 81 83 84 85 86 87 88 89 90 90 91 91 91 91 91
37 40 43 45 47 48 49 50 51 51 52 53 53 54 55 56 56 58 58 60 62 63 65 67 69 70 72 73 75 76 77 78 79 79 80 80 81 81 81 82 82 82 81 81
45 48 51 53 54 54 54 54 54 54 54 54 54 54 55 55 55 55 56 56 57 58 59 60 61 63 64 65 66 67 68 69 70 71 72 72 72 73 73 73 73 73 73 73
47 49 50 52 52 52 52 52 51 50 49 48 48 49 50 51 52 52 53 54 55 55 56 56 57 58 59 60 60 61 61 62 62 63 63 64 64 65 65 65 65 65 65 65
42 44 46 47 48 48 49 48 47 46 44 44 44 44 45 47 48 49 49 50 52 53 54 55 56 57 58 58 59 59 60 60 60 61 62 62 62 62 63 63 63 62 63 63

GFSNGP_250_spd_096.txt.gz
Wind_Speed
57 56 54 54 55 55 56 56 56 55 55 54 52 51 50 53 51 46 34 26 29 32 34 36 39 46 49 51 51 44 47 48 58 64 64 59 54 51 48 43 45 47 50 50
58 58 57 56 55 55 54 51 51 52 49 48 45 46 46 45 41 23 21 15 10 14 22 25 30 38 42 42 45 48 45 51 57 63 63 58 55 54 54 51 48 50 52 53
60 59 58 55 55 55 52 49 49 47 48 48 44 42 40 41 26 35 30 29 19 11 7 9 20 26 33 37 43 49 50 56 57 61 59 54 54 56 57 57 56 59 60 58
56 58 57 54 55 55 54 53 52 49 46 43 39 38 34 36 32 48 46 36 20 19 26 19 24 28 29 40 45 48 51 52 54 58 56 50 47 54 56 53 62 63 61 61
51 53 53 53 53 50 47 45 44 42 40 41 39 35 33 36 48 55 45 40 39 43 24 30 15 35 40 38 40 45 45 49 54 57 56 51 53 57 54 54 60 65 64 64
52 52 52 50 45 43 43 43 41 41 41 42 39 36 35 41 52 58 55 55 57 51 46 46 57 48 44 41 42 45 50 51 52 54 47 46 55 59 65 66 69 69 72 72
52 51 48 47 46 44 45 43 44 45 46 45 40 40 37 52 49 68 62 63 63 58 53 54 46 53 49 51 51 52 54 55 58 59 56 57 63 69 70 71 72 75 75 76
53 52 51 47 46 46 47 46 48 50 46 44 44 44 43 61 59 62 76 69 73 72 64 61 57 55 61 59 60 56 57 62 64 67 67 61 63 67 70 70 74 78 81 79
50 50 46 44 43 45 47 47 47 46 47 49 49 50 51 66 72 67 74 85 82 75 69 67 66 60 61 67 62 71 67 63 73 70 73 73 66 69 77 82 82 78 79 82
48 49 45 41 41 41 42 45 46 49 50 48 49 54 57 68 78 72 70 84 89 87 82 73 74 77 71 76 74 70 78 77 75 80 81 79 73 73 82 89 85 86 86 86
46 47 44 43 43 43 44 46 47 45 45 47 49 54 59 68 84 78 77 76 87 89 85 81 81 79 81 79 79 78 77 80 81 85 87 92 89 86 89 86 88 89 90 92
45 47 46 46 46 45 46 45 44 42 43 46 50 52 56 68 85 87 85 83 81 90 89 91 90 90 85 84 85 85 88 84 85 89 91 96 99 98 92 94 93 95 97 99
47 48 49 47 47 46 45 46 45 44 44 46 48 52 54 64 78 91 91 91 89 86 87 92 98 95 96 93 92 93 91 96 92 94 100 101 101 108 104 104 103 105 105 105
44 45 46 47 48 48 48 48 46 46 46 46 47 51 54 55 72 85 92 96 95 94 92 92 96 101 101 100 97 98 100 100 104 104 104 105 106 106 110 109 108 108 111 112
43 44 45 46 47 48 49 49 50 49 50 50 52 53 53 56 60 74 87 90 95 100 99 98 96 97 102 104 103 101 101 103 103 106 104 107 109 110 113 116 117 116 117 115
42 44 45 46 46 47 48 49 49 51 52 53 56 58 60 59 60 63 73 89 93 95 105 104 104 103 103 105 107 108 109 111 111 109 111 115 116 116 117 117 120 121 120 122
40 42 43 44 46 47 47 49 50 49 52 55 57 61 62 63 63 65 68 72 83 95 95 104 109 108 108 110 112 112 114 114 114 116 120 118 117 119 121 121 121 121 122 125
37 38 40 42 44 46 48 49 50 50 51 54 57 62 65 66 66 67 71 74 76 80 86 95 99 101 105 111 113 115 117 117 115 115 115 117 119 119 119 120 122 123 124 126
33 35 37 37 39 40 41 42 44 45 47 49 51 54 60 65 68 69 70 72 76 80 83 85 88 91 96 97 98 103 109 112 111 115 119 121 125 125 124 123 125 127 128 128
32 34 36 38 40 42 44 45 47 48 50 51 53 54 57 59 63 67 70 72 73 75 77 80 84 86 89 90 93 96 99 102 106 110 114 117 121 123 124 123 122 121 120 119
29 31 34 36 38 41 44 45 47 50 52 53 55 57 59 61 63 66 68 70 72 74 76 78 80 83 85 88 89 91 93 94 96 98 100 101 103 105 106 108 108 108 109 109
26 29 32 35 38 40 43 45 47 49 50 52 53 55 57 59 62 64 66 68 70 72 74 75 76 78 80 81 83 85 86 88 89 90 92 93 94 95 96 97 98 99 100 100
27 31 34 38 41 44 46 48 50 52 53 55 56 57 58 59 61 62 64 65 67 69 71 72 73 74 74 75 76 77 78 79 81 82 84 85 86 88 89 90 91 92 93 94
33 36 40 43 44 47 48 49 49 50 51 52 53 53 54 55 56 58 59 62 63 65 67 69 71 72 74 75 77 78 79 80 80 81 82 83 84 85 86 87 87 88 88 89
38 42 45 48 49 52 52 53 52 51 50 49 48 48 49 50 50 51 52 53 55 56 58 60 62 64 67 69 70 72 73 74 75 75 76 77 77 78 78 79 79 79 79 79
42 44 45 45 46 48 50 51 52 51 50 48 47 46 46 46 46 47 47 49 50 51 52 53 54 55 56 57 58 59 61 62 63 64 65 66 67 67 68 68 68 68 69 69
43 43 41 42 43 45 46 47 48 48 48 47 46 44 44 44 44 44 45 46 47 47 48 49 50 51 52 52 53 54 54 55 55 56 57 57 58 59 59 60 60 60 61 61

GFSNGP_250_spd_099.txt.gz
Wind_Speed
44 43 44 44 50 61 64 59 60 59 59 56 58 55 51 49 48 50 53 55 56 56 54 58 63 68 70 70 69 66 65 59 55 49 49 49 53 66 64 59 54 50 45 44
47 45 45 45 43 42 47 54 56 56 51 51 51 50 52 52 53 54 55 55 51 49 51 51 47 52 55 57 58 57 57 54 51 49 49 51 54 63 66 61 57 54 50 46
52 50 51 52 52 52 54 52 51 50 50 50 50 52 53 52 50 50 50 40 36 34 27 18 18 29 37 42 48 52 53 51 50 48 48 51 52 59 65 64 62 58 55 51
60 57 54 54 53 54 53 53 53 54 53 52 52 50 48 48 47 47 35 33 36 35 26 15 10 12 15 30 34 42 49 50 52 50 49 47 49 53 61 64 63 62 56 55
61 58 58 56 53 54 55 57 55 54 53 50 47 46 45 47 46 43 32 45 43 37 39 26 30 26 22 18 29 39 48 43 46 44 45 43 45 52 56 60 62 61 59 61
59 61 59 58 58 59 58 57 56 56 55 53 51 50 49 47 46 38 44 54 51 47 52 50 41 42 29 23 24 30 36 37 40 46 35 33 49 55 52 58 56 57 58 61
51 55 58 60 60 60 59 57 56 56 55 54 50 46 45 45 47 40 54 55 57 51 47 48 49 42 38 33 27 30 23 31 41 44 52 67 64 58 62 63 63 66 69 66
47 52 58 59 60 61 58 54 53 50 49 47 45 44 45 46 46 45 57 62 62 56 48 58 56 47 43 43 37 43 49 52 45 53 50 56 63 62 62 61 63 61 68 68
47 50 51 55 56 55 52 50 49 48 48 47 48 48 49 49 49 51 48 66 70 63 58 60 61 59 52 45 46 51 54 61 54 64 66 62 65 67 64 69 71 68 64 60
45 44 46 48 51 52 51 50 49 49 49 51 52 54 55 55 53 56 51 79 78 73 73 70 72 68 69 67 64 60 63 64 63 64 66 66 73 73 76 75 74 75 71 79
43 43 44 46 48 50 49 49 49 48 50 52 55 56 57 57 58 60 62 58 83 82 81 81 83 78 70 75 73 71 73 77 75 73 67 68 69 73 77 81 82 82 84 80
42 44 45 47 48 49 49 48 47 48 50 51 53 55 57 60 61 62 65 69 70 91 92 90 88 84 81 80 77 80 78 80 82 85 79 86 74 89 86 84 93 97 94 94
43 44 45 46 47 48 50 50 49 50 51 53 55 56 56 55 57 60 66 68 75 72 97 99 100 98 93 90 89 83 81 86 94 90 95 94 93 98 93 92 97 96 103 101
43 43 44 45 47 48 50 52 52 52 52 51 51 52 53 54 56 59 62 66 71 77 77 96 103 104 105 101 101 103 98 93 94 97 96 101 97 97 104 106 103 101 105 108
44 43 44 44 45 47 48 50 51 52 52 52 52 53 54 55 56 57 60 61 66 70 78 82 87 99 110 113 113 109 103 104 104 102 101 99 107 107 104 106 108 110 112 117
44 44 44 43 44 45 46 47 49 50 50 51 51 52 53 56 57 59 60 61 64 68 71 78 83 89 93 103 120 119 117 115 116 117 117 116 115 115 114 117 117 117 116 116
42 43 44 45 47 47 48 48 49 51 52 53 54 55 56 57 60 62 64 65 67 69 70 73 76 85 90 94 95 99 108 116 122 122 120 120 122 122 120 119 121 124 125 127
39 41 44 46 47 48 50 52 52 53 54 55 57 58 59 61 63 65 66 67 67 69 72 75 76 78 81 87 90 97 99 103 105 110 118 123 127 128 129 129 130 130 130 129
36 37 40 42 44 46 48 51 53 54 55 57 58 59 61 63 65 67 69 70 71 71 71 72 76 80 81 81 82 85 89 91 96 100 102 108 115 118 123 124 127 128 130 133
32 35 38 40 42 45 47 49 51 53 54 56 57 58 60 62 64 66 68 70 72 72 72 73 74 76 79 82 84 86 87 87 89 90 91 92 95 98 103 108 111 111 114 117
30 32 35 37 40 42 44 46 49 51 53 55 57 58 59 60 61 63 65 68 69 71 73 74 74 75 75 76 79 81 84 86 88 90 92 94 96 98 100 102 103 104 107 108
26 29 31 34 37 41 43 46 48 50 52 54 55 57 58 59 60 61 62 63 66 67 69 72 73 75 76 76 77 78 79 81 82 84 86 88 90 92 93 95 96 98 100 101
26 30 33 36 40 43 45 49 51 52 54 57 59 60 61 61 61 62 63 64 64 66 67 69 70 71 73 74 76 77 78 79 80 81 82 84 85 86 87 89 90 91 93 94
30 34 37 40 43 45 48 51 52 54 56 58 59 58 57 56 57 58 59 61 63 64 65 67 68 69 70 71 73 74 75 76 76 77 78 78 79 80 82 83 84 85 86 88
34 36 39 42 43 44 47 49 51 54 55 55 54 52 51 51 50 52 53 54 56 58 60 62 63 65 66 67 69 70 71 71 72 72 73 73 74 74 75 75 75 76 77 77
39 40 41 42 42 44 45 46 49 51 52 52 50 49 47 47 47 47 48 48 50 51 53 55 56 57 58 60 61 62 62 63 64 65 66 67 68 68 69 70 70 71 72 72
41 42 42 44 46 46 45 45 46 47 47 48 47 47 46 46 45 45 45 46 46 47 47 48 49 50 51 53 54 55 55 56 56 57 58 59 60 61 62 62 63 64 65 66

GFSNGP_250_spd_102.txt.gz
Wind_Speed
37 32 37 46 46 44 45 41 46 44 42 49 47 42 35 31 33 36 42 46 49 53 55 58 65 68 70 69 69 66 65 65 64 64 62 57 55 61 61 55 51 54 61 55
43 38 42 47 53 46 50 50 46 43 42 45 38 37 41 45 49 49 50 51 49 53 57 58 60 63 62 63 62 65 69 71 70 68 67 63 61 62 62 56 54 52 63 61
45 41 41 45 53 48 49 49 48 47 44 46 49 52 53 54 54 56 57 55 49 50 51 52 52 52 55 58 60 65 69 71 73 73 72 67 57 62 56 52 49 53 62 66
47 46 45 46 50 53 56 60 57 56 56 55 56 57 59 59 60 49 45 47 50 52 48 48 47 46 36 25 30 38 54 60 61 66 64 62 58 59 55 51 51 51 58 68
51 51 49 49 49 49 48 48 55 59 62 61 64 64 59 51 44 48 49 49 46 42 41 39 36 33 33 26 25 18 26 43 51 52 50 58 58 56 54 49 51 50 53 65
55 53 52 54 52 51 50 50 47 47 49 49 50 51 49 49 50 48 46 45 43 40 40 43 43 35 34 41 26 22 29 27 36 43 48 51 57 53 49 46 51 47 49 57
56 55 55 54 53 52 53 54 55 54 55 54 56 57 56 55 54 49 48 46 44 40 42 53 48 43 45 48 49 38 30 30 30 34 34 31 38 45 44 44 35 36 47 50
52 56 59 58 56 56 55 55 55 56 57 57 58 59 60 58 56 54 53 52 48 43 49 57 60 54 55 54 57 51 34 28 34 36 48 42 40 43 38 45 49 50 46 56
45 45 51 57 58 58 58 59 60 60 60 60 60 59 58 58 58 56 54 51 49 45 56 63 62 60 59 52 55 64 50 42 42 49 46 46 49 44 57 55 50 54 56 65
47 46 47 55 58 61 62 63 64 64 63 61 60 61 59 56 54 53 53 54 51 50 64 70 66 66 66 63 61 67 62 54 54 52 52 56 52 53 54 65 65 72 74 76
47 46 44 47 54 60 62 61 60 60 60 60 59 57 55 54 53 55 56 57 57 55 63 77 76 75 73 72 73 74 72 64 64 63 62 62 66 64 65 67 70 71 74 80
46 42 40 43 48 53 56 57 57 58 58 58 57 56 56 55 55 57 61 61 61 58 59 78 81 82 79 79 80 81 77 79 75 74 67 72 72 76 72 74 79 79 86 85
46 42 42 43 46 48 50 52 54 55 56 57 56 56 55 55 56 58 61 64 65 64 63 73 88 89 90 88 88 87 84 78 80 84 85 78 77 77 84 84 83 88 89 90
46 44 43 43 44 45 47 49 51 52 54 55 55 55 56 57 59 61 63 65 67 67 63 64 76 93 94 94 96 96 92 89 87 87 89 87 88 89 91 96 93 93 95 98
43 44 44 43 44 45 47 48 50 51 53 55 56 58 59 60 61 62 63 65 65 65 65 65 68 76 94 102 101 103 100 99 101 98 98 97 99 100 102 103 101 105 104 105
41 42 43 43 44 45 45 46 48 49 50 53 56 58 59 60 61 62 62 63 65 66 67 66 66 69 74 85 110 108 109 106 109 108 108 109 107 106 108 108 107 106 113 113
40 40 40 42 43 45 46 47 48 50 51 53 55 56 57 59 60 62 63 65 67 68 70 70 70 69 70 74 81 100 115 118 117 118 118 117 115 114 117 117 117 118 115 116
37 39 41 43 45 47 49 50 51 52 54 55 57 58 59 60 62 63 64 66 68 70 71 73 74 74 74 74 76 80 86 96 117 127 128 124 126 124 125 125 126 128 128 125
36 38 41 43 45 47 49 51 53 54 56 58 60 61 61 62 63 64 64 66 67 69 70 72 73 74 74 76 79 81 82 84 87 95 111 121 125 125 132 137 136 133 134 132
32 35 37 39 42 44 46 48 51 53 55 57 58 59 61 62 63 64 64 66 66 67 69 71 72 73 74 73 73 77 82 86 87 89 90 92 95 103 110 125 137 135 139 141
25 28 30 33 37 40 42 45 48 50 52 54 56 58 60 60 61 62 62 65 67 65 67 69 69 70 71 71 72 73 75 78 82 87 89 91 91 92 93 96 101 107 115 123
21 24 27 31 34 37 41 45 48 51 53 56 58 60 60 61 63 64 65 65 67 67 67 69 68 69 70 71 72 73 73 74 75 76 79 83 86 89 92 93 94 95 97 100
24 27 31 34 37 40 44 47 50 52 54 57 59 59 60 61 64 64 64 65 62 64 65 66 66 66 67 68 70 71 72 73 74 75 76 77 79 80 83 86 88 90 92 93
27 30 32 35 38 41 45 48 49 52 53 55 56 57 60 60 58 59 55 54 55 57 58 60 62 63 64 64 65 66 68 70 71 72 74 74 76 77 78 80 81 83 85 86
31 35 37 40 43 46 48 49 50 51 54 57 58 61 60 56 57 54 53 53 51 49 51 54 55 57 58 60 62 63 63 64 64 65 66 67 68 69 70 71 72 73 75 76
37 40 43 43 44 45 46 47 50 51 53 55 54 54 56 55 53 51 50 49 49 49 47 49 50 52 54 56 57 59 59 60 61 61 62 62 62 63 64 65 65 66 66 67
41 43 43 43 45 46 46 47 48 48 48 48 50 49 50 50 49 49 48 48 47 46 46 46 46 47 48 49 51 52 54 55 56 57 58 59 60 61 61 62 62 63 63 63

GFSNGP_250_spd_105.txt.gz
Wind_Speed
41 38 32 29 36 38 35 34 36 41 43 46 47 51 56 55 42 40 43 49 56 60 61 64 67 69 73 80 82 84 85 81 77 76 73 64 63 57 54 51 53 51 50 49
42 45 43 44 45 46 43 40 44 43 44 45 38 35 35 40 42 43 42 45 47 48 57 66 70 73 75 77 80 81 84 84 77 70 63 57 56 58 57 58 58 59 54 54
44 45 46 42 42 48 43 35 37 39 40 41 37 35 29 38 42 42 42 32 30 40 41 44 47 49 51 52 54 57 59 61 62 62 61 61 63 61 63 65 63 65 60 58
44 42 40 39 38 38 37 37 34 38 38 39 41 39 35 35 35 36 38 40 44 46 46 47 48 53 55 56 57 58 60 61 61 62 63 61 63 64 65 67 67 67 65 58
52 47 45 46 45 50 47 42 41 45 42 40 44 42 42 40 39 44 47 47 48 48 50 53 57 63 61 56 55 54 51 46 44 43 48 60 69 77 72 70 70 72 71 61
49 51 49 47 46 46 54 50 47 48 51 50 47 47 47 48 47 49 51 51 50 51 59 61 54 49 49 46 47 50 54 37 25 45 32 35 47 56 63 67 74 70 68 62
51 52 51 48 47 48 52 60 54 52 53 55 56 55 56 56 54 53 53 56 62 54 50 49 45 43 43 44 47 52 49 40 37 36 37 33 37 39 51 62 67 68 64 63
55 55 55 51 49 49 50 52 54 55 54 56 60 61 59 56 54 58 59 54 52 50 51 49 46 43 45 46 54 54 53 52 46 42 40 41 38 51 64 63 60 66 62 58
59 58 55 56 56 54 52 53 53 53 53 53 53 53 54 56 58 58 60 60 59 58 58 57 53 49 48 55 60 60 59 55 67 65 52 44 43 49 52 52 50 53 57 58
57 58 58 58 58 58 57 56 57 57 58 59 59 60 60 61 61 61 59 59 59 59 59 58 58 53 51 56 67 63 61 64 69 75 72 56 49 47 48 47 51 59 63 59
52 53 54 54 56 55 58 61 62 62 63 64 64 64 64 64 64 63 64 63 62 60 58 55 54 54 53 58 73 71 69 74 77 77 70 69 62 60 62 62 64 64 67 67
53 52 51 51 50 51 56 62 65 66 68 69 69 69 69 70 70 68 66 64 61 58 56 55 55 58 58 62 75 79 78 81 79 79 79 80 77 71 68 64 69 75 75 73
55 55 54 52 50 49 51 55 59 63 65 63 64 64 65 66 66 66 64 62 60 60 60 59 59 62 61 65 75 86 90 88 88 86 88 87 82 80 77 76 77 81 81 78
54 52 51 50 49 47 49 50 53 54 56 57 58 60 61 62 63 64 64 64 64 63 64 64 65 65 66 66 70 88 94 95 96 94 94 90 92 92 88 85 85 85 89 85
43 47 46 44 43 43 45 48 49 50 50 51 51 53 56 58 59 61 63 65 67 67 67 68 69 68 69 69 71 77 97 102 101 102 100 99 97 98 97 95 92 93 96 98
32 33 36 39 43 44 45 47 48 49 50 51 52 54 56 57 60 62 63 65 67 69 71 71 70 69 68 67 68 69 79 98 107 105 105 106 106 107 105 103 102 101 101 104
30 32 34 38 40 43 46 48 50 51 52 52 53 55 56 57 59 61 62 64 67 68 70 71 72 72 72 72 71 72 74 80 88 106 112 111 110 110 113 114 109 110 110 112
29 31 32 35 37 40 42 45 47 49 51 53 55 56 58 59 61 62 64 65 66 67 69 70 72 73 74 75 76 76 76 77 81 85 91 104 115 118 119 120 121 120 115 117
28 29 31 33 36 38 40 43 46 48 50 53 55 57 58 60 61 63 64 65 66 66 67 69 70 71 72 74 77 78 78 79 80 82 86 88 92 102 122 122 126 127 129 128
24 25 27 29 31 34 38 41 44 47 50 53 55 57 59 61 62 63 65 65 64 64 66 67 66 69 69 71 74 76 77 78 80 80 82 86 88 91 94 99 112 125 128 132
20 23 25 27 30 33 36 39 42 45 48 51 53 55 57 59 60 62 63 65 64 62 65 67 66 67 68 69 70 71 73 74 76 78 80 82 85 88 90 93 97 100 103 117
15 18 21 24 28 31 35 39 43 46 50 54 56 58 60 62 63 64 63 65 65 65 66 65 64 64 64 65 67 68 69 71 72 74 75 76 78 81 86 89 91 93 96 99
18 21 25 29 32 35 38 43 46 49 52 55 57 59 61 62 63 63 65 63 62 62 63 60 59 59 60 61 62 63 65 67 68 70 72 74 75 76 78 79 82 87 89 91
21 23 28 32 35 38 41 45 48 50 52 55 58 59 60 61 60 63 66 64 60 57 56 55 53 53 54 57 59 59 60 60 61 64 65 67 69 71 74 74 76 79 80 82
26 29 33 37 38 41 44 48 48 49 53 55 56 59 60 62 60 56 56 57 57 54 52 49 48 48 50 51 52 53 55 57 57 57 57 58 60 61 63 65 66 69 71 73
34 37 39 37 40 42 44 45 47 49 51 53 53 53 54 59 61 59 56 52 51 49 50 49 47 45 45 47 48 49 51 52 53 54 55 56 56 56 57 57 58 59 61 63
39 42 42 43 46 48 49 50 49 50 51 50 48 48 48 49 52 52 50 50 49 48 48 47 47 46 45 45 45 46 47 49 49 51 52 53 54 54 54 54 55 56 56 57

GFSNGP_250_spd_108.txt.gz
Wind_Speed
30 35 35 37 40 47 48 44 44 45 45 35 43 40 39 42 46 45 45 51 48 45 47 55 64 68 71 74 76 73 75 75 70 66 63 67 72 71 72 72 70 73 70 62
36 41 45 46 47 53 55 47 51 54 50 48 49 51 49 53 56 50 48 40 38 44 50 52 57 59 61 69 74 76 74 70 71 72 72 74 75 77 76 74 75 73 69 64
42 46 48 49 48 42 43 49 48 44 42 43 49 49 49 56 51 42 32 34 36 36 39 44 52 54 55 56 58 62 67 70 74 79 79 79 77 76 78 57 56 76 71 65
46 48 53 51 45 47 46 46 45 33 30 26 26 28 28 30 28 28 30 33 33 34 37 39 41 46 54 60 65 69 70 71 72 72 73 74 74 74 72 72 73 62 63 63
48 45 44 45 42 37 35 32 29 25 26 32 36 37 38 35 33 34 36 39 38 35 36 36 41 42 41 44 46 49 52 54 55 55 57 57 55 57 59 62 65 64 65 66
52 52 52 50 49 49 42 41 40 40 39 39 39 39 41 44 44 42 40 41 36 38 41 44 45 45 48 50 51 56 56 57 61 58 59 60 58 59 51 45 59 66 59 63
52 52 48 50 52 50 52 49 50 50 47 43 41 40 43 45 47 45 45 47 45 44 50 52 50 49 51 54 57 59 62 63 64 59 61 59 55 48 45 45 39 35 55 58
54 52 51 48 49 50 51 52 54 53 53 49 46 45 44 46 49 49 51 50 51 53 52 52 54 55 58 58 59 57 57 57 55 55 54 58 52 54 65 55 44 41 48 53
55 56 53 53 52 50 49 49 49 54 56 55 54 52 51 51 53 52 53 56 55 53 55 57 58 57 60 56 55 52 53 53 55 56 57 65 65 60 56 59 57 54 57 62
58 56 57 58 58 56 54 51 52 53 53 58 62 60 59 59 60 61 63 65 63 62 61 62 63 64 63 63 62 60 54 56 55 56 59 69 63 61 69 64 61 65 58 66
59 58 58 57 59 61 60 58 56 56 57 57 59 63 65 64 64 64 62 63 64 64 65 66 68 67 66 65 64 63 59 57 60 61 64 73 68 72 71 70 71 73 75 68
59 59 59 56 56 58 60 63 63 62 62 61 60 61 64 66 67 67 66 66 66 67 68 68 68 68 67 66 66 65 64 62 63 66 69 77 80 79 82 82 83 85 83 80
56 57 59 60 59 56 55 56 58 61 66 68 68 69 71 73 74 72 71 71 71 70 71 71 70 70 69 67 66 65 64 63 64 70 77 80 82 82 87 86 89 92 90 87
52 55 57 59 57 58 61 58 58 59 62 67 69 69 70 71 70 69 69 69 69 69 70 70 70 68 67 66 66 67 68 69 69 71 79 92 93 93 92 93 94 102 95 96
43 48 50 48 53 58 59 55 55 57 59 61 63 65 66 65 65 64 64 64 65 67 67 68 67 67 68 68 69 69 68 69 70 73 76 87 99 104 102 102 101 97 104 103
30 33 37 40 41 46 49 52 54 51 51 54 58 60 61 63 64 64 64 63 64 65 66 67 67 68 69 69 70 70 71 72 71 72 75 79 91 101 109 109 109 110 108 110
28 29 32 33 34 37 40 43 46 50 51 53 56 57 59 60 62 64 65 67 67 67 67 67 67 68 69 70 70 71 72 73 74 75 75 76 79 90 96 111 117 116 118 115
24 25 27 29 30 33 36 38 40 43 45 48 51 54 57 60 63 64 66 67 68 69 70 70 69 70 71 72 72 72 72 73 73 75 77 79 81 84 89 97 103 114 116 121
19 20 22 25 27 30 33 36 39 43 46 48 51 54 57 59 61 63 64 65 65 66 67 68 69 69 70 72 72 72 73 74 75 75 76 78 79 82 85 88 93 98 102 110
19 21 23 25 27 29 32 35 38 41 44 47 49 52 55 57 60 61 62 62 64 65 65 65 65 66 66 67 68 69 71 72 74 76 76 77 78 80 81 83 87 91 93 97
18 20 22 24 27 29 32 35 37 40 42 44 47 51 55 57 59 61 63 64 64 65 64 65 66 65 66 67 66 66 67 69 71 73 74 75 76 78 79 81 83 84 86 90
15 16 17 19 22 26 30 34 39 43 46 49 53 56 59 61 63 63 64 65 65 64 63 64 64 62 60 59 59 59 61 63 64 66 69 71 73 76 77 78 80 82 83 84
12 16 20 25 28 31 34 38 42 45 49 53 56 58 60 62 62 64 64 64 64 64 62 60 58 57 56 56 55 56 57 58 60 63 64 66 67 69 73 76 78 80 82 83
16 19 23 28 31 34 37 41 44 47 50 53 57 59 61 63 64 63 62 63 64 63 61 58 56 54 52 51 50 51 53 54 56 58 59 60 61 62 63 66 68 71 75 78
20 24 29 33 37 40 42 44 47 50 51 53 55 57 59 60 61 62 61 58 56 54 53 52 51 49 48 47 46 46 47 48 49 51 53 55 57 57 58 58 60 62 63 65
27 31 35 38 41 43 45 47 48 51 53 54 54 56 56 57 58 60 60 59 57 55 51 47 46 45 45 46 45 44 45 46 46 46 48 49 51 52 53 54 55 57 58 59
33 37 40 43 45 48 49 51 53 53 54 53 52 51 49 50 52 54 56 55 52 50 49 49 47 46 46 46 46 46 45 45 45 46 47 48 48 49 49 51 52 53 53 53

GFSNGP_250_spd_111.txt.gz
Wind_Speed
21 23 24 30 28 31 31 34 35 37 32 34 34 41 39 40 42 38 35 29 33 44 46 49 50 54 61 67 73 75 75 75 72 69 67 69 67 66 66 67 69 65 65 65
25 27 28 34 36 39 35 39 37 40 41 44 43 41 46 42 39 31 38 35 35 36 35 37 41 47 58 61 70 75 80 81 81 76 71 69 70 70 71 70 71 70 69 68
31 30 37 39 43 44 40 39 38 36 33 35 30 43 45 41 43 44 39 45 44 43 41 42 41 41 45 51 61 66 69 73 75 76 75 73 72 71 73 71 66 49 58 72
37 40 48 47 45 43 43 41 40 39 40 33 34 44 43 42 38 42 46 48 46 42 40 43 43 49 50 52 57 62 67 70 71 72 72 73 74 75 74 72 68 69 75 80
44 45 53 53 50 51 47 46 47 47 46 44 42 33 45 44 41 43 48 46 48 45 40 39 39 40 40 47 54 60 61 62 65 67 67 69 72 73 71 73 72 60 59 63
46 50 54 53 52 52 49 50 49 50 50 47 42 34 37 45 50 48 50 53 44 45 42 42 43 39 41 40 41 43 43 49 56 62 66 68 71 72 73 74 76 79 91 87
48 52 55 55 52 51 48 48 46 44 44 39 35 35 36 38 43 46 44 46 46 45 43 43 46 48 44 47 45 47 48 49 47 50 52 54 56 57 59 57 58 63 68 70
51 53 54 52 53 52 51 46 45 42 43 44 40 41 39 39 44 47 48 47 47 45 46 47 51 52 49 53 53 52 54 55 58 56 56 58 64 65 65 66 67 66 68 67
53 56 56 57 57 56 56 51 47 42 42 41 49 47 46 44 44 46 48 52 55 55 53 53 55 57 58 57 58 60 60 60 60 60 62 65 70 70 74 76 74 72 71 70
55 55 57 60 58 58 57 56 57 55 54 55 54 55 56 57 54 53 54 55 58 60 61 60 60 62 63 63 62 63 63 63 65 69 68 66 62 64 64 68 68 69 71 68
56 58 59 60 60 59 58 56 55 60 60 61 61 62 63 65 62 64 63 63 64 65 65 65 65 67 67 68 69 69 70 70 70 71 70 68 71 71 70 70 71 72 76 77
54 56 58 58 60 62 62 60 59 61 62 62 61 61 60 60 61 64 67 70 73 73 72 73 73 72 70 70 70 71 72 74 75 76 76 75 75 73 74 75 74 77 87 87
52 56 58 59 62 60 61 63 63 62 61 61 62 63 63 63 64 65 67 69 70 70 70 70 71 72 73 74 74 75 77 79 80 81 79 78 77 74 72 78 80 80 90 96
48 50 55 57 58 57 58 58 58 59 61 63 64 65 68 70 71 72 73 74 75 75 75 74 73 73 74 77 78 80 81 81 82 82 82 81 80 78 76 78 85 87 87 97
43 44 48 53 55 53 53 54 54 54 58 59 60 63 66 69 71 72 73 75 76 75 74 74 73 73 72 72 73 74 74 75 75 76 77 78 78 79 78 78 79 87 93 96
40 39 41 44 47 49 48 47 51 57 57 58 61 65 67 68 70 72 73 73 73 73 72 72 71 71 71 71 72 73 73 74 75 75 76 77 79 80 80 81 82 86 90 99
33 33 34 34 36 39 42 45 47 49 52 53 55 56 58 62 63 64 66 68 70 70 71 72 72 72 73 73 74 74 74 73 74 75 75 76 78 80 82 84 86 87 89 93
27 29 30 31 32 34 37 40 43 46 48 49 51 52 54 57 59 61 64 66 68 70 71 71 72 73 74 74 74 74 75 74 74 74 75 77 77 78 79 81 84 88 89 91
21 23 25 27 29 32 34 36 39 42 44 47 49 51 54 57 59 62 64 66 68 69 70 72 73 73 74 74 74 73 73 74 74 74 75 76 77 78 79 80 82 84 86 89
21 22 23 24 25 27 30 33 35 38 40 43 47 51 54 56 59 61 62 64 66 66 67 68 68 69 69 70 70 71 71 72 73 73 73 74 75 76 76 77 79 81 82 84
16 17 19 21 23 26 29 32 35 37 39 42 46 50 54 57 60 61 63 64 64 65 65 64 64 64 63 64 65 65 65 65 65 66 67 69 70 72 74 75 76 78 79 80
15 16 18 20 21 24 28 32 35 39 43 47 51 55 58 60 62 64 65 66 66 66 66 66 65 63 61 58 58 58 57 57 58 59 61 63 66 68 70 71 72 74 76 78
10 12 15 19 24 29 33 36 39 43 46 49 53 56 58 60 61 63 65 64 65 67 66 65 64 63 61 58 56 54 53 54 55 56 58 60 61 64 66 67 68 69 71 73
14 17 20 24 28 32 36 38 41 44 48 50 54 56 58 60 62 62 64 65 64 63 61 59 57 56 55 54 53 52 51 51 52 53 54 55 56 57 59 61 63 63 64 65
16 21 25 28 30 34 38 42 45 47 50 53 55 56 57 58 58 59 59 59 58 56 56 55 53 51 49 48 47 46 46 47 47 48 48 50 52 53 53 55 57 59 60 60
21 24 28 33 36 39 43 46 48 50 53 55 56 57 57 58 58 58 58 58 58 57 55 52 50 48 46 45 45 44 43 43 44 45 45 46 47 48 49 51 53 55 56 56
26 30 35 39 42 46 48 50 51 54 56 56 56 55 55 55 55 54 54 55 55 55 53 51 49 47 45 44 43 43 43 42 42 43 44 45 46 46 47 49 51 52 54 55

GFSNGP_250_spd_114.txt.gz
Wind_Speed
17 21 22 23 19 19 17 22 25 33 39 41 35 35 34 40 33 37 18 20 22 29 30 33 33 40 51 54 55 59 65 70 71 74 73 72 71 70 69 66 64 60 56 55
18 22 25 26 23 24 25 29 33 34 43 39 38 36 32 34 34 29 18 20 30 23 25 31 36 41 42 47 55 59 64 68 73 72 74 73 72 73 71 70 67 62 59 60
24 25 31 28 31 28 31 33 39 40 44 40 38 40 39 42 40 36 32 24 25 27 30 32 35 37 39 42 46 50 57 64 69 73 78 78 76 76 75 73 72 70 69 68
26 30 37 34 33 30 34 35 40 42 48 42 42 40 43 44 43 41 31 33 31 31 35 37 41 45 50 51 52 51 56 63 69 73 78 80 79 79 80 78 77 75 73 70
27 35 36 43 38 38 39 37 46 44 48 46 44 43 45 45 47 46 44 46 47 40 41 43 45 43 43 44 46 47 49 54 63 69 74 79 83 83 83 82 83 83 82 78
30 36 47 45 45 40 37 43 40 44 45 44 47 48 50 48 51 50 51 50 50 50 49 51 50 48 48 50 52 52 51 51 55 59 63 69 74 77 80 80 80 79 80 81
34 36 45 49 51 49 44 42 45 43 43 42 45 43 41 43 48 52 50 52 51 53 54 52 55 54 51 47 48 48 48 51 54 56 60 63 65 67 69 71 73 76 78 80
40 40 44 51 53 52 53 48 44 48 46 49 48 46 43 40 40 41 51 52 50 52 53 53 54 53 52 52 56 54 53 53 50 51 53 55 57 61 64 69 73 74 75 74
41 41 52 54 55 53 55 57 52 47 51 47 49 50 49 43 45 50 42 49 51 52 58 54 56 58 57 55 58 59 58 57 59 59 60 60 58 57 59 61 63 65 66 69
41 46 51 59 58 58 57 56 60 59 55 51 47 48 48 51 53 53 48 48 47 49 54 58 57 56 58 58 56 56 58 61 64 66 67 67 66 66 67 69 70 67 70 71
42 48 50 52 58 60 61 61 59 59 55 52 55 50 49 54 57 57 54 54 54 55 54 56 59 61 63 65 65 64 66 67 67 69 71 74 75 75 76 76 76 78 79 79
41 45 49 51 53 57 60 62 62 62 62 61 61 60 59 60 60 60 60 61 61 62 65 65 66 69 68 69 71 71 73 75 77 77 77 78 79 79 80 81 83 83 83 83
39 42 46 48 53 54 57 59 61 60 60 61 62 62 62 62 66 69 69 68 68 69 69 69 70 71 73 77 79 80 81 81 80 81 81 79 79 81 83 84 86 89 89 90
36 40 43 48 48 50 53 53 53 55 58 59 60 61 63 64 65 66 68 69 71 73 75 76 77 78 78 79 80 81 81 82 82 83 84 84 85 86 86 87 89 90 90 90
34 37 41 42 42 48 51 53 52 52 53 55 57 59 62 64 67 70 71 73 76 78 79 79 80 79 78 78 79 79 79 80 80 81 82 84 85 86 87 87 89 90 91 91
30 35 37 38 38 39 42 45 47 49 51 54 56 58 59 61 64 68 71 74 76 77 77 77 78 78 78 79 77 76 76 77 78 79 80 82 83 84 84 85 85 85 86 88
29 32 34 35 35 36 38 39 41 44 47 51 54 57 58 59 60 61 63 65 67 69 71 72 73 74 74 75 75 75 74 75 75 77 78 79 81 82 83 84 84 84 85 86
26 29 31 31 32 33 35 38 41 44 46 48 50 51 52 53 55 58 61 63 65 67 68 70 70 72 73 74 74 75 75 75 75 75 76 76 78 78 79 81 82 83 84 84
22 24 27 29 31 33 36 38 39 41 44 46 47 50 53 55 57 59 61 63 65 67 68 70 71 72 72 73 73 73 74 73 74 75 76 76 76 76 76 77 79 80 81 82
20 21 22 24 25 27 30 33 35 38 40 43 46 48 50 53 55 58 61 63 64 66 68 69 70 71 71 71 71 70 70 72 73 73 74 75 76 77 77 76 76 76 77 77
16 17 19 21 22 24 26 28 31 35 38 41 44 48 51 55 57 60 62 64 65 66 67 68 68 67 65 66 66 67 67 66 66 67 67 68 70 72 73 73 73 74 75 76
13 14 15 16 19 21 25 28 31 36 40 45 49 52 55 58 60 62 64 66 67 68 67 67 67 67 67 65 64 63 61 60 59 59 60 62 64 66 68 70 70 71 72 73
9 10 12 15 19 23 27 31 36 40 43 46 50 54 57 59 60 61 65 65 67 67 66 66 67 67 66 64 62 60 58 57 57 56 56 57 58 59 61 63 65 66 67 69
8 11 14 18 22 26 29 31 36 40 45 49 52 56 59 62 64 63 64 65 64 65 65 63 61 60 59 59 58 57 55 53 52 52 52 52 53 54 55 56 57 59 59 59
10 13 16 19 24 27 32 36 41 45 49 53 55 58 60 61 61 63 62 61 61 61 59 57 56 54 54 53 52 51 49 49 49 49 49 50 51 52 53 54 55 56 57 57
12 16 21 25 30 34 39 44 48 51 55 57 57 59 58 59 59 59 59 59 57 56 56 56 54 52 50 49 48 48 47 47 46 46 47 47 48 48 49 51 52 53 54 54
17 22 27 31 36 41 46 50 54 56 57 59 59 57 58 59 59 59 58 57 56 56 55 54 52 50 49 48 47 47 46 45 45 45 45 45 46 46 46 48 49 50 51 51

GFSNGP_250_spd_117.txt.gz
Wind_Speed
38 32 25 19 12 8 3 21 27 25 23 25 21 17 15 18 17 20 27 28 24 31 22 19 27 24 27 37 35 48 53 57 61 64 69 71 72 77 78 77 76 74 76 75
35 29 25 22 15 11 6 24 29 29 30 27 24 23 22 15 17 18 16 26 28 21 26 28 28 30 21 30 37 40 45 53 60 62 66 69 70 72 75 78 76 75 75 74
32 29 27 26 21 16 13 26 32 32 31 27 27 30 27 18 15 19 17 21 20 24 18 21 25 31 32 31 34 36 38 44 51 57 61 64 67 68 72 78 77 75 75 76
30 28 28 30 26 25 22 24 35 37 38 34 32 32 32 27 25 22 25 21 23 22 27 25 30 39 40 39 39 40 40 42 49 52 56 61 65 69 71 76 79 76 75 74
30 28 31 33 34 31 31 29 36 41 44 40 39 37 35 34 35 36 31 32 25 26 28 30 34 33 34 33 34 38 38 41 45 51 56 60 63 67 70 75 77 78 78 76
32 27 32 34 40 37 36 34 32 42 47 49 42 40 39 40 41 42 42 33 34 37 35 37 39 38 39 41 43 45 47 49 51 52 55 57 62 64 70 75 79 82 83 83
33 30 33 40 44 47 39 32 37 39 45 52 49 44 41 40 43 45 49 51 46 42 43 47 48 46 48 49 50 49 49 50 52 53 53 54 56 62 67 72 78 82 84 86
33 32 33 42 46 52 46 42 37 38 41 48 53 56 50 48 47 47 50 53 53 56 54 54 53 56 55 56 60 58 58 59 57 58 60 60 60 61 63 67 69 71 77 85
34 34 34 39 50 50 50 42 44 46 42 45 49 51 56 53 52 53 56 55 56 59 58 61 62 66 64 66 64 62 62 62 62 59 60 63 62 63 68 70 71 72 75 76
35 33 36 40 47 55 56 53 50 50 51 48 51 52 48 51 59 58 54 57 51 57 59 61 63 67 66 68 67 63 64 62 65 64 61 64 66 65 65 66 67 67 69 71
35 33 36 42 49 53 56 54 54 55 56 57 56 55 50 53 55 54 55 56 56 60 61 61 61 62 65 70 68 63 67 66 64 64 64 65 70 72 71 70 72 73 74 75
30 31 34 41 47 54 56 54 53 55 58 56 56 53 54 56 59 58 58 59 58 59 62 66 65 67 67 68 68 69 67 68 72 73 73 75 76 75 76 77 79 81 84 84
26 28 31 37 45 50 54 55 58 58 59 59 59 61 61 60 61 62 62 64 66 68 70 71 73 73 74 73 73 73 74 74 75 77 78 79 80 83 83 84 85 85 86 89
24 25 28 32 39 45 48 52 56 57 57 57 58 58 58 59 62 64 67 69 70 71 72 74 76 76 77 78 79 80 82 82 82 82 83 84 87 89 90 89 90 93 95 96
22 24 26 28 32 37 41 45 50 53 55 56 56 57 59 61 62 65 67 70 73 76 78 79 79 79 80 81 82 81 80 80 81 81 83 84 86 88 89 90 91 93 94 97
21 22 23 26 28 32 35 39 37 39 44 48 52 54 57 60 63 64 67 71 72 73 76 78 79 79 79 80 79 79 78 76 77 79 80 81 82 85 87 89 91 92 93 93
21 22 23 25 27 28 31 34 35 38 40 44 48 51 53 56 60 61 62 64 66 68 69 70 71 72 73 74 75 75 75 75 76 76 77 78 78 79 80 83 84 86 88 91
19 20 22 23 25 26 29 31 34 37 40 42 45 47 48 49 51 53 55 57 59 61 62 64 65 66 68 69 70 71 72 73 73 73 73 74 75 76 78 80 81 83 85 87
18 19 20 22 23 25 28 30 32 33 35 37 39 42 44 47 49 52 54 57 59 61 63 64 66 67 68 69 70 70 71 71 72 72 73 74 75 76 76 78 78 79 80 82
15 15 15 16 18 20 21 23 26 28 30 33 37 39 41 44 48 52 56 59 61 63 64 66 67 68 69 69 69 69 70 70 70 70 70 69 69 70 70 71 72 73 75 76
15 14 14 14 14 16 18 20 23 25 27 31 35 39 44 49 53 57 61 64 65 68 69 70 70 71 71 70 70 69 68 67 67 66 66 66 66 66 67 68 69 70 71 72
13 13 13 13 12 12 14 17 21 25 29 33 37 43 47 51 56 61 62 66 69 70 71 70 69 69 69 68 66 66 65 64 63 61 60 59 59 60 60 62 63 64 65 67
10 9 7 6 9 12 16 19 23 28 32 34 40 46 51 55 58 63 67 67 68 69 69 69 69 69 67 67 66 64 62 60 59 58 57 57 57 57 57 57 57 58 59 61
5 5 6 8 10 13 18 22 26 31 36 41 47 51 56 60 62 62 64 66 66 67 67 67 66 65 64 62 61 60 60 59 57 55 53 52 52 51 52 52 53 53 53 54
6 6 8 10 15 19 24 29 33 37 41 46 50 55 58 60 63 64 64 63 63 64 64 62 60 60 59 58 57 56 55 54 53 51 50 49 49 49 49 50 50 51 51 51
8 10 13 17 22 26 30 34 37 42 47 52 55 59 61 61 61 61 60 60 61 60 58 58 57 56 56 54 52 51 51 50 50 50 49 48 47 47 47 47 47 48 48 49
12 15 19 23 27 30 35 39 43 48 55 58 61 63 63 63 62 61 60 60 59 58 57 56 55 53 52 52 51 50 49 49 48 48 47 46 45 44 45 44 44 46 46 47

GFSNGP_250_spd_120.txt.gz
Wind_Speed
61 61 48 38 30 15 9 15 28 30 29 26 19 13 14 12 12 22 24 22 24 24 16 10 19 27 32 37 42 54 65 75 83 91 92 91 90 90 89 85 84 82 79 77
61 56 46 37 30 14 13 11 32 33 31 27 23 17 12 13 16 20 25 21 24 14 19 21 17 19 19 21 27 31 36 44 53 63 69 81 86 88 88 87 84 81 81 82
58 53 46 37 32 17 18 14 26 37 36 32 26 21 16 12 19 18 24 25 19 12 15 20 15 17 22 16 22 25 29 34 40 50 56 61 67 71 75 78 79 81 77 75
59 52 44 38 32 27 21 22 24 35 40 36 30 26 22 16 17 17 21 22 18 17 22 24 24 23 27 21 23 24 33 34 34 38 45 53 58 62 65 69 72 76 76 76
59 51 44 36 33 34 26 27 28 34 42 40 37 33 30 26 24 22 21 25 21 19 27 29 27 31 33 29 27 33 35 38 39 38 41 45 47 53 58 64 67 70 72 73
56 50 46 37 35 34 37 34 32 36 38 45 41 36 35 32 31 30 29 25 25 27 28 25 29 29 28 34 38 41 40 36 38 39 40 43 45 48 51 56 61 65 69 72
52 46 42 41 36 35 41 42 34 33 37 40 47 45 41 39 38 34 35 34 35 34 35 34 37 37 38 35 37 38 43 45 45 47 47 46 47 49 53 54 56 63 67 72
51 43 41 41 39 38 38 47 41 35 37 37 44 50 49 45 44 45 44 42 44 44 44 45 45 47 44 47 50 50 52 51 53 56 56 57 60 61 62 62 62 65 65 70
49 42 39 40 40 40 40 43 47 38 39 37 36 43 53 56 47 47 45 47 49 53 54 55 53 53 53 56 58 57 58 60 60 62 65 66 64 66 64 65 68 68 66 65
45 40 38 40 41 42 43 42 47 47 40 43 43 43 42 46 52 60 56 54 55 55 58 62 63 65 64 64 65 67 65 69 68 68 72 73 74 74 74 73 73 74 75 75
41 38 35 38 40 42 44 47 48 47 48 47 47 49 49 48 47 50 58 63 63 66 65 65 65 65 68 69 72 74 76 78 81 81 80 80 80 79 81 82 81 81 79 77
37 35 31 34 39 42 45 49 53 52 52 51 50 48 49 51 51 52 54 55 58 58 60 65 70 75 77 81 77 76 78 79 78 80 78 81 83 83 84 86 85 83 85 83
32 30 28 30 36 40 44 47 51 55 55 54 56 55 52 51 52 56 57 57 57 58 60 63 66 70 73 75 76 76 76 77 77 77 79 80 80 82 84 85 88 88 87 85
27 26 25 27 31 37 41 45 49 53 55 55 56 56 55 57 59 59 58 61 64 67 70 72 73 75 77 78 79 81 81 81 81 83 83 84 84 85 86 87 89 91 92 93
24 23 23 25 27 32 36 42 46 50 51 53 54 56 60 61 59 59 61 63 66 69 71 74 75 76 77 78 80 81 81 82 82 82 83 83 84 85 87 88 90 92 95 97
22 22 23 24 25 27 31 36 40 43 46 49 52 54 52 52 51 53 58 63 67 70 70 71 73 74 75 76 76 77 78 79 78 78 78 79 79 78 79 80 81 83 86 89
20 20 22 24 24 26 28 30 33 36 39 42 45 43 43 45 49 54 58 59 60 61 62 63 65 66 68 70 71 72 73 74 74 74 75 76 76 77 77 78 80 81 83 86
18 19 20 22 23 24 25 27 29 31 33 36 37 39 42 46 48 49 49 50 52 55 57 59 62 63 65 67 67 68 69 70 71 71 72 73 74 75 77 78 80 81 83 85
15 14 16 18 20 22 24 25 27 29 30 32 33 34 35 36 39 42 45 48 51 54 57 60 62 65 67 68 68 69 69 69 68 68 69 69 70 71 73 74 76 77 78 80
12 11 12 13 14 16 17 19 19 20 21 22 26 28 32 35 38 42 45 50 55 59 63 66 68 69 71 71 70 70 69 68 67 66 67 67 67 67 67 68 68 70 71 73
12 11 10 11 12 12 13 15 16 18 20 22 25 28 31 35 40 45 52 56 59 65 68 70 72 72 72 72 71 69 67 65 64 63 62 62 62 62 62 62 63 65 66 68
13 12 12 12 11 12 14 15 15 17 19 22 26 30 35 41 47 52 56 60 63 66 69 70 72 73 72 70 68 67 66 64 63 61 60 58 57 57 56 57 57 58 59 61
15 14 14 15 14 13 12 12 14 17 22 27 31 36 42 46 51 55 58 61 64 67 68 69 70 70 70 69 68 67 64 62 60 59 58 57 56 55 55 54 54 54 54 56
15 15 15 12 11 11 12 15 19 23 29 34 38 42 46 50 52 56 61 63 65 66 66 67 66 66 66 65 63 62 61 60 59 58 55 53 52 51 51 51 51 51 51 52
15 13 12 12 13 14 17 21 25 30 34 38 41 45 51 54 58 61 63 64 64 64 64 64 63 62 61 60 59 59 57 55 54 54 53 52 50 49 48 48 49 48 49 49
14 13 14 15 16 19 22 26 30 34 38 41 46 51 55 58 61 64 65 65 63 62 62 61 60 59 58 57 55 54 53 52 52 51 51 51 50 49 48 46 46 47 47 46
16 16 17 19 21 24 28 32 36 40 44 48 52 56 59 61 64 65 64 63 62 61 60 58 57 56 55 54 52 52 51 50 50 50 50 50 49 49 48 47 45 44 45 46

GFSNGP_250_spd_123.txt.gz
Wind_Speed
50 51 50 51 54 56 47 34 26 24 21 25 25 25 22 13 11 7 6 3 8 9 13 12 17 26 32 51 65 71 70 69 87 104 102 106 110 118 113 108 110 106 104 102
48 51 49 51 56 57 48 33 26 22 26 30 31 27 22 16 12 11 11 11 16 14 17 16 12 19 35 42 52 67 75 78 77 92 105 107 109 113 116 117 114 112 109 103
48 47 48 53 57 54 47 35 26 25 32 30 35 33 24 23 18 15 13 10 15 15 13 13 13 18 25 37 49 57 67 66 66 63 78 102 107 105 105 106 105 101 99 100
49 48 49 54 57 53 47 38 28 27 28 37 34 36 30 23 23 21 21 16 15 18 16 12 9 16 22 27 24 34 49 50 53 56 61 69 82 102 111 110 106 106 103 103
50 52 51 56 59 56 49 41 33 30 32 32 37 41 37 30 23 26 25 22 17 17 17 17 11 15 19 22 24 25 32 38 43 46 47 52 57 65 76 89 99 101 105 106
51 55 57 58 61 56 50 41 39 32 36 37 36 40 42 39 31 28 29 26 27 26 21 23 23 20 25 25 23 19 28 32 34 37 42 42 45 49 54 61 66 71 74 76
55 58 59 63 61 57 49 42 39 40 36 39 38 36 43 44 40 36 33 31 32 31 29 31 33 35 35 33 37 34 31 35 37 43 46 49 49 49 52 53 56 59 60 62
59 62 64 62 59 56 48 44 40 41 40 37 40 40 41 49 46 43 41 39 38 36 35 36 38 41 39 43 44 45 49 47 49 51 53 54 54 53 54 56 55 58 60 62
61 65 64 61 59 52 48 44 41 42 43 38 43 42 45 45 48 50 50 49 48 46 46 44 44 45 46 47 48 51 53 53 57 58 58 60 62 65 65 66 67 67 69 71
62 64 62 59 51 47 47 44 43 43 44 42 39 45 44 47 50 44 56 53 55 57 57 55 56 57 58 57 59 61 63 65 64 65 67 69 71 71 71 74 74 77 76 78
64 63 59 53 46 45 44 43 43 44 45 43 42 42 48 47 48 48 50 52 60 64 61 62 63 64 65 67 68 70 72 74 76 76 77 78 78 79 81 85 85 85 86 87
61 57 54 48 43 40 40 41 43 44 45 46 46 45 47 49 54 56 53 54 55 56 57 66 71 70 69 70 74 77 78 83 85 87 89 90 89 87 90 87 93 94 92 92
50 52 51 44 37 35 36 38 41 45 46 50 50 51 49 50 51 52 54 56 58 61 62 63 65 68 73 76 78 81 84 87 88 91 93 93 94 95 96 96 94 95 95 97
44 47 41 35 31 32 34 36 39 44 46 51 52 52 51 53 53 54 56 57 60 61 63 64 68 71 75 79 82 83 85 86 87 89 90 92 93 93 92 91 91 93 95 94
40 37 32 29 28 28 31 35 38 42 46 49 52 57 57 56 57 58 59 63 60 58 60 64 69 75 79 81 82 84 85 87 87 87 88 89 91 92 93 93 93 93 95 97
35 31 28 27 26 27 28 32 36 40 44 47 49 53 55 55 56 57 57 55 55 58 64 68 67 69 71 73 75 77 78 79 80 80 80 81 82 83 83 83 83 84 85 88
30 27 25 24 25 25 27 30 35 38 41 43 46 48 50 50 51 52 52 52 56 59 60 62 63 63 63 64 65 68 70 71 73 75 76 78 79 80 80 81 82 83 83 86
26 24 22 22 23 24 26 29 31 34 36 37 39 40 41 43 45 47 50 52 53 54 54 54 56 59 61 63 65 67 70 72 73 75 76 77 77 78 80 81 82 83 84 84
22 21 21 21 22 23 24 27 28 30 31 33 35 37 38 40 42 43 43 44 45 47 51 53 55 59 63 68 71 74 76 77 77 74 73 72 72 73 73 74 76 77 79 81
20 19 19 19 20 21 22 24 25 27 28 30 31 31 33 34 36 36 38 42 45 46 51 56 61 66 70 74 77 78 79 78 76 73 70 67 66 65 66 67 69 70 71 73
19 17 18 18 17 18 19 21 22 23 24 25 26 26 28 30 32 34 37 40 46 53 58 63 67 71 73 75 77 79 79 78 75 72 69 66 64 63 61 62 62 63 64 65
20 18 17 17 16 16 17 18 19 20 20 21 23 24 26 29 32 37 43 48 51 57 62 64 68 71 74 76 78 78 77 75 73 71 68 66 64 62 59 58 58 58 59 60
20 19 19 19 17 17 17 17 18 19 19 19 21 24 29 34 38 43 47 51 57 62 64 67 70 73 75 76 76 75 73 71 69 67 65 63 61 59 58 56 55 55 55 55
20 21 21 19 17 18 19 19 17 17 19 22 26 30 34 38 43 49 54 58 62 66 68 70 72 73 73 72 72 71 70 67 65 63 61 59 57 55 54 53 53 53 53 53
21 20 18 19 20 20 18 17 18 20 23 27 32 36 41 45 49 53 57 60 63 67 69 69 70 70 69 69 67 65 63 62 60 59 57 56 55 54 53 52 51 51 51 51
18 19 19 20 19 18 18 19 22 25 29 33 38 43 46 50 54 58 63 65 68 69 69 68 66 66 67 65 63 60 59 57 56 55 54 54 54 53 52 51 50 49 49 49
20 20 20 20 20 21 22 24 27 31 35 39 42 47 51 55 59 63 66 68 69 69 67 65 65 65 63 62 60 58 56 55 54 53 53 53 52 51 51 50 48 46 45 45